Darstellungsparameter: Aktuell verwendete Einstellungen:
Skalierung der Graphiken ... ?
xyx+y,   Skalierungsfaktor:      Skalierung: Modus: x, Faktor: 1
Darstellungszeitraum ... ?
Vom - - bis: - -   Zeitraum: 17.09.2010 - 07.10.2010
Min/Max/Avg-Anzeige ... ?
Zeige MMA aktuell
Zeige MMA Monat
Zeige MMA alles
Zeige --A aktuell
Zeige --A Monat
Zeige --A alles
Keine MMA-Anzeige
MMA:
Keine MMA-Graphiken
MMA-Basis: 17.09.2010 - 07.10.2010
Quicknavigation für Darstellung... ?
Tage:      1T, 2T, 3T, 5T -1T -2T -3T -5T +1T +2T +3T +5T
Wochen: 1W, 2W, 3W -1W -2W -3W +1W +2W +3W
Monate: 1M, 3M, 6M -1M -3M -6M +1M +3M +6M
Jahre:    1J, 3J, 5J, 10J -1J -3J -5J -10J +1J +3J +5J +10J
Nutze für die Darstellung ... ?
Originaldaten oder Mittelwerte auf ...
Stundenbasis Tagesbasis Wochenbasis
Monatsbasis Jahresbasis      Datenbasis: Original-Daten
Darstellen als:
Statistik (Auto) Statistik J:M      Darstellung:
Zur Graphik,    zurück zur Übersicht aller Sensoren.
 
Tabellarische Datenbersicht: ?
 
Sensor: Nr:Datum:Temp:Abs-Feuchte:Windchill:Wind:
Aussen-T/F 1 17-09-2010 00:02:02 12.1 C 9.12 g/m*3 12.1 C 0 km/h
2 17-09-2010 00:14:02 12.1 C 9.22 g/m*3 12.1 C 0 km/h
3 17-09-2010 00:26:02 12.2 C 9.28 g/m*3 12.2 C 0 km/h
4 17-09-2010 00:38:02 12.2 C 9.28 g/m*3 12.2 C 0 km/h
5 17-09-2010 00:50:02 12.2 C 9.28 g/m*3 12.2 C 0 km/h
6 17-09-2010 01:02:02 12.1 C 9.22 g/m*3 12.1 C 0 km/h
7 17-09-2010 01:14:03 12.1 C 9.22 g/m*3 12.1 C 0 km/h
8 17-09-2010 01:26:03 12.1 C 9.33 g/m*3 12.1 C 0 km/h
9 17-09-2010 01:38:03 12 C 9.27 g/m*3 12 C 0 km/h
10 17-09-2010 01:50:03 12 C 9.27 g/m*3 12 C 0 km/h
11 17-09-2010 02:02:03 11.9 C 9.32 g/m*3 11.9 C 0 km/h
12 17-09-2010 02:14:03 11.9 C 9.32 g/m*3 11.9 C 0 km/h
13 17-09-2010 02:26:03 12 C 9.38 g/m*3 12 C 0 km/h
14 17-09-2010 02:38:03 12 C 9.27 g/m*3 12 C 0 km/h
15 17-09-2010 02:50:03 12 C 9.17 g/m*3 12 C 0 km/h
16 17-09-2010 03:02:03 12.1 C 9.01 g/m*3 12.1 C 0 km/h
17 17-09-2010 03:14:03 12.1 C 8.9 g/m*3 12.1 C 0 km/h
18 17-09-2010 03:26:03 12.1 C 8.9 g/m*3 12.1 C 0 km/h
19 17-09-2010 03:38:03 12 C 8.95 g/m*3 12 C 0 km/h
20 17-09-2010 03:50:03 12 C 8.95 g/m*3 12 C 0 km/h
21 17-09-2010 04:02:03 12 C 9.06 g/m*3 12 C 0 km/h
22 17-09-2010 04:14:03 11.9 C 8.9 g/m*3 11.9 C 0 km/h
23 17-09-2010 04:26:03 12 C 8.85 g/m*3 12 C 0 km/h
24 17-09-2010 04:38:03 11.8 C 8.63 g/m*3 11.8 C 0 km/h
25 17-09-2010 04:50:03 12 C 8.21 g/m*3 12 C 0 km/h
Sensor: Nr:Datum:Temp:Abs-Feuchte:Windchill:Wind:
Aussen-T/F 26 17-09-2010 05:02:03 11.9 C 8.15 g/m*3 11.9 C 0 km/h
27 17-09-2010 05:14:03 11.5 C 8.16 g/m*3 11.5 C 0 km/h
28 17-09-2010 05:26:04 11.1 C 8.16 g/m*3 11.1 C 0 km/h
29 17-09-2010 05:38:04 10.8 C 8.3 g/m*3 10.8 C 0 km/h
30 17-09-2010 05:50:04 10.7 C 8.35 g/m*3 10.7 C 0 km/h
31 17-09-2010 06:02:04 10.5 C 8.34 g/m*3 10.5 C 0 km/h
32 17-09-2010 06:14:04 10.5 C 8.44 g/m*3 10.5 C 0 km/h
33 17-09-2010 06:26:04 10.7 C 8.74 g/m*3 10.7 C 0 km/h
34 17-09-2010 06:38:04 10.8 C 8.8 g/m*3 10.8 C 0 km/h
35 17-09-2010 06:50:04 10.5 C 8.63 g/m*3 10.5 C 0 km/h
36 17-09-2010 07:02:02 10.2 C 8.37 g/m*3 10.2 C 0 km/h
37 17-09-2010 07:14:02 10 C 8.27 g/m*3 10 C 0 km/h
38 17-09-2010 07:26:02 9.9 C 8.31 g/m*3 9.9 C 0 km/h
39 17-09-2010 07:38:01 10 C 7.99 g/m*3 10 C 0 km/h
40 17-09-2010 07:50:02 10 C 7.8 g/m*3 10 C 0 km/h
41 17-09-2010 08:02:01 9.9 C 7.84 g/m*3 9.9 C 0 km/h
42 17-09-2010 08:14:01 10 C 7.8 g/m*3 10 C 0 km/h
43 17-09-2010 08:26:01 10.1 C 7.66 g/m*3 10.1 C 0 km/h
44 17-09-2010 08:38:01 10.3 C 7.57 g/m*3 10.3 C 0 km/h
45 17-09-2010 08:50:01 10.8 C 7.41 g/m*3 10.8 C 0 km/h
46 17-09-2010 09:02:01 10.8 C 7.31 g/m*3 10.8 C 0 km/h
47 17-09-2010 09:14:01 10.7 C 7.27 g/m*3 10.7 C 0 km/h
48 17-09-2010 09:26:02 10.8 C 7.31 g/m*3 10.8 C 0 km/h
49 17-09-2010 09:38:01 10.9 C 7.26 g/m*3 10.9 C 0 km/h
50 17-09-2010 09:50:02 11.1 C 7.25 g/m*3 11.1 C 0 km/h
Sensor: Nr:Datum:Temp:Abs-Feuchte:Windchill:Wind:
Aussen-T/F 51 17-09-2010 10:02:02 11.4 C 7.39 g/m*3 11.4 C 0 km/h
52 17-09-2010 10:14:02 11.7 C 7.53 g/m*3 11.7 C 0 km/h
53 17-09-2010 10:26:02 12.1 C 7.61 g/m*3 12.1 C 0 km/h
54 17-09-2010 10:38:01 12.4 C 7.54 g/m*3 12.4 C 0 km/h
55 17-09-2010 10:50:02 12.7 C 7.68 g/m*3 12.7 C 0 km/h
56 17-09-2010 11:02:01 13.1 C 7.65 g/m*3 13.1 C 0 km/h
57 17-09-2010 11:14:01 13.3 C 7.63 g/m*3 13.3 C 0 km/h
58 17-09-2010 11:26:01 13.8 C 7.74 g/m*3 13.8 C 0 km/h
59 17-09-2010 11:38:02 14.1 C 7.4 g/m*3 14.1 C 0 km/h
60 17-09-2010 11:50:02 14.3 C 7.37 g/m*3 14.3 C 0 km/h
61 17-09-2010 12:02:02 15.2 C 7.01 g/m*3 15.2 C 0 km/h
62 17-09-2010 12:14:02 15.2 C 6.62 g/m*3 15.2 C 0 km/h
63 17-09-2010 12:26:02 15.7 C 6.42 g/m*3 15.7 C 0 km/h
64 17-09-2010 12:38:02 16.2 C 6.62 g/m*3 16.2 C 0 km/h
65 17-09-2010 12:50:02 16.2 C 6.21 g/m*3 16.2 C 0 km/h
66 17-09-2010 13:02:02 15.9 C 6.23 g/m*3 15.9 C 0 km/h
67 17-09-2010 13:14:02 16.2 C 5.93 g/m*3 16.2 C 0 km/h
68 17-09-2010 13:26:02 16.3 C 5.83 g/m*3 16.3 C 0 km/h
69 17-09-2010 13:38:02 17 C 5.79 g/m*3 17 C 0 km/h
70 17-09-2010 13:50:02 17.9 C 5.65 g/m*3 17.9 C 0 km/h
71 17-09-2010 14:02:02 18.5 C 5.54 g/m*3 18.5 C 0 km/h
72 17-09-2010 14:14:02 17.1 C 5.24 g/m*3 17.1 C 0 km/h
73 17-09-2010 14:26:02 16.8 C 5.29 g/m*3 16.8 C 0 km/h
74 17-09-2010 14:38:02 17.4 C 5.34 g/m*3 17.4 C 0 km/h
75 17-09-2010 14:50:02 18.3 C 5 g/m*3 18.3 C 0 km/h
Sensor: Nr:Datum:Temp:Abs-Feuchte:Windchill:Wind:
Aussen-T/F 76 17-09-2010 15:02:02 18.6 C 4.93 g/m*3 18.6 C 0 km/h
77 17-09-2010 15:14:02 18.2 C 4.97 g/m*3 18.2 C 0 km/h
78 17-09-2010 15:26:02 17.2 C 5.13 g/m*3 17.2 C 0 km/h
79 17-09-2010 15:38:02 16.6 C 5.09 g/m*3 16.6 C 0 km/h
80 17-09-2010 15:50:02 16.8 C 5.15 g/m*3 16.8 C 0 km/h
81 17-09-2010 16:02:02 18.4 C 5.19 g/m*3 18.4 C 0 km/h
82 17-09-2010 16:14:02 18.9 C 5.02 g/m*3 18.9 C 0 km/h
83 17-09-2010 16:26:02 19.3 C 4.81 g/m*3 19.3 C 0 km/h
84 17-09-2010 16:38:01 18.9 C 4.86 g/m*3 18.9 C 0 km/h
85 17-09-2010 16:50:02 19.8 C 4.78 g/m*3 19.8 C 0 km/h
86 17-09-2010 17:02:01 20.1 C 4.69 g/m*3 20.1 C 0 km/h
87 17-09-2010 17:14:01 19.7 C 4.25 g/m*3 19.7 C 0 km/h
88 17-09-2010 17:26:01 18.8 C 4.35 g/m*3 18.8 C 0 km/h
89 17-09-2010 17:38:02 19.3 C 4.31 g/m*3 19.3 C 0 km/h
90 17-09-2010 17:50:02 19.4 C 4.67 g/m*3 19.4 C 0 km/h
91 17-09-2010 18:02:02 17.5 C 5.22 g/m*3 17.5 C 0 km/h
92 17-09-2010 18:14:02 16 C 5.99 g/m*3 16 C 0 km/h
93 17-09-2010 18:26:02 17.2 C 6.3 g/m*3 17.2 C 0 km/h
94 17-09-2010 18:38:02 16.3 C 6.24 g/m*3 16.3 C 0 km/h
95 17-09-2010 18:50:01 16.3 C 6.66 g/m*3 16.3 C 0 km/h
96 17-09-2010 19:02:01 16.3 C 6.66 g/m*3 16.3 C 0 km/h
97 17-09-2010 19:14:02 15.7 C 6.56 g/m*3 15.7 C 0 km/h
98 17-09-2010 19:26:01 15 C 6.54 g/m*3 15 C 0 km/h
99 17-09-2010 19:38:01 14.7 C 6.8 g/m*3 14.7 C 0 km/h
100 17-09-2010 19:50:02 14.5 C 6.84 g/m*3 14.5 C 0 km/h
Sensor: Nr:Datum:Temp:Abs-Feuchte:Windchill:Wind:
Aussen-T/F 101 17-09-2010 20:02:02 14.5 C 6.96 g/m*3 14.5 C 0 km/h
102 17-09-2010 20:14:02 14.5 C 6.96 g/m*3 14.5 C 0 km/h
103 17-09-2010 20:26:02 14.5 C 7.09 g/m*3 14.5 C 0 km/h
104 17-09-2010 20:38:02 14.1 C 7.28 g/m*3 14.1 C 0 km/h
105 17-09-2010 20:50:01 13.7 C 6.99 g/m*3 13.7 C 0 km/h
106 17-09-2010 21:02:02 13.7 C 7.22 g/m*3 13.7 C 0 km/h
107 17-09-2010 21:14:02 13.5 C 7.13 g/m*3 13.5 C 0 km/h
108 17-09-2010 21:26:01 13.4 C 7.09 g/m*3 13.4 C 0 km/h
109 17-09-2010 21:38:01 13.4 C 7.09 g/m*3 13.4 C 0 km/h
110 17-09-2010 21:50:01 13.4 C 7.21 g/m*3 13.4 C 0 km/h
111 17-09-2010 22:02:01 13.6 C 6.94 g/m*3 13.6 C 0 km/h
112 17-09-2010 22:14:01 13.6 C 6.71 g/m*3 13.6 C 0 km/h
113 17-09-2010 22:26:02 13.4 C 6.63 g/m*3 13.4 C 0 km/h
114 17-09-2010 22:39:36 13.1 C 6.62 g/m*3 13.1 C 0 km/h
115 17-09-2010 22:51:37 13 C 6.69 g/m*3 13 C 0 km/h
116 17-09-2010 23:03:37 12.8 C 6.72 g/m*3 12.8 C 0 km/h
117 17-09-2010 23:15:37 12.6 C 6.75 g/m*3 12.6 C 0 km/h
118 17-09-2010 23:27:37 12.6 C 6.86 g/m*3 12.6 C 0 km/h
119 17-09-2010 23:39:37 12.5 C 6.82 g/m*3 12.5 C 0 km/h
120 17-09-2010 23:51:37 12.4 C 6.88 g/m*3 12.4 C 0 km/h
121 18-09-2010 00:03:37 12.2 C 6.8 g/m*3 12.2 C 0 km/h
122 18-09-2010 00:15:37 12.3 C 6.95 g/m*3 12.3 C 0 km/h
123 18-09-2010 00:27:37 12 C 6.82 g/m*3 12 C 0 km/h
124 18-09-2010 00:39:37 12 C 7.03 g/m*3 12 C 0 km/h
125 18-09-2010 00:51:37 12.1 C 7.08 g/m*3 12.1 C 0 km/h
Sensor: Nr:Datum:Temp:Abs-Feuchte:Windchill:Wind:
Aussen-T/F 126 18-09-2010 01:03:37 11.9 C 7.2 g/m*3 11.9 C 0 km/h
127 18-09-2010 01:15:37 11.2 C 6.99 g/m*3 11.2 C 0 km/h
128 18-09-2010 01:27:37 10.8 C 7.02 g/m*3 10.8 C 0 km/h
129 18-09-2010 01:39:37 10.4 C 6.94 g/m*3 10.4 C 0 km/h
130 18-09-2010 01:51:37 10.2 C 6.85 g/m*3 10.2 C 0 km/h
131 18-09-2010 02:03:37 10.2 C 6.95 g/m*3 10.2 C 0 km/h
132 18-09-2010 02:15:37 10 C 7.05 g/m*3 10 C 0 km/h
133 18-09-2010 02:27:37 10 C 7.24 g/m*3 10 C 0 km/h
134 18-09-2010 02:39:37 9.8 C 7.33 g/m*3 9.8 C 0 km/h
135 18-09-2010 02:51:37 10 C 7.42 g/m*3 10 C 0 km/h
136 18-09-2010 03:03:38 9.9 C 7.47 g/m*3 9.9 C 0 km/h
137 18-09-2010 03:15:38 9.5 C 7.28 g/m*3 9.5 C 0 km/h
138 18-09-2010 03:27:38 9.4 C 7.33 g/m*3 9.4 C 0 km/h
139 18-09-2010 03:39:38 9.1 C 7.19 g/m*3 9.1 C 0 km/h
140 18-09-2010 03:51:38 9 C 7.23 g/m*3 9 C 0 km/h
141 18-09-2010 04:03:38 8.9 C 7.36 g/m*3 8.9 C 0 km/h
142 18-09-2010 04:15:38 8.7 C 7.26 g/m*3 8.7 C 0 km/h
143 18-09-2010 04:27:38 8.5 C 7.17 g/m*3 8.5 C 0 km/h
144 18-09-2010 04:39:38 8.4 C 7.13 g/m*3 8.4 C 0 km/h
145 18-09-2010 04:51:38 8.2 C 7.03 g/m*3 8.2 C 0 km/h
146 18-09-2010 05:03:38 8.2 C 7.12 g/m*3 8.2 C 0 km/h
147 18-09-2010 05:15:38 8.1 C 7.16 g/m*3 8.1 C 0 km/h
148 18-09-2010 05:27:38 7.9 C 7.23 g/m*3 7.9 C 0 km/h
149 18-09-2010 05:39:38 7.7 C 7.14 g/m*3 7.7 C 0 km/h
150 18-09-2010 05:51:38 7.8 C 7.26 g/m*3 7.8 C 0 km/h
Sensor: Nr:Datum:Temp:Abs-Feuchte:Windchill:Wind:
Aussen-T/F 151 18-09-2010 06:03:38 7.8 C 7.35 g/m*3 7.8 C 0 km/h
152 18-09-2010 06:15:38 7.5 C 7.28 g/m*3 7.5 C 0 km/h
153 18-09-2010 06:27:38 7.5 C 7.28 g/m*3 7.5 C 0 km/h
154 18-09-2010 06:39:38 7.6 C 7.41 g/m*3 7.6 C 0 km/h
155 18-09-2010 06:51:38 7.7 C 7.46 g/m*3 7.7 C 0 km/h
156 18-09-2010 07:03:39 7.7 C 7.46 g/m*3 7.7 C 0 km/h
157 18-09-2010 07:15:39 7.6 C 7.33 g/m*3 7.6 C 0 km/h
158 18-09-2010 07:27:39 7.5 C 7.28 g/m*3 7.5 C 0 km/h
159 18-09-2010 07:39:39 7.3 C 7.19 g/m*3 7.3 C 0 km/h
160 18-09-2010 07:51:39 7.4 C 7.24 g/m*3 7.4 C 0 km/h
161 18-09-2010 08:03:02 7.3 C 7.11 g/m*3 7.3 C 0 km/h
162 18-09-2010 08:15:03 7.4 C 7.16 g/m*3 7.4 C 0 km/h
163 18-09-2010 08:27:03 7.5 C 7.28 g/m*3 7.5 C 0 km/h
164 18-09-2010 08:39:02 7.5 C 7.28 g/m*3 7.5 C 0 km/h
165 18-09-2010 08:51:02 7.6 C 7.33 g/m*3 7.6 C 0 km/h
166 18-09-2010 09:03:02 7.7 C 7.38 g/m*3 7.7 C 0 km/h
167 18-09-2010 09:15:02 7.8 C 7.43 g/m*3 7.8 C 0 km/h
168 18-09-2010 09:27:02 8 C 7.44 g/m*3 8 C 0 km/h
169 18-09-2010 09:39:02 8.2 C 7.54 g/m*3 8.2 C 0 km/h
170 18-09-2010 09:51:02 8.9 C 7.97 g/m*3 8.9 C 0 km/h
171 18-09-2010 10:03:02 9.3 C 8.09 g/m*3 9.3 C 0 km/h
172 18-09-2010 10:15:02 9.5 C 8.1 g/m*3 9.5 C 0 km/h
173 18-09-2010 10:27:03 9.8 C 8.07 g/m*3 9.8 C 0 km/h
174 18-09-2010 10:39:01 10.7 C 8.25 g/m*3 10.7 C 0 km/h
175 18-09-2010 10:51:02 11.7 C 8.37 g/m*3 11.7 C 0 km/h
Sensor: Nr:Datum:Temp:Abs-Feuchte:Windchill:Wind:
Aussen-T/F 176 18-09-2010 11:03:02 12.2 C 6.91 g/m*3 12.2 C 0 km/h
177 18-09-2010 11:15:02 13 C 6.8 g/m*3 13 C 0 km/h
178 18-09-2010 11:27:02 13.6 C 6.59 g/m*3 13.6 C 0 km/h
179 18-09-2010 11:39:02 14 C 6.39 g/m*3 14 C 0 km/h
180 18-09-2010 11:51:01 14.5 C 6.47 g/m*3 14.5 C 0 km/h
181 18-09-2010 12:03:02 14.6 C 6.13 g/m*3 14.6 C 0 km/h
182 18-09-2010 12:15:01 15.7 C 6.15 g/m*3 15.7 C 0 km/h
183 18-09-2010 12:27:01 15.1 C 5.42 g/m*3 15.1 C 0 km/h
184 18-09-2010 12:39:01 15.4 C 6.04 g/m*3 15.4 C 0 km/h
185 18-09-2010 12:51:01 14.9 C 5.86 g/m*3 14.9 C 0 km/h
186 18-09-2010 13:03:02 14.9 C 5.86 g/m*3 14.9 C 0 km/h
187 18-09-2010 13:15:01 15.3 C 5.48 g/m*3 15.3 C 0 km/h
188 18-09-2010 13:27:01 15.6 C 5.32 g/m*3 15.6 C 0 km/h
189 18-09-2010 13:39:01 15.8 C 5.25 g/m*3 15.8 C 0 km/h
190 18-09-2010 13:51:01 16.4 C 5.16 g/m*3 16.4 C 0 km/h
191 18-09-2010 14:03:01 16.2 C 4.96 g/m*3 16.2 C 0 km/h
192 18-09-2010 14:15:02 15.4 C 4.73 g/m*3 15.4 C 0 km/h
193 18-09-2010 14:27:02 14.7 C 4.66 g/m*3 14.7 C 0 km/h
194 18-09-2010 14:39:01 14.9 C 4.72 g/m*3 14.9 C 0 km/h
195 18-09-2010 14:51:02 15.1 C 4.77 g/m*3 15.1 C 0 km/h
196 18-09-2010 15:03:02 15.4 C 4.6 g/m*3 15.4 C 0 km/h
197 18-09-2010 15:15:02 16.1 C 4.52 g/m*3 16.1 C 0 km/h
198 18-09-2010 15:27:02 15.9 C 4.74 g/m*3 15.9 C 0 km/h
199 18-09-2010 15:39:02 17.3 C 4.57 g/m*3 17.3 C 0 km/h
200 18-09-2010 15:51:02 16.8 C 4.43 g/m*3 16.8 C 0 km/h
Sensor: Nr:Datum:Temp:Abs-Feuchte:Windchill:Wind:
Aussen-T/F 201 18-09-2010 16:03:01 16.4 C 4.75 g/m*3 16.4 C 0 km/h
202 18-09-2010 16:15:02 16.2 C 4.55 g/m*3 16.2 C 0 km/h
203 18-09-2010 16:27:03 16.1 C 4.66 g/m*3 16.1 C 0 km/h
204 18-09-2010 16:39:01 16.1 C 4.8 g/m*3 16.1 C 0 km/h
205 18-09-2010 16:51:02 16.3 C 5.55 g/m*3 16.3 C 0 km/h
206 18-09-2010 17:03:02 16.3 C 4.99 g/m*3 16.3 C 0 km/h
207 18-09-2010 17:15:02 16.4 C 6.14 g/m*3 16.4 C 0 km/h
208 18-09-2010 17:27:02 16.3 C 5.41 g/m*3 16.3 C 0 km/h
209 18-09-2010 17:39:02 15.6 C 6.12 g/m*3 15.6 C 0 km/h
210 18-09-2010 17:51:01 14.7 C 5.92 g/m*3 14.7 C 0 km/h
211 18-09-2010 18:03:02 14.5 C 6.09 g/m*3 14.5 C 0 km/h
212 18-09-2010 18:15:01 15.6 C 5.98 g/m*3 15.6 C 0 km/h
213 18-09-2010 18:27:01 16.2 C 5.93 g/m*3 16.2 C 0 km/h
214 18-09-2010 18:39:01 16.2 C 6.07 g/m*3 16.2 C 0 km/h
215 18-09-2010 18:51:01 15.8 C 6.19 g/m*3 15.8 C 0 km/h
216 18-09-2010 19:03:02 15.2 C 6.1 g/m*3 15.2 C 0 km/h
217 18-09-2010 19:15:01 14 C 5.91 g/m*3 14 C 0 km/h
218 18-09-2010 19:27:01 13 C 6.12 g/m*3 13 C 0 km/h
219 18-09-2010 19:39:01 12.2 C 6.04 g/m*3 12.2 C 0 km/h
220 18-09-2010 19:51:01 11.9 C 6.14 g/m*3 11.9 C 0 km/h
221 18-09-2010 20:03:02 11.4 C 6.36 g/m*3 11.4 C 0 km/h
222 18-09-2010 20:15:02 11.2 C 6.39 g/m*3 11.2 C 0 km/h
223 18-09-2010 20:27:02 11.1 C 6.75 g/m*3 11.1 C 0 km/h
224 18-09-2010 20:39:01 10.9 C 6.76 g/m*3 10.9 C 0 km/h
225 18-09-2010 20:51:01 10.8 C 6.72 g/m*3 10.8 C 0 km/h
Sensor: Nr:Datum:Temp:Abs-Feuchte:Windchill:Wind:
Aussen-T/F 226 18-09-2010 21:03:01 10.6 C 6.73 g/m*3 10.6 C 0 km/h
227 18-09-2010 21:15:02 10.2 C 6.66 g/m*3 10.2 C 0 km/h
228 18-09-2010 21:27:02 10 C 6.48 g/m*3 10 C 0 km/h
229 18-09-2010 21:39:01 9.7 C 6.64 g/m*3 9.7 C 0 km/h
230 18-09-2010 21:51:02 9.6 C 6.6 g/m*3 9.6 C 0 km/h
231 18-09-2010 22:03:02 9.3 C 6.56 g/m*3 9.3 C 0 km/h
232 18-09-2010 22:15:02 9.2 C 6.61 g/m*3 9.2 C 0 km/h
233 18-09-2010 22:27:02 9 C 6.7 g/m*3 9 C 0 km/h
234 18-09-2010 22:40:03 8.8 C 6.79 g/m*3 8.8 C 0 km/h
235 18-09-2010 22:52:03 8.6 C 6.79 g/m*3 8.6 C 0 km/h
236 18-09-2010 23:04:03 8.5 C 6.74 g/m*3 8.5 C 0 km/h
237 18-09-2010 23:16:03 8.4 C 6.87 g/m*3 8.4 C 0 km/h
238 18-09-2010 23:28:03 8.2 C 6.78 g/m*3 8.2 C 0 km/h
239 18-09-2010 23:40:03 8 C 6.7 g/m*3 8 C 0 km/h
240 18-09-2010 23:52:03 7.9 C 6.74 g/m*3 7.9 C 0 km/h
241 19-09-2010 00:04:03 7.8 C 6.77 g/m*3 7.8 C 0 km/h
242 19-09-2010 00:16:03 7.7 C 6.73 g/m*3 7.7 C 0 km/h
243 19-09-2010 00:28:03 7.6 C 6.77 g/m*3 7.6 C 0 km/h
244 19-09-2010 00:40:03 7.4 C 6.68 g/m*3 7.4 C 0 km/h
245 19-09-2010 00:52:03 7.3 C 6.64 g/m*3 7.3 C 0 km/h
246 19-09-2010 01:04:04 7.1 C 6.47 g/m*3 7.1 C 0 km/h
247 19-09-2010 01:16:04 7.1 C 6.55 g/m*3 7.1 C 0 km/h
248 19-09-2010 01:28:04 6.9 C 6.54 g/m*3 6.9 C 0 km/h
249 19-09-2010 01:40:04 6.8 C 6.58 g/m*3 6.8 C 0 km/h
250 19-09-2010 01:52:04 6.7 C 6.53 g/m*3 6.7 C 0 km/h
Sensor: Nr:Datum:Temp:Abs-Feuchte:Windchill:Wind:
Aussen-T/F 251 19-09-2010 02:04:04 6.6 C 6.57 g/m*3 6.6 C 0 km/h
252 19-09-2010 02:16:04 6.4 C 6.48 g/m*3 6.4 C 0 km/h
253 19-09-2010 02:28:04 6.4 C 6.48 g/m*3 6.4 C 0 km/h
254 19-09-2010 02:40:04 6.4 C 6.56 g/m*3 6.4 C 0 km/h
255 19-09-2010 02:52:04 6.4 C 6.56 g/m*3 6.4 C 0 km/h
256 19-09-2010 03:04:04 6.4 C 6.56 g/m*3 6.4 C 0 km/h
257 19-09-2010 03:16:04 6.4 C 6.56 g/m*3 6.4 C 0 km/h
258 19-09-2010 03:28:04 6.4 C 6.56 g/m*3 6.4 C 0 km/h
259 19-09-2010 03:40:04 6.5 C 6.6 g/m*3 6.5 C 0 km/h
260 19-09-2010 03:52:04 6.4 C 6.56 g/m*3 6.4 C 0 km/h
261 19-09-2010 04:04:04 6.3 C 6.51 g/m*3 6.3 C 0 km/h
262 19-09-2010 04:16:04 6.1 C 6.43 g/m*3 6.1 C 0 km/h
263 19-09-2010 04:28:04 5.9 C 6.42 g/m*3 5.9 C 0 km/h
264 19-09-2010 04:40:04 6.2 C 6.47 g/m*3 6.2 C 0 km/h
265 19-09-2010 04:52:04 6.5 C 6.67 g/m*3 6.5 C 0 km/h
266 19-09-2010 05:04:05 6.6 C 6.72 g/m*3 6.6 C 0 km/h
267 19-09-2010 05:16:05 6.2 C 6.47 g/m*3 6.2 C 0 km/h
268 19-09-2010 05:28:05 6 C 6.39 g/m*3 6 C 0 km/h
269 19-09-2010 05:40:05 5.8 C 6.3 g/m*3 5.8 C 0 km/h
270 19-09-2010 05:52:05 5.6 C 6.22 g/m*3 5.6 C 0 km/h
271 19-09-2010 06:04:05 5.5 C 6.18 g/m*3 5.5 C 0 km/h
272 19-09-2010 06:16:05 5.5 C 6.18 g/m*3 5.5 C 0 km/h
273 19-09-2010 06:28:05 5.7 C 6.33 g/m*3 5.7 C 0 km/h
274 19-09-2010 06:40:05 6 C 6.46 g/m*3 6 C 0 km/h
275 19-09-2010 06:52:05 6.1 C 6.5 g/m*3 6.1 C 0 km/h
Sensor: Nr:Datum:Temp:Abs-Feuchte:Windchill:Wind:
Aussen-T/F 276 19-09-2010 07:04:05 6.3 C 6.59 g/m*3 6.3 C 0 km/h
277 19-09-2010 07:16:05 6.1 C 6.5 g/m*3 6.1 C 0 km/h
278 19-09-2010 07:28:05 5.8 C 6.38 g/m*3 5.8 C 0 km/h
279 19-09-2010 07:40:05 5.9 C 6.42 g/m*3 5.9 C 0 km/h
280 19-09-2010 07:52:05 5.9 C 6.42 g/m*3 5.9 C 0 km/h
281 19-09-2010 08:04:05 6.2 C 6.47 g/m*3 6.2 C 0 km/h
282 19-09-2010 08:16:05 6.7 C 6.76 g/m*3 6.7 C 0 km/h
283 19-09-2010 08:28:05 7.3 C 6.95 g/m*3 7.3 C 0 km/h
284 19-09-2010 08:40:05 7.4 C 7 g/m*3 7.4 C 0 km/h
285 19-09-2010 08:52:02 7.2 C 6.75 g/m*3 7.2 C 0 km/h
286 19-09-2010 09:04:02 7.2 C 6.67 g/m*3 7.2 C 0 km/h
287 19-09-2010 09:16:02 7.3 C 6.79 g/m*3 7.3 C 0 km/h
288 19-09-2010 09:28:02 7.7 C 6.97 g/m*3 7.7 C 0 km/h
289 19-09-2010 09:40:02 8.8 C 7.31 g/m*3 8.8 C 0 km/h
290 19-09-2010 09:52:01 9.6 C 7.15 g/m*3 9.6 C 0 km/h
291 19-09-2010 10:04:01 10.2 C 6.76 g/m*3 10.2 C 0 km/h
292 19-09-2010 10:16:01 10.9 C 6.86 g/m*3 10.9 C 0 km/h
293 19-09-2010 10:28:01 10.8 C 6.62 g/m*3 10.8 C 0 km/h
294 19-09-2010 10:40:01 10.7 C 6.58 g/m*3 10.7 C 0 km/h
295 19-09-2010 10:52:01 11 C 6.61 g/m*3 11 C 0 km/h
296 19-09-2010 11:04:01 11.5 C 6.51 g/m*3 11.5 C 0 km/h
297 19-09-2010 11:16:02 12.2 C 6.58 g/m*3 12.2 C 0 km/h
298 19-09-2010 11:28:02 13.3 C 6.47 g/m*3 13.3 C 0 km/h
299 19-09-2010 11:40:01 13.8 C 5.96 g/m*3 13.8 C 0 km/h
300 19-09-2010 11:52:03 13.8 C 5.72 g/m*3 13.8 C 0 km/h
Sensor: Nr:Datum:Temp:Abs-Feuchte:Windchill:Wind:
Aussen-T/F 301 19-09-2010 12:04:02 13.8 C 5.84 g/m*3 13.8 C 0 km/h
302 19-09-2010 12:16:02 14.3 C 5.9 g/m*3 14.3 C 0 km/h
303 19-09-2010 12:28:02 15.2 C 5.84 g/m*3 15.2 C 0 km/h
304 19-09-2010 12:40:02 15.7 C 5.35 g/m*3 15.7 C 0 km/h
305 19-09-2010 12:52:02 15.7 C 5.35 g/m*3 15.7 C 0 km/h
306 19-09-2010 13:04:01 16.2 C 5.52 g/m*3 16.2 C 0 km/h
307 19-09-2010 13:16:02 16.4 C 5.58 g/m*3 16.4 C 0 km/h
308 19-09-2010 13:28:02 16.1 C 5.48 g/m*3 16.1 C 0 km/h
309 19-09-2010 13:40:02 16 C 5.59 g/m*3 16 C 0 km/h
310 19-09-2010 13:52:01 15.9 C 5.55 g/m*3 15.9 C 0 km/h
311 19-09-2010 14:04:02 16.5 C 5.62 g/m*3 16.5 C 0 km/h
312 19-09-2010 14:16:01 17.5 C 5.67 g/m*3 17.5 C 0 km/h
313 19-09-2010 14:28:01 17.5 C 5.67 g/m*3 17.5 C 0 km/h
314 19-09-2010 14:40:01 17.5 C 5.67 g/m*3 17.5 C 0 km/h
315 19-09-2010 14:52:01 17.9 C 5.8 g/m*3 17.9 C 0 km/h
316 19-09-2010 15:04:02 17.8 C 5.46 g/m*3 17.8 C 0 km/h
317 19-09-2010 15:16:01 18.6 C 5.73 g/m*3 18.6 C 0 km/h
318 19-09-2010 15:28:01 18.4 C 5.66 g/m*3 18.4 C 0 km/h
319 19-09-2010 15:40:02 19 C 5.38 g/m*3 19 C 0 km/h
320 19-09-2010 15:52:01 19.3 C 4.98 g/m*3 19.3 C 0 km/h
321 19-09-2010 16:04:02 18.8 C 5.31 g/m*3 18.8 C 0 km/h
322 19-09-2010 16:16:01 18.6 C 5.41 g/m*3 18.6 C 0 km/h
323 19-09-2010 16:28:01 18.8 C 5.31 g/m*3 18.8 C 0 km/h
324 19-09-2010 16:40:02 19.6 C 5.4 g/m*3 19.6 C 0 km/h
325 19-09-2010 16:52:01 19.4 C 5.01 g/m*3 19.4 C 0 km/h
Sensor: Nr:Datum:Temp:Abs-Feuchte:Windchill:Wind:
Aussen-T/F 326 19-09-2010 17:04:02 19.8 C 5.3 g/m*3 19.8 C 0 km/h
327 19-09-2010 17:16:02 19.1 C 5.25 g/m*3 19.1 C 0 km/h
328 19-09-2010 17:28:02 18.6 C 5.57 g/m*3 18.6 C 0 km/h
329 19-09-2010 17:40:01 18.4 C 6.29 g/m*3 18.4 C 0 km/h
330 19-09-2010 17:52:02 18 C 5.99 g/m*3 18 C 0 km/h
331 19-09-2010 18:04:01 17.6 C 6 g/m*3 17.6 C 0 km/h
332 19-09-2010 18:16:02 17.2 C 6.3 g/m*3 17.2 C 0 km/h
333 19-09-2010 18:28:03 17.1 C 5.82 g/m*3 17.1 C 0 km/h
334 19-09-2010 18:40:01 17 C 6.08 g/m*3 17 C 0 km/h
335 19-09-2010 18:52:02 16.5 C 5.76 g/m*3 16.5 C 0 km/h
336 19-09-2010 19:04:02 16.2 C 5.79 g/m*3 16.2 C 0 km/h
337 19-09-2010 19:16:02 16 C 5.99 g/m*3 16 C 0 km/h
338 19-09-2010 19:28:02 15.8 C 5.92 g/m*3 15.8 C 0 km/h
339 19-09-2010 19:40:03 15.6 C 5.98 g/m*3 15.6 C 0 km/h
340 19-09-2010 19:52:02 15.3 C 6.14 g/m*3 15.3 C 0 km/h
341 19-09-2010 20:04:02 14.8 C 6.33 g/m*3 14.8 C 0 km/h
342 19-09-2010 20:16:02 14.5 C 6.34 g/m*3 14.5 C 0 km/h
343 19-09-2010 20:28:02 14.3 C 6.27 g/m*3 14.3 C 0 km/h
344 19-09-2010 20:40:02 14.3 C 6.39 g/m*3 14.3 C 0 km/h
345 19-09-2010 20:52:02 14.4 C 6.18 g/m*3 14.4 C 0 km/h
346 19-09-2010 21:04:02 14.4 C 6.43 g/m*3 14.4 C 0 km/h
347 19-09-2010 21:16:02 14.2 C 6.47 g/m*3 14.2 C 0 km/h
348 19-09-2010 21:28:02 14 C 6.51 g/m*3 14 C 0 km/h
349 19-09-2010 21:40:02 13.7 C 6.87 g/m*3 13.7 C 0 km/h
350 19-09-2010 21:52:03 13.5 C 6.78 g/m*3 13.5 C 0 km/h
Sensor: Nr:Datum:Temp:Abs-Feuchte:Windchill:Wind:
Aussen-T/F 351 19-09-2010 22:04:03 13.4 C 6.74 g/m*3 13.4 C 0 km/h
352 19-09-2010 22:17:01 13.3 C 6.7 g/m*3 13.3 C 0 km/h
353 19-09-2010 22:29:01 13.4 C 6.86 g/m*3 13.4 C 0 km/h
354 19-09-2010 22:41:01 13.3 C 6.82 g/m*3 13.3 C 0 km/h
355 19-09-2010 22:53:01 13.2 C 6.77 g/m*3 13.2 C 0 km/h
356 19-09-2010 23:05:01 13 C 6.8 g/m*3 13 C 0 km/h
357 19-09-2010 23:17:01 12.5 C 6.82 g/m*3 12.5 C 0 km/h
358 19-09-2010 23:29:01 12.2 C 6.8 g/m*3 12.2 C 0 km/h
359 19-09-2010 23:41:01 11.9 C 6.67 g/m*3 11.9 C 0 km/h
360 19-09-2010 23:53:01 11.8 C 6.74 g/m*3 11.8 C 0 km/h
361 20-09-2010 00:05:01 11.9 C 6.88 g/m*3 11.9 C 0 km/h
362 20-09-2010 00:17:01 11.9 C 6.99 g/m*3 11.9 C 0 km/h
363 20-09-2010 00:29:02 11.9 C 6.88 g/m*3 11.9 C 0 km/h
364 20-09-2010 00:41:02 11.4 C 6.77 g/m*3 11.4 C 0 km/h
365 20-09-2010 00:53:02 11.3 C 6.83 g/m*3 11.3 C 0 km/h
366 20-09-2010 01:05:02 10.8 C 6.72 g/m*3 10.8 C 0 km/h
367 20-09-2010 01:17:02 10.5 C 6.69 g/m*3 10.5 C 0 km/h
368 20-09-2010 01:29:02 10.4 C 6.75 g/m*3 10.4 C 0 km/h
369 20-09-2010 01:41:02 10.2 C 6.85 g/m*3 10.2 C 0 km/h
370 20-09-2010 01:53:02 10.3 C 6.9 g/m*3 10.3 C 0 km/h
371 20-09-2010 02:05:02 10.1 C 6.81 g/m*3 10.1 C 0 km/h
372 20-09-2010 02:17:02 10 C 6.77 g/m*3 10 C 0 km/h
373 20-09-2010 02:29:02 9.8 C 6.96 g/m*3 9.8 C 0 km/h
374 20-09-2010 02:41:02 9.6 C 6.87 g/m*3 9.6 C 0 km/h
375 20-09-2010 02:53:02 9.7 C 7.01 g/m*3 9.7 C 0 km/h
Sensor: Nr:Datum:Temp:Abs-Feuchte:Windchill:Wind:
Aussen-T/F 376 20-09-2010 03:05:02 9.8 C 6.96 g/m*3 9.8 C 0 km/h
377 20-09-2010 03:17:02 9.6 C 6.96 g/m*3 9.6 C 0 km/h
378 20-09-2010 03:29:02 9.7 C 7.1 g/m*3 9.7 C 0 km/h
379 20-09-2010 03:41:02 9.7 C 7.1 g/m*3 9.7 C 0 km/h
380 20-09-2010 03:53:02 9.4 C 6.96 g/m*3 9.4 C 0 km/h
381 20-09-2010 04:05:02 9.3 C 6.92 g/m*3 9.3 C 0 km/h
382 20-09-2010 04:17:02 9.2 C 6.88 g/m*3 9.2 C 0 km/h
383 20-09-2010 04:29:02 9 C 6.88 g/m*3 9 C 0 km/h
384 20-09-2010 04:41:03 8.8 C 6.88 g/m*3 8.8 C 0 km/h
385 20-09-2010 04:53:03 8.6 C 6.87 g/m*3 8.6 C 0 km/h
386 20-09-2010 05:05:03 8.4 C 6.87 g/m*3 8.4 C 0 km/h
387 20-09-2010 05:17:03 8.4 C 6.87 g/m*3 8.4 C 0 km/h
388 20-09-2010 05:29:03 8.3 C 6.91 g/m*3 8.3 C 0 km/h
389 20-09-2010 05:41:03 8.2 C 6.87 g/m*3 8.2 C 0 km/h
390 20-09-2010 05:53:03 8.3 C 6.91 g/m*3 8.3 C 0 km/h
391 20-09-2010 06:05:03 8.3 C 6.91 g/m*3 8.3 C 0 km/h
392 20-09-2010 06:17:03 8.4 C 7.04 g/m*3 8.4 C 0 km/h
393 20-09-2010 06:29:03 8.5 C 7 g/m*3 8.5 C 0 km/h
394 20-09-2010 06:41:03 8.5 C 7 g/m*3 8.5 C 0 km/h
395 20-09-2010 06:53:03 8.7 C 7.18 g/m*3 8.7 C 0 km/h
396 20-09-2010 07:05:01 8.6 C 7.13 g/m*3 8.6 C 0 km/h
397 20-09-2010 07:17:02 8.4 C 7.04 g/m*3 8.4 C 0 km/h
398 20-09-2010 07:29:02 8.5 C 7.09 g/m*3 8.5 C 0 km/h
399 20-09-2010 07:41:01 8.5 C 7.09 g/m*3 8.5 C 0 km/h
400 20-09-2010 07:53:02 8.6 C 7.13 g/m*3 8.6 C 0 km/h
Sensor: Nr:Datum:Temp:Abs-Feuchte:Windchill:Wind:
Aussen-T/F 401 20-09-2010 08:05:02 9 C 7.14 g/m*3 9 C 0 km/h
402 20-09-2010 08:17:02 9.2 C 6.97 g/m*3 9.2 C 0 km/h
403 20-09-2010 08:29:02 9.2 C 6.79 g/m*3 9.2 C 0 km/h
404 20-09-2010 08:41:02 9.3 C 6.74 g/m*3 9.3 C 0 km/h
405 20-09-2010 08:53:01 9.2 C 6.7 g/m*3 9.2 C 0 km/h
406 20-09-2010 09:05:02 9.3 C 6.83 g/m*3 9.3 C 0 km/h
407 20-09-2010 09:17:01 9.6 C 6.87 g/m*3 9.6 C 0 km/h
408 20-09-2010 09:29:01 9.7 C 6.82 g/m*3 9.7 C 0 km/h
409 20-09-2010 09:41:01 10 C 6.95 g/m*3 10 C 0 km/h
410 20-09-2010 09:53:01 10.6 C 7.12 g/m*3 10.6 C 0 km/h
411 20-09-2010 10:05:02 11.4 C 7.29 g/m*3 11.4 C 0 km/h
412 20-09-2010 10:17:02 12.1 C 7.18 g/m*3 12.1 C 0 km/h
413 20-09-2010 10:29:02 12.4 C 7.1 g/m*3 12.4 C 0 km/h
414 20-09-2010 10:41:01 12.9 C 7.33 g/m*3 12.9 C 0 km/h
415 20-09-2010 10:53:01 13.2 C 7.12 g/m*3 13.2 C 0 km/h
416 20-09-2010 11:05:01 13.3 C 7.39 g/m*3 13.3 C 0 km/h
417 20-09-2010 11:17:02 13.8 C 7.15 g/m*3 13.8 C 0 km/h
418 20-09-2010 11:29:02 14.8 C 6.84 g/m*3 14.8 C 0 km/h
419 20-09-2010 11:41:01 15.3 C 6.66 g/m*3 15.3 C 0 km/h
420 20-09-2010 11:53:02 15.9 C 6.77 g/m*3 15.9 C 0 km/h
421 20-09-2010 12:05:02 16.1 C 6.31 g/m*3 16.1 C 0 km/h
422 20-09-2010 12:17:02 15.9 C 6.5 g/m*3 15.9 C 0 km/h
423 20-09-2010 12:29:03 16.1 C 6.31 g/m*3 16.1 C 0 km/h
424 20-09-2010 12:41:02 16.4 C 6.42 g/m*3 16.4 C 0 km/h
425 20-09-2010 12:53:02 16.8 C 6.15 g/m*3 16.8 C 0 km/h
Sensor: Nr:Datum:Temp:Abs-Feuchte:Windchill:Wind:
Aussen-T/F 426 20-09-2010 13:05:01 17.1 C 6.11 g/m*3 17.1 C 0 km/h
427 20-09-2010 13:17:02 17.5 C 6.26 g/m*3 17.5 C 0 km/h
428 20-09-2010 13:29:02 18.1 C 6.33 g/m*3 18.1 C 0 km/h
429 20-09-2010 13:41:02 18.5 C 6.01 g/m*3 18.5 C 0 km/h
430 20-09-2010 13:53:02 18.9 C 5.83 g/m*3 18.9 C 0 km/h
431 20-09-2010 14:05:03 19.5 C 6.04 g/m*3 19.5 C 0 km/h
432 20-09-2010 14:17:02 19.7 C 5.94 g/m*3 19.7 C 0 km/h
433 20-09-2010 14:29:02 20.1 C 5.91 g/m*3 20.1 C 0 km/h
434 20-09-2010 14:41:02 20.5 C 5.69 g/m*3 20.5 C 0 km/h
435 20-09-2010 14:53:01 20.3 C 5.45 g/m*3 20.3 C 0 km/h
436 20-09-2010 15:05:02 20.8 C 5.79 g/m*3 20.8 C 0 km/h
437 20-09-2010 15:17:01 21.4 C 5.81 g/m*3 21.4 C 0 km/h
438 20-09-2010 15:29:01 21.5 C 5.85 g/m*3 21.5 C 0 km/h
439 20-09-2010 15:41:01 21.6 C 5.88 g/m*3 21.6 C 0 km/h
440 20-09-2010 15:53:01 21.8 C 5.95 g/m*3 21.8 C 0 km/h
441 20-09-2010 16:05:01 22.2 C 6.48 g/m*3 22.2 C 0 km/h
442 20-09-2010 16:17:02 22.6 C 6.23 g/m*3 22.6 C 0 km/h
443 20-09-2010 16:29:02 22.8 C 6.1 g/m*3 22.8 C 0 km/h
444 20-09-2010 16:41:01 22.6 C 6.23 g/m*3 22.6 C 0 km/h
445 20-09-2010 16:53:01 22.1 C 6.05 g/m*3 22.1 C 0 km/h
446 20-09-2010 17:05:01 22.2 C 6.28 g/m*3 22.2 C 0 km/h
447 20-09-2010 17:17:02 22.1 C 5.86 g/m*3 22.1 C 0 km/h
448 20-09-2010 17:29:02 22.3 C 6.32 g/m*3 22.3 C 0 km/h
449 20-09-2010 17:41:01 22.1 C 5.86 g/m*3 22.1 C 0 km/h
450 20-09-2010 17:53:02 22.7 C 6.26 g/m*3 22.7 C 0 km/h
Sensor: Nr:Datum:Temp:Abs-Feuchte:Windchill:Wind:
Aussen-T/F 451 20-09-2010 18:05:02 22.7 C 6.47 g/m*3 22.7 C 0 km/h
452 20-09-2010 18:17:02 22.2 C 6.28 g/m*3 22.2 C 0 km/h
453 20-09-2010 18:29:02 21.6 C 6.64 g/m*3 21.6 C 0 km/h
454 20-09-2010 18:41:02 20.6 C 6.8 g/m*3 20.6 C 0 km/h
455 20-09-2010 18:53:02 19.4 C 7.01 g/m*3 19.4 C 0 km/h
456 20-09-2010 19:05:01 18.9 C 6.97 g/m*3 18.9 C 0 km/h
457 20-09-2010 19:17:01 18.1 C 7.11 g/m*3 18.1 C 0 km/h
458 20-09-2010 19:29:01 17.5 C 7.31 g/m*3 17.5 C 0 km/h
459 20-09-2010 19:41:02 16.8 C 7.29 g/m*3 16.8 C 0 km/h
460 20-09-2010 19:53:02 16.2 C 7.17 g/m*3 16.2 C 0 km/h
461 20-09-2010 20:05:02 15.9 C 7.31 g/m*3 15.9 C 0 km/h
462 20-09-2010 20:17:02 15.6 C 7.45 g/m*3 15.6 C 0 km/h
463 20-09-2010 20:29:02 15.3 C 7.57 g/m*3 15.3 C 0 km/h
464 20-09-2010 20:41:02 15.1 C 7.74 g/m*3 15.1 C 0 km/h
465 20-09-2010 20:53:02 14.8 C 7.6 g/m*3 14.8 C 0 km/h
466 20-09-2010 21:05:02 14.7 C 7.68 g/m*3 14.7 C 0 km/h
467 20-09-2010 21:17:02 14.4 C 7.66 g/m*3 14.4 C 0 km/h
468 20-09-2010 21:29:02 14.2 C 7.69 g/m*3 14.2 C 0 km/h
469 20-09-2010 21:41:02 14 C 7.72 g/m*3 14 C 0 km/h
470 20-09-2010 21:53:02 13.7 C 7.82 g/m*3 13.7 C 0 km/h
471 20-09-2010 22:06:02 13.6 C 8 g/m*3 13.6 C 0 km/h
472 20-09-2010 22:18:02 13.5 C 7.95 g/m*3 13.5 C 0 km/h
473 20-09-2010 22:30:02 13.5 C 8.07 g/m*3 13.5 C 0 km/h
474 20-09-2010 22:42:02 12.9 C 8.11 g/m*3 12.9 C 0 km/h
475 20-09-2010 22:54:02 12.6 C 8.19 g/m*3 12.6 C 0 km/h
Sensor: Nr:Datum:Temp:Abs-Feuchte:Windchill:Wind:
Aussen-T/F 476 20-09-2010 23:06:02 12.6 C 8.19 g/m*3 12.6 C 0 km/h
477 20-09-2010 23:18:02 12.5 C 8.14 g/m*3 12.5 C 0 km/h
478 20-09-2010 23:30:02 12.3 C 8.04 g/m*3 12.3 C 0 km/h
479 20-09-2010 23:42:02 12.1 C 7.94 g/m*3 12.1 C 0 km/h
480 20-09-2010 23:54:02 11.9 C 7.94 g/m*3 11.9 C 0 km/h
481 21-09-2010 00:06:03 11.8 C 7.89 g/m*3 11.8 C 0 km/h
482 21-09-2010 00:18:03 11.6 C 7.9 g/m*3 11.6 C 0 km/h
483 21-09-2010 00:30:03 11.5 C 7.85 g/m*3 11.5 C 0 km/h
484 21-09-2010 00:42:03 11.4 C 7.9 g/m*3 11.4 C 0 km/h
485 21-09-2010 00:54:03 11.3 C 7.85 g/m*3 11.3 C 0 km/h
486 21-09-2010 01:06:03 11.2 C 7.8 g/m*3 11.2 C 0 km/h
487 21-09-2010 01:18:03 11.1 C 7.86 g/m*3 11.1 C 0 km/h
488 21-09-2010 01:30:03 10.9 C 7.86 g/m*3 10.9 C 0 km/h
489 21-09-2010 01:42:03 10.8 C 7.81 g/m*3 10.8 C 0 km/h
490 21-09-2010 01:54:03 10.5 C 7.66 g/m*3 10.5 C 0 km/h
491 21-09-2010 02:06:03 10.4 C 7.71 g/m*3 10.4 C 0 km/h
492 21-09-2010 02:18:03 10.4 C 7.71 g/m*3 10.4 C 0 km/h
493 21-09-2010 02:30:03 10.3 C 7.76 g/m*3 10.3 C 0 km/h
494 21-09-2010 02:42:03 10.1 C 7.66 g/m*3 10.1 C 0 km/h
495 21-09-2010 02:54:03 10 C 7.61 g/m*3 10 C 0 km/h
496 21-09-2010 03:06:03 10 C 7.71 g/m*3 10 C 0 km/h
497 21-09-2010 03:18:03 9.9 C 7.75 g/m*3 9.9 C 0 km/h
498 21-09-2010 03:30:03 9.8 C 7.79 g/m*3 9.8 C 0 km/h
499 21-09-2010 03:42:03 9.5 C 7.65 g/m*3 9.5 C 0 km/h
500 21-09-2010 03:54:03 9.5 C 7.65 g/m*3 9.5 C 0 km/h
Sensor: Nr:Datum:Temp:Abs-Feuchte:Windchill:Wind:
Aussen-T/F 501 21-09-2010 04:06:04 9.4 C 7.6 g/m*3 9.4 C 0 km/h
502 21-09-2010 04:18:04 9.3 C 7.55 g/m*3 9.3 C 0 km/h
503 21-09-2010 04:30:04 9.2 C 7.5 g/m*3 9.2 C 0 km/h
504 21-09-2010 04:42:04 9.2 C 7.5 g/m*3 9.2 C 0 km/h
505 21-09-2010 04:54:04 9 C 7.41 g/m*3 9 C 0 km/h
506 21-09-2010 05:06:04 9 C 7.49 g/m*3 9 C 0 km/h
507 21-09-2010 05:18:04 8.8 C 7.49 g/m*3 8.8 C 0 km/h
508 21-09-2010 05:30:04 8.8 C 7.49 g/m*3 8.8 C 0 km/h
509 21-09-2010 05:42:04 8.7 C 7.44 g/m*3 8.7 C 0 km/h
510 21-09-2010 05:54:04 8.6 C 7.39 g/m*3 8.6 C 0 km/h
511 21-09-2010 06:06:04 8.5 C 7.43 g/m*3 8.5 C 0 km/h
512 21-09-2010 06:18:04 8.4 C 7.38 g/m*3 8.4 C 0 km/h
513 21-09-2010 06:30:04 8.3 C 7.33 g/m*3 8.3 C 0 km/h
514 21-09-2010 06:42:04 8.2 C 7.29 g/m*3 8.2 C 0 km/h
515 21-09-2010 06:54:04 8.3 C 7.42 g/m*3 8.3 C 0 km/h
516 21-09-2010 07:06:02 8.2 C 7.37 g/m*3 8.2 C 0 km/h
517 21-09-2010 07:18:02 8.2 C 7.37 g/m*3 8.2 C 0 km/h
518 21-09-2010 07:30:02 8.1 C 7.32 g/m*3 8.1 C 0 km/h
519 21-09-2010 07:42:03 8.1 C 7.32 g/m*3 8.1 C 0 km/h
520 21-09-2010 07:54:02 8.1 C 7.32 g/m*3 8.1 C 0 km/h
521 21-09-2010 08:06:01 8 C 7.36 g/m*3 8 C 0 km/h
522 21-09-2010 08:18:02 8.1 C 7.41 g/m*3 8.1 C 0 km/h
523 21-09-2010 08:30:02 8.2 C 7.54 g/m*3 8.2 C 0 km/h
524 21-09-2010 08:42:02 8.4 C 7.63 g/m*3 8.4 C 0 km/h
525 21-09-2010 08:54:02 8.6 C 7.73 g/m*3 8.6 C 0 km/h
Sensor: Nr:Datum:Temp:Abs-Feuchte:Windchill:Wind:
Aussen-T/F 526 21-09-2010 09:06:02 8.7 C 7.78 g/m*3 8.7 C 0 km/h
527 21-09-2010 09:18:02 8.9 C 7.88 g/m*3 8.9 C 0 km/h
528 21-09-2010 09:30:02 9.3 C 8 g/m*3 9.3 C 0 km/h
529 21-09-2010 09:42:02 9.5 C 8.1 g/m*3 9.5 C 0 km/h
530 21-09-2010 09:54:01 9.5 C 8.1 g/m*3 9.5 C 0 km/h
531 21-09-2010 10:06:02 9.9 C 8.31 g/m*3 9.9 C 0 km/h
532 21-09-2010 10:18:01 10.5 C 8.53 g/m*3 10.5 C 0 km/h
533 21-09-2010 10:30:01 11.1 C 8.76 g/m*3 11.1 C 0 km/h
534 21-09-2010 10:42:01 11.7 C 8.99 g/m*3 11.7 C 0 km/h
535 21-09-2010 10:54:01 12.4 C 8.96 g/m*3 12.4 C 0 km/h
536 21-09-2010 11:06:01 13 C 8.51 g/m*3 13 C 0 km/h
537 21-09-2010 11:18:02 13.6 C 8.59 g/m*3 13.6 C 0 km/h
538 21-09-2010 11:30:02 14 C 8.56 g/m*3 14 C 0 km/h
539 21-09-2010 11:42:01 14.7 C 8.81 g/m*3 14.7 C 0 km/h
540 21-09-2010 11:54:03 15.3 C 8.75 g/m*3 15.3 C 0 km/h
541 21-09-2010 12:06:02 15.8 C 8.75 g/m*3 15.8 C 0 km/h
542 21-09-2010 12:18:02 16.5 C 8.85 g/m*3 16.5 C 0 km/h
543 21-09-2010 12:30:03 16.5 C 9.13 g/m*3 16.5 C 0 km/h
544 21-09-2010 12:42:02 16 C 8.86 g/m*3 16 C 0 km/h
545 21-09-2010 12:54:02 15.9 C 9.34 g/m*3 15.9 C 0 km/h
546 21-09-2010 13:06:02 16.4 C 9.77 g/m*3 16.4 C 0 km/h
547 21-09-2010 13:18:02 16.6 C 9.46 g/m*3 16.6 C 0 km/h
548 21-09-2010 13:30:02 16.8 C 9.72 g/m*3 16.8 C 0 km/h
549 21-09-2010 13:42:02 17.3 C 9.87 g/m*3 17.3 C 0 km/h
550 21-09-2010 13:54:02 18 C 9.37 g/m*3 18 C 0 km/h
Sensor: Nr:Datum:Temp:Abs-Feuchte:Windchill:Wind:
Aussen-T/F 551 21-09-2010 14:06:02 17.5 C 9.54 g/m*3 17.5 C 0 km/h
552 21-09-2010 14:18:01 17.4 C 9.63 g/m*3 17.4 C 0 km/h
553 21-09-2010 14:30:01 17.2 C 9.52 g/m*3 17.2 C 0 km/h
554 21-09-2010 14:42:02 17.5 C 9.54 g/m*3 17.5 C 0 km/h
555 21-09-2010 14:54:02 19.5 C 9.06 g/m*3 19.5 C 0 km/h
556 21-09-2010 15:06:02 21.3 C 8.76 g/m*3 21.3 C 0 km/h
557 21-09-2010 15:18:02 22.6 C 8.44 g/m*3 22.6 C 0 km/h
558 21-09-2010 15:30:02 23.3 C 7.95 g/m*3 23.3 C 0 km/h
559 21-09-2010 15:42:02 23.9 C 7.79 g/m*3 23.9 C 0 km/h
560 21-09-2010 15:54:02 24.5 C 7.83 g/m*3 24.5 C 0 km/h
561 21-09-2010 16:06:02 25 C 7.6 g/m*3 25 C 0 km/h
562 21-09-2010 16:18:02 25.2 C 7.45 g/m*3 25.2 C 0 km/h
563 21-09-2010 16:30:02 25.2 C 7.68 g/m*3 25.2 C 0 km/h
564 21-09-2010 16:42:02 25.1 C 7.87 g/m*3 25.1 C 0 km/h
565 21-09-2010 16:54:02 25.3 C 7.49 g/m*3 25.3 C 0 km/h
566 21-09-2010 17:06:02 25.4 C 7.53 g/m*3 25.4 C 0 km/h
567 21-09-2010 17:18:02 25.5 C 7.81 g/m*3 25.5 C 0 km/h
568 21-09-2010 17:30:02 24.5 C 7.39 g/m*3 24.5 C 0 km/h
569 21-09-2010 17:42:02 24.1 C 7.44 g/m*3 24.1 C 0 km/h
570 21-09-2010 17:54:02 23.5 C 7.61 g/m*3 23.5 C 0 km/h
571 21-09-2010 18:06:02 23.2 C 7.69 g/m*3 23.2 C 0 km/h
572 21-09-2010 18:18:02 22.7 C 7.88 g/m*3 22.7 C 0 km/h
573 21-09-2010 18:30:02 22.2 C 7.85 g/m*3 22.2 C 0 km/h
574 21-09-2010 18:42:02 21.7 C 8.01 g/m*3 21.7 C 0 km/h
575 21-09-2010 18:54:02 21.1 C 7.92 g/m*3 21.1 C 0 km/h
Sensor: Nr:Datum:Temp:Abs-Feuchte:Windchill:Wind:
Aussen-T/F 576 21-09-2010 19:06:01 20.2 C 8.04 g/m*3 20.2 C 0 km/h
577 21-09-2010 19:18:02 19.5 C 8.22 g/m*3 19.5 C 0 km/h
578 21-09-2010 19:30:02 18.5 C 8.39 g/m*3 18.5 C 0 km/h
579 21-09-2010 19:42:02 17.8 C 8.5 g/m*3 17.8 C 0 km/h
580 21-09-2010 19:54:02 17.2 C 8.49 g/m*3 17.2 C 0 km/h
581 21-09-2010 20:06:03 16.8 C 8.58 g/m*3 16.8 C 0 km/h
582 21-09-2010 20:18:02 16.5 C 8.43 g/m*3 16.5 C 0 km/h
583 21-09-2010 20:30:02 16.3 C 8.46 g/m*3 16.3 C 0 km/h
584 21-09-2010 20:42:02 16.1 C 8.5 g/m*3 16.1 C 0 km/h
585 21-09-2010 20:54:02 15.8 C 8.62 g/m*3 15.8 C 0 km/h
586 21-09-2010 21:06:02 15.6 C 8.51 g/m*3 15.6 C 0 km/h
587 21-09-2010 21:18:01 15.4 C 8.41 g/m*3 15.4 C 0 km/h
588 21-09-2010 21:30:01 15.1 C 8.51 g/m*3 15.1 C 0 km/h
589 21-09-2010 21:42:02 14.7 C 8.56 g/m*3 14.7 C 0 km/h
590 21-09-2010 21:54:02 14.5 C 8.46 g/m*3 14.5 C 0 km/h
591 21-09-2010 22:06:02 14.4 C 8.53 g/m*3 14.4 C 0 km/h
592 21-09-2010 22:18:01 14.1 C 8.5 g/m*3 14.1 C 0 km/h
593 21-09-2010 22:30:01 13.9 C 8.51 g/m*3 13.9 C 0 km/h
594 21-09-2010 22:42:01 13.6 C 8.47 g/m*3 13.6 C 0 km/h
595 21-09-2010 22:54:01 13.5 C 8.54 g/m*3 13.5 C 0 km/h
596 21-09-2010 23:06:01 13.2 C 8.38 g/m*3 13.2 C 0 km/h
597 21-09-2010 23:18:01 13.1 C 8.44 g/m*3 13.1 C 0 km/h
598 21-09-2010 23:30:01 13 C 8.51 g/m*3 13 C 0 km/h
599 21-09-2010 23:42:01 12.9 C 8.68 g/m*3 12.9 C 0 km/h
600 21-09-2010 23:54:01 12.7 C 8.68 g/m*3 12.7 C 0 km/h
Sensor: Nr:Datum:Temp:Abs-Feuchte:Windchill:Wind:
Aussen-T/F 601 22-09-2010 00:06:01 12.5 C 8.69 g/m*3 12.5 C 0 km/h
602 22-09-2010 00:18:01 12.3 C 8.58 g/m*3 12.3 C 0 km/h
603 22-09-2010 00:30:01 12.2 C 8.52 g/m*3 12.2 C 0 km/h
604 22-09-2010 00:42:01 12.1 C 8.47 g/m*3 12.1 C 0 km/h
605 22-09-2010 00:54:01 11.9 C 8.47 g/m*3 11.9 C 0 km/h
606 22-09-2010 01:06:02 11.8 C 8.53 g/m*3 11.8 C 0 km/h
607 22-09-2010 01:18:02 11.6 C 8.42 g/m*3 11.6 C 0 km/h
608 22-09-2010 01:30:02 11.5 C 8.47 g/m*3 11.5 C 0 km/h
609 22-09-2010 01:42:02 11.3 C 8.26 g/m*3 11.3 C 0 km/h
610 22-09-2010 01:54:02 11.3 C 8.36 g/m*3 11.3 C 0 km/h
611 22-09-2010 02:06:02 11 C 8.21 g/m*3 11 C 0 km/h
612 22-09-2010 02:18:02 10.9 C 8.16 g/m*3 10.9 C 0 km/h
613 22-09-2010 02:30:02 10.8 C 8.2 g/m*3 10.8 C 0 km/h
614 22-09-2010 02:42:02 10.7 C 8.15 g/m*3 10.7 C 0 km/h
615 22-09-2010 02:54:02 10.5 C 8.05 g/m*3 10.5 C 0 km/h
616 22-09-2010 03:06:02 10.4 C 8 g/m*3 10.4 C 0 km/h
617 22-09-2010 03:18:02 10.4 C 8 g/m*3 10.4 C 0 km/h
618 22-09-2010 03:30:02 10.3 C 8.04 g/m*3 10.3 C 0 km/h
619 22-09-2010 03:42:02 10.1 C 7.94 g/m*3 10.1 C 0 km/h
620 22-09-2010 03:54:02 9.9 C 8.03 g/m*3 9.9 C 0 km/h
621 22-09-2010 04:06:02 9.9 C 8.03 g/m*3 9.9 C 0 km/h
622 22-09-2010 04:18:02 9.7 C 7.93 g/m*3 9.7 C 0 km/h
623 22-09-2010 04:30:02 9.6 C 7.79 g/m*3 9.6 C 0 km/h
624 22-09-2010 04:42:02 9.6 C 7.88 g/m*3 9.6 C 0 km/h
625 22-09-2010 04:54:02 9.8 C 8.07 g/m*3 9.8 C 0 km/h
Sensor: Nr:Datum:Temp:Abs-Feuchte:Windchill:Wind:
Aussen-T/F 626 22-09-2010 05:06:02 9.8 C 8.07 g/m*3 9.8 C 0 km/h
627 22-09-2010 05:18:02 9.9 C 8.22 g/m*3 9.9 C 0 km/h
628 22-09-2010 05:30:03 9.9 C 8.22 g/m*3 9.9 C 0 km/h
629 22-09-2010 05:42:03 9.9 C 8.22 g/m*3 9.9 C 0 km/h
630 22-09-2010 05:54:03 9.7 C 8.02 g/m*3 9.7 C 0 km/h
631 22-09-2010 06:06:03 9.8 C 8.16 g/m*3 9.8 C 0 km/h
632 22-09-2010 06:18:03 9.8 C 8.16 g/m*3 9.8 C 0 km/h
633 22-09-2010 06:30:03 9.8 C 8.16 g/m*3 9.8 C 0 km/h
634 22-09-2010 06:42:03 9.7 C 8.11 g/m*3 9.7 C 0 km/h
635 22-09-2010 06:54:03 9.8 C 8.16 g/m*3 9.8 C 0 km/h
636 22-09-2010 07:06:01 9.8 C 8.16 g/m*3 9.8 C 0 km/h
637 22-09-2010 07:18:02 9.8 C 8.16 g/m*3 9.8 C 0 km/h
638 22-09-2010 07:30:02 9.6 C 8.06 g/m*3 9.6 C 0 km/h
639 22-09-2010 07:42:01 9.3 C 7.91 g/m*3 9.3 C 0 km/h
640 22-09-2010 07:54:01 9.3 C 7.91 g/m*3 9.3 C 0 km/h
641 22-09-2010 08:06:01 9.3 C 7.91 g/m*3 9.3 C 0 km/h
642 22-09-2010 08:18:02 9.3 C 7.91 g/m*3 9.3 C 0 km/h
643 22-09-2010 08:30:02 9.6 C 8.15 g/m*3 9.6 C 0 km/h
644 22-09-2010 08:42:01 9.3 C 7.91 g/m*3 9.3 C 0 km/h
645 22-09-2010 08:54:02 9.3 C 7.91 g/m*3 9.3 C 0 km/h
646 22-09-2010 09:06:01 9.6 C 8.06 g/m*3 9.6 C 0 km/h
647 22-09-2010 09:18:02 9.8 C 8.16 g/m*3 9.8 C 0 km/h
648 22-09-2010 09:30:02 10.2 C 8.09 g/m*3 10.2 C 0 km/h
649 22-09-2010 09:42:01 10.3 C 8.04 g/m*3 10.3 C 0 km/h
650 22-09-2010 09:54:02 11 C 8.41 g/m*3 11 C 0 km/h
Sensor: Nr:Datum:Temp:Abs-Feuchte:Windchill:Wind:
Aussen-T/F 651 22-09-2010 10:06:01 11.8 C 8.63 g/m*3 11.8 C 0 km/h
652 22-09-2010 10:18:01 12.4 C 8.74 g/m*3 12.4 C 0 km/h
653 22-09-2010 10:30:01 12 C 8.31 g/m*3 12 C 0 km/h
654 22-09-2010 10:42:02 12.7 C 8.79 g/m*3 12.7 C 0 km/h
655 22-09-2010 10:54:01 13.2 C 8.73 g/m*3 13.2 C 0 km/h
656 22-09-2010 11:06:02 12.9 C 8.68 g/m*3 12.9 C 0 km/h
657 22-09-2010 11:18:01 13.1 C 8.9 g/m*3 13.1 C 0 km/h
658 22-09-2010 11:30:01 13.6 C 9.3 g/m*3 13.6 C 0 km/h
659 22-09-2010 11:42:02 14.2 C 9.52 g/m*3 14.2 C 0 km/h
660 22-09-2010 11:54:01 15.1 C 9.55 g/m*3 15.1 C 0 km/h
661 22-09-2010 12:06:02 15.6 C 9.71 g/m*3 15.6 C 0 km/h
662 22-09-2010 12:18:01 16 C 9.67 g/m*3 16 C 0 km/h
663 22-09-2010 12:30:01 16.5 C 9.97 g/m*3 16.5 C 0 km/h
664 22-09-2010 12:42:01 17.1 C 10.19 g/m*3 17.1 C 0 km/h
665 22-09-2010 12:54:01 17.5 C 10.29 g/m*3 17.5 C 0 km/h
666 22-09-2010 13:06:01 18.4 C 9.91 g/m*3 18.4 C 0 km/h
667 22-09-2010 13:18:02 19.1 C 9.84 g/m*3 19.1 C 0 km/h
668 22-09-2010 13:30:02 19.7 C 10.19 g/m*3 19.7 C 0 km/h
669 22-09-2010 13:42:01 20.4 C 10.26 g/m*3 20.4 C 0 km/h
670 22-09-2010 13:54:01 21.2 C 10.19 g/m*3 21.2 C 0 km/h
671 22-09-2010 14:06:01 21.8 C 10.36 g/m*3 21.8 C 0 km/h
672 22-09-2010 14:18:02 22.2 C 10.01 g/m*3 22.2 C 0 km/h
673 22-09-2010 14:30:02 22.9 C 10.22 g/m*3 22.9 C 0 km/h
674 22-09-2010 14:42:01 23.4 C 9.88 g/m*3 23.4 C 0 km/h
675 22-09-2010 14:54:02 24 C 9.79 g/m*3 24 C 0 km/h
Sensor: Nr:Datum:Temp:Abs-Feuchte:Windchill:Wind:
Aussen-T/F 676 22-09-2010 15:06:01 24.2 C 9.9 g/m*3 24.2 C 0 km/h
677 22-09-2010 15:18:01 24.1 C 9.63 g/m*3 24.1 C 0 km/h
678 22-09-2010 15:30:01 24.9 C 9.61 g/m*3 24.9 C 0 km/h
679 22-09-2010 15:42:01 25.6 C 8.81 g/m*3 25.6 C 0 km/h
680 22-09-2010 15:54:01 26.5 C 8.26 g/m*3 26.5 C 0 km/h
681 22-09-2010 16:06:01 26.9 C 8.7 g/m*3 26.9 C 0 km/h
682 22-09-2010 16:18:01 27.1 C 8.8 g/m*3 27.1 C 0 km/h
683 22-09-2010 16:30:01 27.4 C 8.68 g/m*3 27.4 C 0 km/h
684 22-09-2010 16:42:02 27.6 C 8.51 g/m*3 27.6 C 0 km/h
685 22-09-2010 16:54:01 27.6 C 8.25 g/m*3 27.6 C 0 km/h
686 22-09-2010 17:06:02 27.3 C 7.85 g/m*3 27.3 C 0 km/h
687 22-09-2010 17:18:01 27.4 C 8.16 g/m*3 27.4 C 0 km/h
688 22-09-2010 17:30:01 27.2 C 8.07 g/m*3 27.2 C 0 km/h
689 22-09-2010 17:42:01 26.9 C 7.93 g/m*3 26.9 C 0 km/h
690 22-09-2010 17:54:01 26.5 C 8.76 g/m*3 26.5 C 0 km/h
691 22-09-2010 18:06:02 26.1 C 8.81 g/m*3 26.1 C 0 km/h
692 22-09-2010 18:18:01 25.6 C 9.05 g/m*3 25.6 C 0 km/h
693 22-09-2010 18:30:01 25.3 C 9.36 g/m*3 25.3 C 0 km/h
694 22-09-2010 18:42:01 24.1 C 8.97 g/m*3 24.1 C 0 km/h
695 22-09-2010 18:54:01 23.3 C 9.2 g/m*3 23.3 C 0 km/h
696 22-09-2010 19:06:01 22.5 C 9.19 g/m*3 22.5 C 0 km/h
697 22-09-2010 19:18:02 21.8 C 9.4 g/m*3 21.8 C 0 km/h
698 22-09-2010 19:30:02 20.6 C 9.31 g/m*3 20.6 C 0 km/h
699 22-09-2010 19:42:01 20 C 8.99 g/m*3 20 C 0 km/h
700 22-09-2010 19:54:01 19.5 C 9.06 g/m*3 19.5 C 0 km/h
Sensor: Nr:Datum:Temp:Abs-Feuchte:Windchill:Wind:
Aussen-T/F 701 22-09-2010 20:06:01 19 C 9.13 g/m*3 19 C 0 km/h
702 22-09-2010 20:18:02 18.7 C 9.13 g/m*3 18.7 C 0 km/h
703 22-09-2010 20:30:02 18.5 C 9.02 g/m*3 18.5 C 0 km/h
704 22-09-2010 20:42:01 18.4 C 9.12 g/m*3 18.4 C 0 km/h
705 22-09-2010 20:54:02 18.1 C 9.12 g/m*3 18.1 C 0 km/h
706 22-09-2010 21:06:01 17.9 C 9.31 g/m*3 17.9 C 0 km/h
707 22-09-2010 21:18:01 17.6 C 9.45 g/m*3 17.6 C 0 km/h
708 22-09-2010 21:30:01 17.5 C 9.24 g/m*3 17.5 C 0 km/h
709 22-09-2010 21:42:01 17.3 C 9.28 g/m*3 17.3 C 0 km/h
710 22-09-2010 21:54:01 17 C 9.26 g/m*3 17 C 0 km/h
711 22-09-2010 22:08:02 16.8 C 9.29 g/m*3 16.8 C 0 km/h
712 22-09-2010 22:20:02 16.4 C 9.35 g/m*3 16.4 C 0 km/h
713 22-09-2010 22:32:02 16.1 C 9.32 g/m*3 16.1 C 0 km/h
714 22-09-2010 22:44:02 15.9 C 9.21 g/m*3 15.9 C 0 km/h
715 22-09-2010 22:56:02 15.7 C 9.1 g/m*3 15.7 C 0 km/h
716 22-09-2010 23:08:02 15.4 C 8.8 g/m*3 15.4 C 0 km/h
717 22-09-2010 23:20:02 15.1 C 8.77 g/m*3 15.1 C 0 km/h
718 22-09-2010 23:32:02 14.9 C 8.79 g/m*3 14.9 C 0 km/h
719 22-09-2010 23:44:02 14.7 C 8.81 g/m*3 14.7 C 0 km/h
720 22-09-2010 23:56:02 14.5 C 8.71 g/m*3 14.5 C 0 km/h
721 23-09-2010 00:08:02 14.4 C 8.53 g/m*3 14.4 C 0 km/h
722 23-09-2010 00:20:02 14.2 C 8.67 g/m*3 14.2 C 0 km/h
723 23-09-2010 00:32:02 14 C 8.56 g/m*3 14 C 0 km/h
724 23-09-2010 00:44:02 13.8 C 8.7 g/m*3 13.8 C 0 km/h
725 23-09-2010 00:56:02 13.7 C 8.76 g/m*3 13.7 C 0 km/h
Sensor: Nr:Datum:Temp:Abs-Feuchte:Windchill:Wind:
Aussen-T/F 726 23-09-2010 01:08:02 13.5 C 8.77 g/m*3 13.5 C 0 km/h
727 23-09-2010 01:20:02 13.4 C 8.72 g/m*3 13.4 C 0 km/h
728 23-09-2010 01:32:02 13.2 C 8.73 g/m*3 13.2 C 0 km/h
729 23-09-2010 01:44:02 13.1 C 8.67 g/m*3 13.1 C 0 km/h
730 23-09-2010 01:56:03 12.9 C 8.68 g/m*3 12.9 C 0 km/h
731 23-09-2010 02:08:03 12.8 C 8.74 g/m*3 12.8 C 0 km/h
732 23-09-2010 02:20:03 12.6 C 8.74 g/m*3 12.6 C 0 km/h
733 23-09-2010 02:32:03 12.4 C 8.74 g/m*3 12.4 C 0 km/h
734 23-09-2010 02:44:03 12.3 C 8.69 g/m*3 12.3 C 0 km/h
735 23-09-2010 02:56:03 12.1 C 8.58 g/m*3 12.1 C 0 km/h
736 23-09-2010 03:08:03 12 C 8.53 g/m*3 12 C 0 km/h
737 23-09-2010 03:20:03 11.8 C 8.53 g/m*3 11.8 C 0 km/h
738 23-09-2010 03:32:03 11.8 C 8.53 g/m*3 11.8 C 0 km/h
739 23-09-2010 03:44:03 11.8 C 8.63 g/m*3 11.8 C 0 km/h
740 23-09-2010 03:56:03 11.6 C 8.63 g/m*3 11.6 C 0 km/h
741 23-09-2010 04:08:03 11.4 C 8.52 g/m*3 11.4 C 0 km/h
742 23-09-2010 04:20:03 11.2 C 8.41 g/m*3 11.2 C 0 km/h
743 23-09-2010 04:32:03 11.2 C 8.41 g/m*3 11.2 C 0 km/h
744 23-09-2010 04:44:03 11 C 8.31 g/m*3 11 C 0 km/h
745 23-09-2010 04:56:03 11 C 8.31 g/m*3 11 C 0 km/h
746 23-09-2010 05:08:03 10.9 C 8.36 g/m*3 10.9 C 0 km/h
747 23-09-2010 05:20:03 10.7 C 8.25 g/m*3 10.7 C 0 km/h
748 23-09-2010 05:32:03 10.6 C 8.2 g/m*3 10.6 C 0 km/h
749 23-09-2010 05:44:03 10.5 C 8.15 g/m*3 10.5 C 0 km/h
750 23-09-2010 05:56:03 10.5 C 8.15 g/m*3 10.5 C 0 km/h
Sensor: Nr:Datum:Temp:Abs-Feuchte:Windchill:Wind:
Aussen-T/F 751 23-09-2010 06:08:03 10.4 C 8.1 g/m*3 10.4 C 0 km/h
752 23-09-2010 06:20:04 10.5 C 8.24 g/m*3 10.5 C 0 km/h
753 23-09-2010 06:32:04 10.6 C 8.3 g/m*3 10.6 C 0 km/h
754 23-09-2010 06:44:04 10.4 C 8.19 g/m*3 10.4 C 0 km/h
755 23-09-2010 06:56:04 10.4 C 8.19 g/m*3 10.4 C 0 km/h
756 23-09-2010 07:08:02 10.5 C 8.24 g/m*3 10.5 C 0 km/h
757 23-09-2010 07:20:01 10.4 C 8.19 g/m*3 10.4 C 0 km/h
758 23-09-2010 07:32:02 10.5 C 8.24 g/m*3 10.5 C 0 km/h
759 23-09-2010 07:44:02 10.6 C 8.3 g/m*3 10.6 C 0 km/h
760 23-09-2010 07:56:02 10.6 C 8.3 g/m*3 10.6 C 0 km/h
761 23-09-2010 08:08:02 10.6 C 8.3 g/m*3 10.6 C 0 km/h
762 23-09-2010 08:20:01 10.7 C 8.35 g/m*3 10.7 C 0 km/h
763 23-09-2010 08:32:02 10.8 C 8.4 g/m*3 10.8 C 0 km/h
764 23-09-2010 08:44:02 11 C 8.51 g/m*3 11 C 0 km/h
765 23-09-2010 08:56:02 11.3 C 8.57 g/m*3 11.3 C 0 km/h
766 23-09-2010 09:08:01 11.4 C 8.52 g/m*3 11.4 C 0 km/h
767 23-09-2010 09:20:01 11.4 C 8.52 g/m*3 11.4 C 0 km/h
768 23-09-2010 09:32:02 11.4 C 8.52 g/m*3 11.4 C 0 km/h
769 23-09-2010 09:44:02 11.7 C 8.79 g/m*3 11.7 C 0 km/h
770 23-09-2010 09:56:02 12.3 C 8.9 g/m*3 12.3 C 0 km/h
771 23-09-2010 10:08:02 12.4 C 8.96 g/m*3 12.4 C 0 km/h
772 23-09-2010 10:20:02 12.5 C 9.02 g/m*3 12.5 C 0 km/h
773 23-09-2010 10:32:02 12.9 C 9.24 g/m*3 12.9 C 0 km/h
774 23-09-2010 10:44:02 13.3 C 9.36 g/m*3 13.3 C 0 km/h
775 23-09-2010 10:56:02 13.8 C 9.65 g/m*3 13.8 C 0 km/h
Sensor: Nr:Datum:Temp:Abs-Feuchte:Windchill:Wind:
Aussen-T/F 776 23-09-2010 11:08:02 14.1 C 9.71 g/m*3 14.1 C 0 km/h
777 23-09-2010 11:20:02 15 C 10 g/m*3 15 C 0 km/h
778 23-09-2010 11:32:02 15.8 C 10.23 g/m*3 15.8 C 0 km/h
779 23-09-2010 11:44:02 16.3 C 10.13 g/m*3 16.3 C 0 km/h
780 23-09-2010 11:56:02 17 C 10.27 g/m*3 17 C 0 km/h
781 23-09-2010 12:08:02 17.5 C 10.44 g/m*3 17.5 C 0 km/h
782 23-09-2010 12:20:02 18 C 10.44 g/m*3 18 C 0 km/h
783 23-09-2010 12:32:02 18.7 C 10.73 g/m*3 18.7 C 0 km/h
784 23-09-2010 12:44:02 19.2 C 10.55 g/m*3 19.2 C 0 km/h
785 23-09-2010 12:56:02 19.9 C 10.82 g/m*3 19.9 C 0 km/h
786 23-09-2010 13:08:02 20.5 C 11.03 g/m*3 20.5 C 0 km/h
787 23-09-2010 13:20:02 21.4 C 11.06 g/m*3 21.4 C 0 km/h
788 23-09-2010 13:32:01 22.3 C 11.26 g/m*3 22.3 C 0 km/h
789 23-09-2010 13:44:01 23.3 C 10.66 g/m*3 23.3 C 0 km/h
790 23-09-2010 13:56:02 24 C 9.14 g/m*3 24 C 0 km/h
791 23-09-2010 14:08:01 24.5 C 9.62 g/m*3 24.5 C 0 km/h
792 23-09-2010 14:20:02 23.8 C 10.11 g/m*3 23.8 C 0 km/h
793 23-09-2010 14:32:02 23.7 C 10.48 g/m*3 23.7 C 0 km/h
794 23-09-2010 14:44:02 23.8 C 10.54 g/m*3 23.8 C 0 km/h
795 23-09-2010 14:56:02 24.5 C 10.3 g/m*3 24.5 C 0 km/h
796 23-09-2010 15:08:02 25.2 C 8.85 g/m*3 25.2 C 0 km/h
797 23-09-2010 15:20:02 25.2 C 9.78 g/m*3 25.2 C 0 km/h
798 23-09-2010 15:32:02 24.8 C 9.33 g/m*3 24.8 C 0 km/h
799 23-09-2010 15:44:03 25.1 C 9.26 g/m*3 25.1 C 0 km/h
800 23-09-2010 15:56:01 24.9 C 9.61 g/m*3 24.9 C 0 km/h
Sensor: Nr:Datum:Temp:Abs-Feuchte:Windchill:Wind:
Aussen-T/F 801 23-09-2010 16:08:02 25.1 C 10.19 g/m*3 25.1 C 0 km/h
802 23-09-2010 16:20:01 26 C 9.74 g/m*3 26 C 0 km/h
803 23-09-2010 16:32:01 25.6 C 9.05 g/m*3 25.6 C 0 km/h
804 23-09-2010 16:44:01 24.9 C 10.07 g/m*3 24.9 C 0 km/h
805 23-09-2010 16:56:01 24.1 C 10.28 g/m*3 24.1 C 0 km/h
806 23-09-2010 17:08:01 23.7 C 10.91 g/m*3 23.7 C 0 km/h
807 23-09-2010 17:20:02 23.4 C 10.72 g/m*3 23.4 C 0 km/h
808 23-09-2010 17:32:01 23.2 C 10.81 g/m*3 23.2 C 0 km/h
809 23-09-2010 17:44:01 23.3 C 10.45 g/m*3 23.3 C 0 km/h
810 23-09-2010 17:56:02 23.8 C 10.76 g/m*3 23.8 C 0 km/h
811 23-09-2010 18:08:01 23.3 C 10.45 g/m*3 23.3 C 0 km/h
812 23-09-2010 18:20:02 22.6 C 10.25 g/m*3 22.6 C 0 km/h
813 23-09-2010 18:32:01 21.7 C 10.68 g/m*3 21.7 C 0 km/h
814 23-09-2010 18:44:01 21.6 C 10.81 g/m*3 21.6 C 0 km/h
815 23-09-2010 18:56:02 21.4 C 10.87 g/m*3 21.4 C 0 km/h
816 23-09-2010 19:08:02 20.9 C 10.93 g/m*3 20.9 C 0 km/h
817 23-09-2010 19:20:02 20.4 C 10.97 g/m*3 20.4 C 0 km/h
818 23-09-2010 19:32:02 19.8 C 11.1 g/m*3 19.8 C 0 km/h
819 23-09-2010 19:44:02 19.4 C 11.18 g/m*3 19.4 C 0 km/h
820 23-09-2010 19:56:02 19 C 11.08 g/m*3 19 C 0 km/h
821 23-09-2010 20:08:01 18.8 C 11.43 g/m*3 18.8 C 0 km/h
822 23-09-2010 20:20:02 18.6 C 11.3 g/m*3 18.6 C 0 km/h
823 23-09-2010 20:32:02 18.6 C 11.3 g/m*3 18.6 C 0 km/h
824 23-09-2010 20:44:02 18.4 C 11.32 g/m*3 18.4 C 0 km/h
825 23-09-2010 20:56:02 18.1 C 11.12 g/m*3 18.1 C 0 km/h
Sensor: Nr:Datum:Temp:Abs-Feuchte:Windchill:Wind:
Aussen-T/F 826 23-09-2010 21:08:02 18.4 C 11.48 g/m*3 18.4 C 0 km/h
827 23-09-2010 21:20:01 18.3 C 11.41 g/m*3 18.3 C 0 km/h
828 23-09-2010 21:32:02 18.4 C 11.64 g/m*3 18.4 C 0 km/h
829 23-09-2010 21:44:02 18.7 C 11.53 g/m*3 18.7 C 0 km/h
830 23-09-2010 21:57:02 18.7 C 11.37 g/m*3 18.7 C 0 km/h
831 23-09-2010 22:09:02 18.5 C 11.23 g/m*3 18.5 C 0 km/h
832 23-09-2010 22:21:02 18.5 C 11.39 g/m*3 18.5 C 0 km/h
833 23-09-2010 22:33:02 17.9 C 11.6 g/m*3 17.9 C 0 km/h
834 23-09-2010 22:45:02 17.7 C 12.52 g/m*3 17.7 C 0 km/h
835 23-09-2010 22:57:02 17.1 C 12.23 g/m*3 17.1 C 0 km/h
836 23-09-2010 23:09:02 16.9 C 12.37 g/m*3 16.9 C 0 km/h
837 23-09-2010 23:21:02 16.5 C 12.22 g/m*3 16.5 C 0 km/h
838 23-09-2010 23:33:02 16.4 C 12.28 g/m*3 16.4 C 0 km/h
839 23-09-2010 23:45:02 16.2 C 12.14 g/m*3 16.2 C 0 km/h
840 23-09-2010 23:57:02 16.2 C 12.27 g/m*3 16.2 C 0 km/h
841 24-09-2010 00:09:02 16 C 12.13 g/m*3 16 C 0 km/h
842 24-09-2010 00:21:02 15.9 C 12.32 g/m*3 15.9 C 0 km/h
843 24-09-2010 00:33:02 15.6 C 12.1 g/m*3 15.6 C 0 km/h
844 24-09-2010 00:45:02 15.5 C 12.16 g/m*3 15.5 C 0 km/h
845 24-09-2010 00:57:02 15.5 C 12.16 g/m*3 15.5 C 0 km/h
846 24-09-2010 01:09:02 15.5 C 12.16 g/m*3 15.5 C 0 km/h
847 24-09-2010 01:21:02 15.5 C 12.29 g/m*3 15.5 C 0 km/h
848 24-09-2010 01:33:02 15.6 C 12.37 g/m*3 15.6 C 0 km/h
849 24-09-2010 01:45:02 15.6 C 12.37 g/m*3 15.6 C 0 km/h
850 24-09-2010 01:57:03 15.5 C 12.29 g/m*3 15.5 C 0 km/h
Sensor: Nr:Datum:Temp:Abs-Feuchte:Windchill:Wind:
Aussen-T/F 851 24-09-2010 02:09:03 15.5 C 12.29 g/m*3 15.5 C 0 km/h
852 24-09-2010 02:21:03 15.5 C 12.29 g/m*3 15.5 C 0 km/h
853 24-09-2010 02:33:03 15.4 C 12.22 g/m*3 15.4 C 0 km/h
854 24-09-2010 02:45:03 15.3 C 12.01 g/m*3 15.3 C 0 km/h
855 24-09-2010 02:57:03 15.2 C 11.94 g/m*3 15.2 C 0 km/h
856 24-09-2010 03:09:03 15.1 C 11.87 g/m*3 15.1 C 0 km/h
857 24-09-2010 03:21:03 14.9 C 11.85 g/m*3 14.9 C 0 km/h
858 24-09-2010 03:33:03 14.9 C 11.85 g/m*3 14.9 C 0 km/h
859 24-09-2010 03:45:03 14.9 C 11.98 g/m*3 14.9 C 0 km/h
860 24-09-2010 03:57:03 14.9 C 11.98 g/m*3 14.9 C 0 km/h
861 24-09-2010 04:09:03 14.8 C 11.91 g/m*3 14.8 C 0 km/h
862 24-09-2010 04:21:03 14.8 C 11.91 g/m*3 14.8 C 0 km/h
863 24-09-2010 04:33:03 14.8 C 11.91 g/m*3 14.8 C 0 km/h
864 24-09-2010 04:45:03 14.8 C 11.91 g/m*3 14.8 C 0 km/h
865 24-09-2010 04:57:03 14.7 C 11.83 g/m*3 14.7 C 0 km/h
866 24-09-2010 05:09:03 14.5 C 11.69 g/m*3 14.5 C 0 km/h
867 24-09-2010 05:21:03 14.5 C 11.69 g/m*3 14.5 C 0 km/h
868 24-09-2010 05:33:03 14.5 C 11.69 g/m*3 14.5 C 0 km/h
869 24-09-2010 05:45:03 14.6 C 11.76 g/m*3 14.6 C 0 km/h
870 24-09-2010 05:57:03 14.6 C 11.76 g/m*3 14.6 C 0 km/h
871 24-09-2010 06:09:03 14.7 C 11.83 g/m*3 14.7 C 0 km/h
872 24-09-2010 06:21:04 14.7 C 11.83 g/m*3 14.7 C 0 km/h
873 24-09-2010 06:33:04 14.7 C 11.83 g/m*3 14.7 C 0 km/h
874 24-09-2010 06:45:04 14.7 C 11.83 g/m*3 14.7 C 0 km/h
875 24-09-2010 06:57:04 14.7 C 11.83 g/m*3 14.7 C 0 km/h
Sensor: Nr:Datum:Temp:Abs-Feuchte:Windchill:Wind:
Aussen-T/F 876 24-09-2010 07:09:04 14.5 C 11.69 g/m*3 14.5 C 0 km/h
877 24-09-2010 07:21:04 14.4 C 11.62 g/m*3 14.4 C 0 km/h
878 24-09-2010 07:33:02 14.3 C 11.55 g/m*3 14.3 C 0 km/h
879 24-09-2010 07:45:02 14.4 C 11.62 g/m*3 14.4 C 0 km/h
880 24-09-2010 07:57:02 14.4 C 11.62 g/m*3 14.4 C 0 km/h
881 24-09-2010 08:09:02 14.4 C 11.62 g/m*3 14.4 C 0 km/h
882 24-09-2010 08:21:01 14.3 C 11.55 g/m*3 14.3 C 0 km/h
883 24-09-2010 08:33:02 14.6 C 11.89 g/m*3 14.6 C 0 km/h
884 24-09-2010 08:45:02 14.8 C 12.03 g/m*3 14.8 C 0 km/h
885 24-09-2010 08:57:02 14.8 C 12.03 g/m*3 14.8 C 0 km/h
886 24-09-2010 09:09:01 14.8 C 12.03 g/m*3 14.8 C 0 km/h
887 24-09-2010 09:21:02 14.8 C 12.03 g/m*3 14.8 C 0 km/h
888 24-09-2010 09:33:01 14.9 C 12.11 g/m*3 14.9 C 0 km/h
889 24-09-2010 09:45:02 14.9 C 12.11 g/m*3 14.9 C 0 km/h
890 24-09-2010 09:57:02 15 C 12.05 g/m*3 15 C 0 km/h
891 24-09-2010 10:09:02 15 C 12.05 g/m*3 15 C 0 km/h
892 24-09-2010 10:21:02 14.9 C 12.11 g/m*3 14.9 C 0 km/h
893 24-09-2010 10:33:02 15 C 12.05 g/m*3 15 C 0 km/h
894 24-09-2010 10:45:01 15 C 12.05 g/m*3 15 C 0 km/h
895 24-09-2010 10:57:01 15 C 12.05 g/m*3 15 C 0 km/h
896 24-09-2010 11:09:02 15.1 C 12.13 g/m*3 15.1 C 0 km/h
897 24-09-2010 11:21:01 15.1 C 12.13 g/m*3 15.1 C 0 km/h
898 24-09-2010 11:33:01 15.4 C 12.35 g/m*3 15.4 C 0 km/h
899 24-09-2010 11:45:02 15.4 C 12.35 g/m*3 15.4 C 0 km/h
900 24-09-2010 11:57:02 15.1 C 12.13 g/m*3 15.1 C 0 km/h
Sensor: Nr:Datum:Temp:Abs-Feuchte:Windchill:Wind:
Aussen-T/F 901 24-09-2010 12:09:02 15.1 C 12.13 g/m*3 15.1 C 0 km/h
902 24-09-2010 12:21:02 15.1 C 12.13 g/m*3 15.1 C 0 km/h
903 24-09-2010 12:33:03 15.4 C 12.48 g/m*3 15.4 C 0 km/h
904 24-09-2010 12:45:02 15.1 C 12.13 g/m*3 15.1 C 0 km/h
905 24-09-2010 12:57:03 15 C 12.05 g/m*3 15 C 0 km/h
906 24-09-2010 13:09:02 14.8 C 11.91 g/m*3 14.8 C 0 km/h
907 24-09-2010 13:21:02 14.6 C 11.76 g/m*3 14.6 C 0 km/h
908 24-09-2010 13:33:02 14.5 C 11.69 g/m*3 14.5 C 0 km/h
909 24-09-2010 13:45:02 14.5 C 11.69 g/m*3 14.5 C 0 km/h
910 24-09-2010 13:57:02 14.4 C 11.62 g/m*3 14.4 C 0 km/h
911 24-09-2010 14:09:03 14.1 C 11.41 g/m*3 14.1 C 0 km/h
912 24-09-2010 14:21:02 13.8 C 11.2 g/m*3 13.8 C 0 km/h
913 24-09-2010 14:33:03 13.5 C 10.99 g/m*3 13.5 C 0 km/h
914 24-09-2010 14:45:02 13.2 C 10.79 g/m*3 13.2 C 0 km/h
915 24-09-2010 14:57:02 13.1 C 10.73 g/m*3 13.1 C 0 km/h
916 24-09-2010 15:09:02 12.9 C 10.71 g/m*3 12.9 C 0 km/h
917 24-09-2010 15:21:03 13.1 C 10.73 g/m*3 13.1 C 0 km/h
918 24-09-2010 15:33:02 13 C 10.77 g/m*3 13 C 0 km/h
919 24-09-2010 15:45:03 13.2 C 10.91 g/m*3 13.2 C 0 km/h
920 24-09-2010 15:57:03 13.2 C 10.91 g/m*3 13.2 C 0 km/h
921 24-09-2010 16:09:02 13.3 C 10.98 g/m*3 13.3 C 0 km/h
922 24-09-2010 16:21:02 13.7 C 11.25 g/m*3 13.7 C 0 km/h
923 24-09-2010 16:33:02 14 C 11.46 g/m*3 14 C 0 km/h
924 24-09-2010 16:45:02 14.1 C 11.53 g/m*3 14.1 C 0 km/h
925 24-09-2010 16:57:02 13.9 C 11.39 g/m*3 13.9 C 0 km/h
Sensor: Nr:Datum:Temp:Abs-Feuchte:Windchill:Wind:
Aussen-T/F 926 24-09-2010 17:09:02 13.9 C 11.39 g/m*3 13.9 C 0 km/h
927 24-09-2010 17:21:02 13.9 C 11.39 g/m*3 13.9 C 0 km/h
928 24-09-2010 17:33:02 13.4 C 10.93 g/m*3 13.4 C 0 km/h
929 24-09-2010 17:45:02 13.2 C 10.79 g/m*3 13.2 C 0 km/h
930 24-09-2010 17:57:02 13 C 10.66 g/m*3 13 C 0 km/h
931 24-09-2010 18:09:01 13.2 C 10.79 g/m*3 13.2 C 0 km/h
932 24-09-2010 18:21:01 13.3 C 10.86 g/m*3 13.3 C 0 km/h
933 24-09-2010 18:33:02 13.3 C 10.86 g/m*3 13.3 C 0 km/h
934 24-09-2010 18:45:02 13.3 C 10.86 g/m*3 13.3 C 0 km/h
935 24-09-2010 18:57:02 13.2 C 10.79 g/m*3 13.2 C 0 km/h
936 24-09-2010 19:09:02 13.1 C 10.73 g/m*3 13.1 C 0 km/h
937 24-09-2010 19:21:01 12.9 C 10.71 g/m*3 12.9 C 0 km/h
938 24-09-2010 19:33:02 12.8 C 10.64 g/m*3 12.8 C 0 km/h
939 24-09-2010 19:45:02 12.7 C 10.58 g/m*3 12.7 C 0 km/h
940 24-09-2010 19:57:02 12.7 C 10.58 g/m*3 12.7 C 0 km/h
941 24-09-2010 20:09:02 12.7 C 10.58 g/m*3 12.7 C 0 km/h
942 24-09-2010 20:21:01 12.7 C 10.58 g/m*3 12.7 C 0 km/h
943 24-09-2010 20:33:02 12.7 C 10.58 g/m*3 12.7 C 0 km/h
944 24-09-2010 20:45:01 12.7 C 10.58 g/m*3 12.7 C 0 km/h
945 24-09-2010 20:57:01 12.7 C 10.58 g/m*3 12.7 C 0 km/h
946 24-09-2010 21:09:02 12.8 C 10.64 g/m*3 12.8 C 0 km/h
947 24-09-2010 21:21:02 12.8 C 10.64 g/m*3 12.8 C 0 km/h
948 24-09-2010 21:33:02 12.9 C 10.71 g/m*3 12.9 C 0 km/h
949 24-09-2010 21:45:02 12.8 C 10.64 g/m*3 12.8 C 0 km/h
950 24-09-2010 21:57:02 12.8 C 10.64 g/m*3 12.8 C 0 km/h
Sensor: Nr:Datum:Temp:Abs-Feuchte:Windchill:Wind:
Aussen-T/F 951 24-09-2010 22:09:01 12.8 C 10.64 g/m*3 12.8 C 0 km/h
952 24-09-2010 22:21:02 12.8 C 10.64 g/m*3 12.8 C 0 km/h
953 24-09-2010 22:33:02 12.7 C 10.58 g/m*3 12.7 C 0 km/h
954 24-09-2010 22:46:04 12.6 C 10.51 g/m*3 12.6 C 0 km/h
955 24-09-2010 22:58:04 12.6 C 10.51 g/m*3 12.6 C 0 km/h
956 24-09-2010 23:10:04 12.5 C 10.44 g/m*3 12.5 C 0 km/h
957 24-09-2010 23:22:04 12.4 C 10.38 g/m*3 12.4 C 0 km/h
958 24-09-2010 23:34:04 12.4 C 10.38 g/m*3 12.4 C 0 km/h
959 24-09-2010 23:46:04 12.3 C 10.32 g/m*3 12.3 C 0 km/h
960 24-09-2010 23:58:04 12.4 C 10.38 g/m*3 12.4 C 0 km/h
961 25-09-2010 00:10:04 12.4 C 10.38 g/m*3 12.4 C 0 km/h
962 25-09-2010 00:22:04 12.5 C 10.44 g/m*3 12.5 C 0 km/h
963 25-09-2010 00:34:04 12.5 C 10.44 g/m*3 12.5 C 0 km/h
964 25-09-2010 00:46:04 12.5 C 10.44 g/m*3 12.5 C 0 km/h
965 25-09-2010 00:58:05 12.5 C 10.44 g/m*3 12.5 C 0 km/h
966 25-09-2010 01:10:05 12.5 C 10.44 g/m*3 12.5 C 0 km/h
967 25-09-2010 01:22:05 12.5 C 10.44 g/m*3 12.5 C 0 km/h
968 25-09-2010 01:34:05 12.5 C 10.44 g/m*3 12.5 C 0 km/h
969 25-09-2010 01:46:05 12.5 C 10.44 g/m*3 12.5 C 0 km/h
970 25-09-2010 01:58:05 12.6 C 10.51 g/m*3 12.6 C 0 km/h
971 25-09-2010 02:10:05 12.6 C 10.51 g/m*3 12.6 C 0 km/h
972 25-09-2010 02:22:05 12.6 C 10.51 g/m*3 12.6 C 0 km/h
973 25-09-2010 02:34:05 12.6 C 10.51 g/m*3 12.6 C 0 km/h
974 25-09-2010 02:46:05 12.6 C 10.51 g/m*3 12.6 C 0 km/h
975 25-09-2010 02:58:05 12.6 C 10.51 g/m*3 12.6 C 0 km/h
Sensor: Nr:Datum:Temp:Abs-Feuchte:Windchill:Wind:
Aussen-T/F 976 25-09-2010 03:10:05 12.7 C 10.58 g/m*3 12.7 C 0 km/h
977 25-09-2010 03:22:05 12.6 C 10.51 g/m*3 12.6 C 0 km/h
978 25-09-2010 03:34:05 12.6 C 10.51 g/m*3 12.6 C 0 km/h
979 25-09-2010 03:46:05 12.6 C 10.51 g/m*3 12.6 C 0 km/h
980 25-09-2010 03:58:05 12.6 C 10.51 g/m*3 12.6 C 0 km/h
981 25-09-2010 04:10:05 12.6 C 10.51 g/m*3 12.6 C 0 km/h
982 25-09-2010 04:22:05 12.5 C 10.44 g/m*3 12.5 C 0 km/h
983 25-09-2010 04:34:05 12.6 C 10.51 g/m*3 12.6 C 0 km/h
984 25-09-2010 04:46:05 12.5 C 10.44 g/m*3 12.5 C 0 km/h
985 25-09-2010 04:58:06 12.5 C 10.44 g/m*3 12.5 C 0 km/h
986 25-09-2010 05:10:06 12.5 C 10.44 g/m*3 12.5 C 0 km/h
987 25-09-2010 05:22:06 12.4 C 10.38 g/m*3 12.4 C 0 km/h
988 25-09-2010 05:34:06 12.4 C 10.38 g/m*3 12.4 C 0 km/h
989 25-09-2010 05:46:06 12.3 C 10.32 g/m*3 12.3 C 0 km/h
990 25-09-2010 05:58:06 12.3 C 10.21 g/m*3 12.3 C 0 km/h
991 25-09-2010 06:10:06 12.1 C 10.08 g/m*3 12.1 C 0 km/h
992 25-09-2010 06:22:06 12.1 C 10.08 g/m*3 12.1 C 0 km/h
993 25-09-2010 06:34:06 12.1 C 10.08 g/m*3 12.1 C 0 km/h
994 25-09-2010 06:46:06 12 C 10.02 g/m*3 12 C 0 km/h
995 25-09-2010 06:58:06 12 C 10.02 g/m*3 12 C 0 km/h
996 25-09-2010 07:10:06 12 C 10.02 g/m*3 12 C 0 km/h
997 25-09-2010 07:22:06 11.9 C 9.96 g/m*3 11.9 C 0 km/h
998 25-09-2010 07:34:06 11.9 C 9.96 g/m*3 11.9 C 0 km/h
999 25-09-2010 07:46:02 11.8 C 9.89 g/m*3 11.8 C 0 km/h
1000 25-09-2010 07:58:02 11.8 C 9.89 g/m*3 11.8 C 0 km/h
Sensor: Nr:Datum:Temp:Abs-Feuchte:Windchill:Wind:
Aussen-T/F 1001 25-09-2010 08:10:02 11.7 C 9.83 g/m*3 11.7 C 0 km/h
1002 25-09-2010 08:22:02 11.6 C 9.77 g/m*3 11.6 C 0 km/h
1003 25-09-2010 08:34:02 11.2 C 9.43 g/m*3 11.2 C 0 km/h
1004 25-09-2010 08:46:02 11 C 9.31 g/m*3 11 C 0 km/h
1005 25-09-2010 08:58:02 10.8 C 9.19 g/m*3 10.8 C 0 km/h
1006 25-09-2010 09:10:01 10.6 C 9.08 g/m*3 10.6 C 0 km/h
1007 25-09-2010 09:22:02 10.4 C 8.96 g/m*3 10.4 C 0 km/h
1008 25-09-2010 09:34:02 10.5 C 8.92 g/m*3 10.5 C 0 km/h
1009 25-09-2010 09:46:02 10.5 C 8.83 g/m*3 10.5 C 0 km/h
1010 25-09-2010 09:58:02 10.4 C 8.29 g/m*3 10.4 C 0 km/h
1011 25-09-2010 10:10:03 10.5 C 8.15 g/m*3 10.5 C 0 km/h
1012 25-09-2010 10:22:02 10.8 C 8.2 g/m*3 10.8 C 0 km/h
1013 25-09-2010 10:34:02 11.1 C 8.36 g/m*3 11.1 C 0 km/h
1014 25-09-2010 10:46:01 11.3 C 8.36 g/m*3 11.3 C 0 km/h
1015 25-09-2010 10:58:01 11.5 C 8.16 g/m*3 11.5 C 0 km/h
1016 25-09-2010 11:10:02 11.6 C 7.8 g/m*3 11.6 C 0 km/h
1017 25-09-2010 11:22:01 12.1 C 7.72 g/m*3 12.1 C 0 km/h
1018 25-09-2010 11:34:02 12.3 C 7.38 g/m*3 12.3 C 0 km/h
1019 25-09-2010 11:46:01 12.5 C 7.26 g/m*3 12.5 C 0 km/h
1020 25-09-2010 11:58:01 13 C 7.03 g/m*3 13 C 0 km/h
1021 25-09-2010 12:10:02 12.8 C 6.83 g/m*3 12.8 C 0 km/h
1022 25-09-2010 12:22:01 12.8 C 7.06 g/m*3 12.8 C 0 km/h
1023 25-09-2010 12:34:02 12.4 C 6.88 g/m*3 12.4 C 0 km/h
1024 25-09-2010 12:46:02 11.8 C 6.84 g/m*3 11.8 C 0 km/h
1025 25-09-2010 12:58:02 12.4 C 6.88 g/m*3 12.4 C 0 km/h
Sensor: Nr:Datum:Temp:Abs-Feuchte:Windchill:Wind:
Aussen-T/F 1026 25-09-2010 13:10:02 12.7 C 6.68 g/m*3 12.7 C 0 km/h
1027 25-09-2010 13:22:01 13 C 6.35 g/m*3 13 C 0 km/h
1028 25-09-2010 13:34:02 13.8 C 6.43 g/m*3 13.8 C 0 km/h
1029 25-09-2010 13:46:01 13.5 C 5.38 g/m*3 13.5 C 0 km/h
1030 25-09-2010 13:58:01 13.3 C 5.31 g/m*3 13.3 C 0 km/h
1031 25-09-2010 14:10:02 13.7 C 5.45 g/m*3 13.7 C 0 km/h
1032 25-09-2010 14:22:01 13.5 C 5.5 g/m*3 13.5 C 0 km/h
1033 25-09-2010 14:34:02 13.8 C 5.36 g/m*3 13.8 C 0 km/h
1034 25-09-2010 14:46:01 14.4 C 5.32 g/m*3 14.4 C 0 km/h
1035 25-09-2010 14:58:01 15.8 C 5.12 g/m*3 15.8 C 0 km/h
1036 25-09-2010 15:10:02 14.8 C 4.43 g/m*3 14.8 C 0 km/h
1037 25-09-2010 15:22:02 14.5 C 4.6 g/m*3 14.5 C 0 km/h
1038 25-09-2010 15:34:01 15.7 C 4.68 g/m*3 15.7 C 0 km/h
1039 25-09-2010 15:46:02 15.5 C 4.63 g/m*3 15.5 C 0 km/h
1040 25-09-2010 15:58:02 14.7 C 5.04 g/m*3 14.7 C 0 km/h
1041 25-09-2010 16:10:01 14.2 C 4.88 g/m*3 14.2 C 0 km/h
1042 25-09-2010 16:22:02 14.4 C 5.07 g/m*3 14.4 C 0 km/h
1043 25-09-2010 16:34:01 14.7 C 5.16 g/m*3 14.7 C 0 km/h
1044 25-09-2010 16:46:02 15.6 C 4.79 g/m*3 15.6 C 0 km/h
1045 25-09-2010 16:58:02 14.7 C 4.91 g/m*3 14.7 C 0 km/h
1046 25-09-2010 17:10:02 14.3 C 4.91 g/m*3 14.3 C 0 km/h
1047 25-09-2010 17:22:02 14.8 C 5.32 g/m*3 14.8 C 0 km/h
1048 25-09-2010 17:34:03 15.6 C 5.19 g/m*3 15.6 C 0 km/h
1049 25-09-2010 17:46:02 16.8 C 5.15 g/m*3 16.8 C 0 km/h
1050 25-09-2010 17:58:02 16.5 C 4.77 g/m*3 16.5 C 0 km/h
Sensor: Nr:Datum:Temp:Abs-Feuchte:Windchill:Wind:
Aussen-T/F 1051 25-09-2010 18:10:01 15.4 C 4.47 g/m*3 15.4 C 0 km/h
1052 25-09-2010 18:22:01 14.3 C 4.67 g/m*3 14.3 C 0 km/h
1053 25-09-2010 18:34:02 13.9 C 4.92 g/m*3 13.9 C 0 km/h
1054 25-09-2010 18:46:02 13.8 C 5.36 g/m*3 13.8 C 0 km/h
1055 25-09-2010 18:58:02 13.7 C 5.8 g/m*3 13.7 C 0 km/h
1056 25-09-2010 19:10:02 13.5 C 5.5 g/m*3 13.5 C 0 km/h
1057 25-09-2010 19:22:02 13.1 C 5.59 g/m*3 13.1 C 0 km/h
1058 25-09-2010 19:34:02 13 C 5.67 g/m*3 13 C 0 km/h
1059 25-09-2010 19:46:02 12.7 C 5.9 g/m*3 12.7 C 0 km/h
1060 25-09-2010 19:58:02 12.6 C 6.08 g/m*3 12.6 C 0 km/h
1061 25-09-2010 20:10:02 12.5 C 5.72 g/m*3 12.5 C 0 km/h
1062 25-09-2010 20:22:02 12.2 C 5.61 g/m*3 12.2 C 0 km/h
1063 25-09-2010 20:34:02 11.8 C 5.79 g/m*3 11.8 C 0 km/h
1064 25-09-2010 20:46:02 11.1 C 6.04 g/m*3 11.1 C 0 km/h
1065 25-09-2010 20:58:02 10.9 C 6.17 g/m*3 10.9 C 0 km/h
1066 25-09-2010 21:10:02 10.4 C 6.17 g/m*3 10.4 C 0 km/h
1067 25-09-2010 21:22:03 10.2 C 6.28 g/m*3 10.2 C 0 km/h
1068 25-09-2010 21:34:02 10.1 C 6.34 g/m*3 10.1 C 0 km/h
1069 25-09-2010 21:46:03 10 C 6.3 g/m*3 10 C 0 km/h
1070 25-09-2010 21:58:03 9.9 C 6.44 g/m*3 9.9 C 0 km/h
1071 25-09-2010 22:10:02 9.9 C 6.54 g/m*3 9.9 C 0 km/h
1072 25-09-2010 22:22:02 10.2 C 6.57 g/m*3 10.2 C 0 km/h
1073 25-09-2010 22:34:02 10.5 C 6.69 g/m*3 10.5 C 0 km/h
1074 25-09-2010 22:46:02 10.5 C 6.69 g/m*3 10.5 C 0 km/h
1075 25-09-2010 22:58:02 10.3 C 6.9 g/m*3 10.3 C 0 km/h
Sensor: Nr:Datum:Temp:Abs-Feuchte:Windchill:Wind:
Aussen-T/F 1076 25-09-2010 23:10:02 9.6 C 7.15 g/m*3 9.6 C 0 km/h
1077 25-09-2010 23:22:02 9.3 C 7.28 g/m*3 9.3 C 0 km/h
1078 25-09-2010 23:34:01 9.2 C 7.5 g/m*3 9.2 C 0 km/h
1079 25-09-2010 23:46:02 9.1 C 7.45 g/m*3 9.1 C 0 km/h
1080 25-09-2010 23:58:02 9.2 C 7.59 g/m*3 9.2 C 0 km/h
1081 26-09-2010 00:10:01 9.1 C 7.63 g/m*3 9.1 C 0 km/h
1082 26-09-2010 00:22:02 9.5 C 7.92 g/m*3 9.5 C 0 km/h
1083 26-09-2010 00:34:02 9.5 C 7.92 g/m*3 9.5 C 0 km/h
1084 26-09-2010 00:46:02 9.6 C 7.79 g/m*3 9.6 C 0 km/h
1085 26-09-2010 00:58:02 9.5 C 7.55 g/m*3 9.5 C 0 km/h
1086 26-09-2010 01:10:02 9.5 C 7.37 g/m*3 9.5 C 0 km/h
1087 26-09-2010 01:22:02 9.5 C 7.28 g/m*3 9.5 C 0 km/h
1088 26-09-2010 01:34:02 9.4 C 7.15 g/m*3 9.4 C 0 km/h
1089 26-09-2010 01:46:01 9.5 C 7.19 g/m*3 9.5 C 0 km/h
1090 26-09-2010 01:58:01 9.5 C 7.19 g/m*3 9.5 C 0 km/h
1091 26-09-2010 02:10:02 9.5 C 7.19 g/m*3 9.5 C 0 km/h
1092 26-09-2010 02:22:01 9.5 C 7.1 g/m*3 9.5 C 0 km/h
1093 26-09-2010 02:34:01 9.3 C 7.01 g/m*3 9.3 C 0 km/h
1094 26-09-2010 02:46:01 9.4 C 6.96 g/m*3 9.4 C 0 km/h
1095 26-09-2010 02:58:01 9.4 C 6.96 g/m*3 9.4 C 0 km/h
1096 26-09-2010 03:10:01 9.3 C 6.92 g/m*3 9.3 C 0 km/h
1097 26-09-2010 03:22:01 9.3 C 7.01 g/m*3 9.3 C 0 km/h
1098 26-09-2010 03:34:01 9.3 C 7.1 g/m*3 9.3 C 0 km/h
1099 26-09-2010 03:46:01 9.1 C 7.1 g/m*3 9.1 C 0 km/h
1100 26-09-2010 03:58:01 9 C 7.23 g/m*3 9 C 0 km/h
Sensor: Nr:Datum:Temp:Abs-Feuchte:Windchill:Wind:
Aussen-T/F 1101 26-09-2010 04:10:01 9 C 7.32 g/m*3 9 C 0 km/h
1102 26-09-2010 04:22:01 9 C 7.23 g/m*3 9 C 0 km/h
1103 26-09-2010 04:34:02 8.9 C 7.27 g/m*3 8.9 C 0 km/h
1104 26-09-2010 04:46:01 8.7 C 7.26 g/m*3 8.7 C 0 km/h
1105 26-09-2010 04:58:01 8.8 C 7.31 g/m*3 8.8 C 0 km/h
1106 26-09-2010 05:10:02 9 C 7.32 g/m*3 9 C 0 km/h
1107 26-09-2010 05:22:01 9.1 C 7.36 g/m*3 9.1 C 0 km/h
1108 26-09-2010 05:34:01 9 C 7.32 g/m*3 9 C 0 km/h
1109 26-09-2010 05:46:01 9 C 7.32 g/m*3 9 C 0 km/h
1110 26-09-2010 05:58:01 9 C 7.32 g/m*3 9 C 0 km/h
1111 26-09-2010 06:10:02 9 C 7.32 g/m*3 9 C 0 km/h
1112 26-09-2010 06:22:01 9.1 C 7.36 g/m*3 9.1 C 0 km/h
1113 26-09-2010 06:34:01 8.8 C 7.31 g/m*3 8.8 C 0 km/h
1114 26-09-2010 06:46:01 8.8 C 7.4 g/m*3 8.8 C 0 km/h
1115 26-09-2010 06:58:01 8.8 C 7.49 g/m*3 8.8 C 0 km/h
1116 26-09-2010 07:10:01 8.8 C 7.49 g/m*3 8.8 C 0 km/h
1117 26-09-2010 07:22:02 8.5 C 7.26 g/m*3 8.5 C 0 km/h
1118 26-09-2010 07:34:01 8.6 C 7.39 g/m*3 8.6 C 0 km/h
1119 26-09-2010 07:46:02 8.9 C 7.62 g/m*3 8.9 C 0 km/h
1120 26-09-2010 07:58:02 9.2 C 7.5 g/m*3 9.2 C 0 km/h
1121 26-09-2010 08:10:01 9.5 C 7.55 g/m*3 9.5 C 0 km/h
1122 26-09-2010 08:22:02 9.6 C 7.33 g/m*3 9.6 C 0 km/h
1123 26-09-2010 08:34:01 9.7 C 7.19 g/m*3 9.7 C 0 km/h
1124 26-09-2010 08:46:02 9.7 C 7.19 g/m*3 9.7 C 0 km/h
1125 26-09-2010 08:58:02 9.6 C 7.24 g/m*3 9.6 C 0 km/h
Sensor: Nr:Datum:Temp:Abs-Feuchte:Windchill:Wind:
Aussen-T/F 1126 26-09-2010 09:10:01 9.4 C 7.24 g/m*3 9.4 C 0 km/h
1127 26-09-2010 09:22:01 9.4 C 7.33 g/m*3 9.4 C 0 km/h
1128 26-09-2010 09:34:02 10.5 C 7.57 g/m*3 10.5 C 0 km/h
1129 26-09-2010 09:46:01 11 C 7.11 g/m*3 11 C 0 km/h
1130 26-09-2010 09:58:01 11 C 6.61 g/m*3 11 C 0 km/h
1131 26-09-2010 10:10:02 11 C 6.61 g/m*3 11 C 0 km/h
1132 26-09-2010 10:22:01 11.6 C 6.76 g/m*3 11.6 C 0 km/h
1133 26-09-2010 10:34:02 12 C 6.61 g/m*3 12 C 0 km/h
1134 26-09-2010 10:46:01 11.9 C 6.78 g/m*3 11.9 C 0 km/h
1135 26-09-2010 10:58:01 12.7 C 7.01 g/m*3 12.7 C 0 km/h
1136 26-09-2010 11:10:02 12.9 C 6.42 g/m*3 12.9 C 0 km/h
1137 26-09-2010 11:22:01 13.1 C 6.5 g/m*3 13.1 C 0 km/h
1138 26-09-2010 11:34:02 13.2 C 6.66 g/m*3 13.2 C 0 km/h
1139 26-09-2010 11:46:02 13.5 C 6.32 g/m*3 13.5 C 0 km/h
1140 26-09-2010 11:58:02 13.4 C 6.28 g/m*3 13.4 C 0 km/h
1141 26-09-2010 12:10:01 14 C 6.39 g/m*3 14 C 0 km/h
1142 26-09-2010 12:22:02 14.3 C 6.51 g/m*3 14.3 C 0 km/h
1143 26-09-2010 12:34:01 14.6 C 6.51 g/m*3 14.6 C 0 km/h
1144 26-09-2010 12:46:01 15 C 6.28 g/m*3 15 C 0 km/h
1145 26-09-2010 12:58:01 14.5 C 6.22 g/m*3 14.5 C 0 km/h
1146 26-09-2010 13:10:02 14.5 C 6.34 g/m*3 14.5 C 0 km/h
1147 26-09-2010 13:22:01 13.2 C 7.12 g/m*3 13.2 C 0 km/h
1148 26-09-2010 13:34:01 12.6 C 7.63 g/m*3 12.6 C 0 km/h
1149 26-09-2010 13:46:01 12.4 C 8.3 g/m*3 12.4 C 0 km/h
1150 26-09-2010 13:58:01 12.3 C 8.25 g/m*3 12.3 C 0 km/h
Sensor: Nr:Datum:Temp:Abs-Feuchte:Windchill:Wind:
Aussen-T/F 1151 26-09-2010 14:10:01 13.2 C 8.61 g/m*3 13.2 C 0 km/h
1152 26-09-2010 14:22:01 13.4 C 8.37 g/m*3 13.4 C 0 km/h
1153 26-09-2010 14:34:01 13.3 C 8.43 g/m*3 13.3 C 0 km/h
1154 26-09-2010 14:46:01 13.2 C 8.15 g/m*3 13.2 C 0 km/h
1155 26-09-2010 14:58:01 13.4 C 7.9 g/m*3 13.4 C 0 km/h
1156 26-09-2010 15:10:01 13.6 C 7.89 g/m*3 13.6 C 0 km/h
1157 26-09-2010 15:22:02 13.9 C 8.39 g/m*3 13.9 C 0 km/h
1158 26-09-2010 15:34:01 14.4 C 8.16 g/m*3 14.4 C 0 km/h
1159 26-09-2010 15:46:02 14.5 C 7.96 g/m*3 14.5 C 0 km/h
1160 26-09-2010 15:58:02 14.5 C 8.21 g/m*3 14.5 C 0 km/h
1161 26-09-2010 16:10:01 13.7 C 7.7 g/m*3 13.7 C 0 km/h
1162 26-09-2010 16:22:02 13.8 C 7.51 g/m*3 13.8 C 0 km/h
1163 26-09-2010 16:34:01 15.7 C 7.09 g/m*3 15.7 C 0 km/h
1164 26-09-2010 16:46:01 15.5 C 6.21 g/m*3 15.5 C 0 km/h
1165 26-09-2010 16:58:01 15.9 C 6.5 g/m*3 15.9 C 0 km/h
1166 26-09-2010 17:10:01 16.1 C 6.44 g/m*3 16.1 C 0 km/h
1167 26-09-2010 17:22:01 15.6 C 6.38 g/m*3 15.6 C 0 km/h
1168 26-09-2010 17:34:02 15.4 C 6.7 g/m*3 15.4 C 0 km/h
1169 26-09-2010 17:46:01 14.6 C 6.76 g/m*3 14.6 C 0 km/h
1170 26-09-2010 17:58:01 14.2 C 6.72 g/m*3 14.2 C 0 km/h
1171 26-09-2010 18:10:02 13.6 C 6.83 g/m*3 13.6 C 0 km/h
1172 26-09-2010 18:22:01 13.1 C 6.85 g/m*3 13.1 C 0 km/h
1173 26-09-2010 18:34:01 12.9 C 6.99 g/m*3 12.9 C 0 km/h
1174 26-09-2010 18:46:01 12.7 C 7.01 g/m*3 12.7 C 0 km/h
1175 26-09-2010 18:58:01 12.5 C 7.04 g/m*3 12.5 C 0 km/h
Sensor: Nr:Datum:Temp:Abs-Feuchte:Windchill:Wind:
Aussen-T/F 1176 26-09-2010 19:10:02 12.4 C 7.1 g/m*3 12.4 C 0 km/h
1177 26-09-2010 19:22:01 12.4 C 7.1 g/m*3 12.4 C 0 km/h
1178 26-09-2010 19:34:01 12.2 C 7.01 g/m*3 12.2 C 0 km/h
1179 26-09-2010 19:46:01 12.1 C 7.18 g/m*3 12.1 C 0 km/h
1180 26-09-2010 19:58:01 12.1 C 7.08 g/m*3 12.1 C 0 km/h
1181 26-09-2010 20:10:02 12 C 7.25 g/m*3 12 C 0 km/h
1182 26-09-2010 20:22:01 11.9 C 7.31 g/m*3 11.9 C 0 km/h
1183 26-09-2010 20:34:01 11.7 C 7.22 g/m*3 11.7 C 0 km/h
1184 26-09-2010 20:46:01 11.7 C 7.22 g/m*3 11.7 C 0 km/h
1185 26-09-2010 20:58:01 11.6 C 7.07 g/m*3 11.6 C 0 km/h
1186 26-09-2010 21:10:01 11.6 C 7.07 g/m*3 11.6 C 0 km/h
1187 26-09-2010 21:22:01 11.4 C 7.08 g/m*3 11.4 C 0 km/h
1188 26-09-2010 21:34:01 11.2 C 7.1 g/m*3 11.2 C 0 km/h
1189 26-09-2010 21:46:01 10.9 C 7.16 g/m*3 10.9 C 0 km/h
1190 26-09-2010 21:58:01 10.7 C 7.17 g/m*3 10.7 C 0 km/h
1191 26-09-2010 22:10:01 10.3 C 6.99 g/m*3 10.3 C 0 km/h
1192 26-09-2010 22:22:01 10 C 7.05 g/m*3 10 C 0 km/h
1193 26-09-2010 22:34:01 9.7 C 7.1 g/m*3 9.7 C 0 km/h
1194 26-09-2010 22:47:04 9.3 C 7.1 g/m*3 9.3 C 0 km/h
1195 26-09-2010 22:59:04 9.2 C 7.05 g/m*3 9.2 C 0 km/h
1196 26-09-2010 23:11:04 9 C 7.05 g/m*3 9 C 0 km/h
1197 26-09-2010 23:23:04 8.9 C 7.18 g/m*3 8.9 C 0 km/h
1198 26-09-2010 23:35:04 8.9 C 7.27 g/m*3 8.9 C 0 km/h
1199 26-09-2010 23:47:04 8.8 C 7.22 g/m*3 8.8 C 0 km/h
1200 26-09-2010 23:59:04 8.6 C 7.13 g/m*3 8.6 C 0 km/h
Sensor: Nr:Datum:Temp:Abs-Feuchte:Windchill:Wind:
Aussen-T/F 1201 27-09-2010 00:11:04 8.5 C 7.17 g/m*3 8.5 C 0 km/h
1202 27-09-2010 00:23:04 8.2 C 7.03 g/m*3 8.2 C 0 km/h
1203 27-09-2010 00:35:04 8.1 C 6.99 g/m*3 8.1 C 0 km/h
1204 27-09-2010 00:47:04 7.9 C 6.98 g/m*3 7.9 C 0 km/h
1205 27-09-2010 00:59:04 7.9 C 7.15 g/m*3 7.9 C 0 km/h
1206 27-09-2010 01:11:04 7.8 C 7.18 g/m*3 7.8 C 0 km/h
1207 27-09-2010 01:23:04 7.6 C 7.09 g/m*3 7.6 C 0 km/h
1208 27-09-2010 01:35:04 7.5 C 7.04 g/m*3 7.5 C 0 km/h
1209 27-09-2010 01:47:04 7.3 C 6.95 g/m*3 7.3 C 0 km/h
1210 27-09-2010 01:59:04 7.1 C 6.94 g/m*3 7.1 C 0 km/h
1211 27-09-2010 02:11:04 7 C 6.9 g/m*3 7 C 0 km/h
1212 27-09-2010 02:23:04 7 C 6.9 g/m*3 7 C 0 km/h
1213 27-09-2010 02:35:05 6.8 C 6.81 g/m*3 6.8 C 0 km/h
1214 27-09-2010 02:47:05 6.7 C 6.84 g/m*3 6.7 C 0 km/h
1215 27-09-2010 02:59:05 6.7 C 6.84 g/m*3 6.7 C 0 km/h
1216 27-09-2010 03:11:05 6.5 C 6.75 g/m*3 6.5 C 0 km/h
1217 27-09-2010 03:23:05 6.7 C 6.84 g/m*3 6.7 C 0 km/h
1218 27-09-2010 03:35:05 6.4 C 6.71 g/m*3 6.4 C 0 km/h
1219 27-09-2010 03:47:05 6.3 C 6.66 g/m*3 6.3 C 0 km/h
1220 27-09-2010 03:59:05 6.4 C 6.78 g/m*3 6.4 C 0 km/h
1221 27-09-2010 04:11:05 6.5 C 6.9 g/m*3 6.5 C 0 km/h
1222 27-09-2010 04:23:05 6.4 C 6.85 g/m*3 6.4 C 0 km/h
1223 27-09-2010 04:35:05 6.3 C 6.81 g/m*3 6.3 C 0 km/h
1224 27-09-2010 04:47:05 6.1 C 6.72 g/m*3 6.1 C 0 km/h
1225 27-09-2010 04:59:05 5.9 C 6.71 g/m*3 5.9 C 0 km/h
Sensor: Nr:Datum:Temp:Abs-Feuchte:Windchill:Wind:
Aussen-T/F 1226 27-09-2010 05:11:05 5.9 C 6.71 g/m*3 5.9 C 0 km/h
1227 27-09-2010 05:23:05 6.1 C 6.72 g/m*3 6.1 C 0 km/h
1228 27-09-2010 05:35:05 6.3 C 6.81 g/m*3 6.3 C 0 km/h
1229 27-09-2010 05:47:05 6.4 C 6.93 g/m*3 6.4 C 0 km/h
1230 27-09-2010 05:59:05 6.5 C 6.97 g/m*3 6.5 C 0 km/h
1231 27-09-2010 06:11:05 6.5 C 6.97 g/m*3 6.5 C 0 km/h
1232 27-09-2010 06:23:05 6.4 C 6.93 g/m*3 6.4 C 0 km/h
1233 27-09-2010 06:35:05 6.2 C 6.84 g/m*3 6.2 C 0 km/h
1234 27-09-2010 06:47:06 6.2 C 6.84 g/m*3 6.2 C 0 km/h
1235 27-09-2010 06:59:06 6.3 C 6.88 g/m*3 6.3 C 0 km/h
1236 27-09-2010 07:11:04 6.3 C 6.88 g/m*3 6.3 C 0 km/h
1237 27-09-2010 07:23:04 6.6 C 7.02 g/m*3 6.6 C 0 km/h
1238 27-09-2010 07:35:04 6.7 C 7.14 g/m*3 6.7 C 0 km/h
1239 27-09-2010 07:47:02 6.9 C 7.24 g/m*3 6.9 C 0 km/h
1240 27-09-2010 07:59:02 7.2 C 7.38 g/m*3 7.2 C 0 km/h
1241 27-09-2010 08:11:02 7.5 C 7.52 g/m*3 7.5 C 0 km/h
1242 27-09-2010 08:23:02 7.5 C 7.52 g/m*3 7.5 C 0 km/h
1243 27-09-2010 08:35:02 7.6 C 7.57 g/m*3 7.6 C 0 km/h
1244 27-09-2010 08:47:02 7.8 C 7.67 g/m*3 7.8 C 0 km/h
1245 27-09-2010 08:59:02 8.1 C 7.74 g/m*3 8.1 C 0 km/h
1246 27-09-2010 09:11:02 8.5 C 7.94 g/m*3 8.5 C 0 km/h
1247 27-09-2010 09:23:02 8.8 C 8.09 g/m*3 8.8 C 0 km/h
1248 27-09-2010 09:35:02 9.2 C 8.22 g/m*3 9.2 C 0 km/h
1249 27-09-2010 09:47:01 9.6 C 8.34 g/m*3 9.6 C 0 km/h
1250 27-09-2010 09:59:01 10.1 C 8.42 g/m*3 10.1 C 0 km/h
Sensor: Nr:Datum:Temp:Abs-Feuchte:Windchill:Wind:
Aussen-T/F 1251 27-09-2010 10:11:02 10.4 C 8.29 g/m*3 10.4 C 0 km/h
1252 27-09-2010 10:23:01 10.4 C 7.9 g/m*3 10.4 C 0 km/h
1253 27-09-2010 10:35:02 10.8 C 7.51 g/m*3 10.8 C 0 km/h
1254 27-09-2010 10:47:01 11 C 7.11 g/m*3 11 C 0 km/h
1255 27-09-2010 10:59:01 11.2 C 6.99 g/m*3 11.2 C 0 km/h
1256 27-09-2010 11:11:02 11.7 C 7.01 g/m*3 11.7 C 0 km/h
1257 27-09-2010 11:23:01 11.8 C 6.74 g/m*3 11.8 C 0 km/h
1258 27-09-2010 11:35:02 12.2 C 6.8 g/m*3 12.2 C 0 km/h
1259 27-09-2010 11:47:01 12 C 6.61 g/m*3 12 C 0 km/h
1260 27-09-2010 11:59:01 12.2 C 6.8 g/m*3 12.2 C 0 km/h
1261 27-09-2010 12:11:02 12.4 C 6.77 g/m*3 12.4 C 0 km/h
1262 27-09-2010 12:23:01 12.8 C 6.94 g/m*3 12.8 C 0 km/h
1263 27-09-2010 12:35:02 12.8 C 6.83 g/m*3 12.8 C 0 km/h
1264 27-09-2010 12:47:01 13 C 6.8 g/m*3 13 C 0 km/h
1265 27-09-2010 12:59:01 12.9 C 6.76 g/m*3 12.9 C 0 km/h
1266 27-09-2010 13:11:02 13.1 C 6.73 g/m*3 13.1 C 0 km/h
1267 27-09-2010 13:23:02 13.4 C 6.97 g/m*3 13.4 C 0 km/h
1268 27-09-2010 13:35:01 13.6 C 6.71 g/m*3 13.6 C 0 km/h
1269 27-09-2010 13:47:02 13.6 C 6.71 g/m*3 13.6 C 0 km/h
1270 27-09-2010 13:59:02 13.7 C 6.51 g/m*3 13.7 C 0 km/h
1271 27-09-2010 14:11:01 13.4 C 6.51 g/m*3 13.4 C 0 km/h
1272 27-09-2010 14:23:02 13.3 C 6.7 g/m*3 13.3 C 0 km/h
1273 27-09-2010 14:35:01 13.4 C 6.74 g/m*3 13.4 C 0 km/h
1274 27-09-2010 14:47:03 13.2 C 6.77 g/m*3 13.2 C 0 km/h
1275 27-09-2010 14:59:03 13 C 6.58 g/m*3 13 C 0 km/h
Sensor: Nr:Datum:Temp:Abs-Feuchte:Windchill:Wind:
Aussen-T/F 1276 27-09-2010 15:11:02 13.4 C 6.74 g/m*3 13.4 C 0 km/h
1277 27-09-2010 15:23:02 13.6 C 6.59 g/m*3 13.6 C 0 km/h
1278 27-09-2010 15:35:02 13.6 C 6.47 g/m*3 13.6 C 0 km/h
1279 27-09-2010 15:47:02 13.2 C 6.66 g/m*3 13.2 C 0 km/h
1280 27-09-2010 15:59:02 13.2 C 6.77 g/m*3 13.2 C 0 km/h
1281 27-09-2010 16:11:01 13.4 C 6.97 g/m*3 13.4 C 0 km/h
1282 27-09-2010 16:23:02 13.4 C 7.44 g/m*3 13.4 C 0 km/h
1283 27-09-2010 16:35:02 13.4 C 7.44 g/m*3 13.4 C 0 km/h
1284 27-09-2010 16:47:01 13.3 C 7.05 g/m*3 13.3 C 0 km/h
1285 27-09-2010 16:59:01 13.4 C 7.09 g/m*3 13.4 C 0 km/h
1286 27-09-2010 17:11:01 13.2 C 7.58 g/m*3 13.2 C 0 km/h
1287 27-09-2010 17:23:01 13 C 7.6 g/m*3 13 C 0 km/h
1288 27-09-2010 17:35:02 12.8 C 7.73 g/m*3 12.8 C 0 km/h
1289 27-09-2010 17:47:02 12.8 C 7.84 g/m*3 12.8 C 0 km/h
1290 27-09-2010 17:59:02 12.7 C 7.68 g/m*3 12.7 C 0 km/h
1291 27-09-2010 18:11:02 12.5 C 7.59 g/m*3 12.5 C 0 km/h
1292 27-09-2010 18:23:01 12.3 C 7.71 g/m*3 12.3 C 0 km/h
1293 27-09-2010 18:35:02 11.9 C 7.73 g/m*3 11.9 C 0 km/h
1294 27-09-2010 18:47:02 11.7 C 7.74 g/m*3 11.7 C 0 km/h
1295 27-09-2010 18:59:02 11.3 C 7.85 g/m*3 11.3 C 0 km/h
1296 27-09-2010 19:11:02 10.8 C 8.01 g/m*3 10.8 C 0 km/h
1297 27-09-2010 19:23:02 10.7 C 8.15 g/m*3 10.7 C 0 km/h
1298 27-09-2010 19:35:02 10.5 C 8.15 g/m*3 10.5 C 0 km/h
1299 27-09-2010 19:47:02 10.5 C 8.15 g/m*3 10.5 C 0 km/h
1300 27-09-2010 19:59:02 10.4 C 8.19 g/m*3 10.4 C 0 km/h
Sensor: Nr:Datum:Temp:Abs-Feuchte:Windchill:Wind:
Aussen-T/F 1301 27-09-2010 20:11:02 10.3 C 8.24 g/m*3 10.3 C 0 km/h
1302 27-09-2010 20:23:02 10.3 C 8.33 g/m*3 10.3 C 0 km/h
1303 27-09-2010 20:35:02 10.3 C 8.43 g/m*3 10.3 C 0 km/h
1304 27-09-2010 20:47:01 10.3 C 8.43 g/m*3 10.3 C 0 km/h
1305 27-09-2010 20:59:01 10.3 C 8.52 g/m*3 10.3 C 0 km/h
1306 27-09-2010 21:11:02 10.4 C 8.58 g/m*3 10.4 C 0 km/h
1307 27-09-2010 21:23:01 10.2 C 8.47 g/m*3 10.2 C 0 km/h
1308 27-09-2010 21:35:02 10.3 C 8.52 g/m*3 10.3 C 0 km/h
1309 27-09-2010 21:47:02 10.4 C 8.58 g/m*3 10.4 C 0 km/h
1310 27-09-2010 21:59:03 10.4 C 8.58 g/m*3 10.4 C 0 km/h
1311 27-09-2010 22:11:02 10.4 C 8.58 g/m*3 10.4 C 0 km/h
1312 27-09-2010 22:24:10 10.4 C 8.67 g/m*3 10.4 C 0 km/h
1313 27-09-2010 22:36:10 10.2 C 8.56 g/m*3 10.2 C 0 km/h
1314 27-09-2010 22:48:10 10.2 C 8.56 g/m*3 10.2 C 0 km/h
1315 27-09-2010 23:00:10 10.2 C 8.56 g/m*3 10.2 C 0 km/h
1316 27-09-2010 23:12:10 10.2 C 8.66 g/m*3 10.2 C 0 km/h
1317 27-09-2010 23:24:10 10.2 C 8.66 g/m*3 10.2 C 0 km/h
1318 27-09-2010 23:36:10 10.1 C 8.61 g/m*3 10.1 C 0 km/h
1319 27-09-2010 23:48:10 10.1 C 8.7 g/m*3 10.1 C 0 km/h
1320 28-09-2010 00:00:10 10.1 C 8.7 g/m*3 10.1 C 0 km/h
1321 28-09-2010 00:12:10 10 C 8.64 g/m*3 10 C 0 km/h
1322 28-09-2010 00:24:10 10 C 8.64 g/m*3 10 C 0 km/h
1323 28-09-2010 00:36:10 10 C 8.64 g/m*3 10 C 0 km/h
1324 28-09-2010 00:48:10 9.9 C 8.78 g/m*3 9.9 C 0 km/h
1325 28-09-2010 01:00:10 10 C 8.74 g/m*3 10 C 0 km/h
Sensor: Nr:Datum:Temp:Abs-Feuchte:Windchill:Wind:
Aussen-T/F 1326 28-09-2010 01:12:11 10 C 8.74 g/m*3 10 C 0 km/h
1327 28-09-2010 01:24:11 10 C 8.74 g/m*3 10 C 0 km/h
1328 28-09-2010 01:36:11 10 C 8.74 g/m*3 10 C 0 km/h
1329 28-09-2010 01:48:11 9.9 C 8.78 g/m*3 9.9 C 0 km/h
1330 28-09-2010 02:00:11 9.9 C 8.78 g/m*3 9.9 C 0 km/h
1331 28-09-2010 02:12:11 9.9 C 8.78 g/m*3 9.9 C 0 km/h
1332 28-09-2010 02:24:11 9.9 C 8.78 g/m*3 9.9 C 0 km/h
1333 28-09-2010 02:36:11 9.9 C 8.78 g/m*3 9.9 C 0 km/h
1334 28-09-2010 02:48:11 9.9 C 8.78 g/m*3 9.9 C 0 km/h
1335 28-09-2010 03:00:11 9.9 C 8.87 g/m*3 9.9 C 0 km/h
1336 28-09-2010 03:12:11 9.9 C 8.87 g/m*3 9.9 C 0 km/h
1337 28-09-2010 03:24:11 9.9 C 8.87 g/m*3 9.9 C 0 km/h
1338 28-09-2010 03:36:12 9.9 C 8.87 g/m*3 9.9 C 0 km/h
1339 28-09-2010 03:48:12 9.9 C 8.87 g/m*3 9.9 C 0 km/h
1340 28-09-2010 04:00:12 9.9 C 8.87 g/m*3 9.9 C 0 km/h
1341 28-09-2010 04:12:12 9.9 C 8.87 g/m*3 9.9 C 0 km/h
1342 28-09-2010 04:24:12 9.9 C 8.87 g/m*3 9.9 C 0 km/h
1343 28-09-2010 04:36:12 9.9 C 8.87 g/m*3 9.9 C 0 km/h
1344 28-09-2010 04:48:12 10 C 8.83 g/m*3 10 C 0 km/h
1345 28-09-2010 05:00:12 10 C 8.93 g/m*3 10 C 0 km/h
1346 28-09-2010 05:12:12 10 C 8.93 g/m*3 10 C 0 km/h
1347 28-09-2010 05:24:12 10 C 8.93 g/m*3 10 C 0 km/h
1348 28-09-2010 05:36:12 10 C 8.93 g/m*3 10 C 0 km/h
1349 28-09-2010 05:48:12 10 C 8.93 g/m*3 10 C 0 km/h
1350 28-09-2010 06:00:12 10.1 C 8.98 g/m*3 10.1 C 0 km/h
Sensor: Nr:Datum:Temp:Abs-Feuchte:Windchill:Wind:
Aussen-T/F 1351 28-09-2010 06:12:12 10.1 C 8.98 g/m*3 10.1 C 0 km/h
1352 28-09-2010 06:24:12 10.1 C 8.98 g/m*3 10.1 C 0 km/h
1353 28-09-2010 06:36:12 10.1 C 8.98 g/m*3 10.1 C 0 km/h
1354 28-09-2010 06:48:12 10 C 8.93 g/m*3 10 C 0 km/h
1355 28-09-2010 07:00:12 10 C 8.93 g/m*3 10 C 0 km/h
1356 28-09-2010 07:12:12 10 C 8.93 g/m*3 10 C 0 km/h
1357 28-09-2010 07:24:12 10 C 8.93 g/m*3 10 C 0 km/h
1358 28-09-2010 07:36:13 10 C 8.93 g/m*3 10 C 0 km/h
1359 28-09-2010 07:48:01 10 C 8.93 g/m*3 10 C 0 km/h
1360 28-09-2010 08:00:01 10 C 8.93 g/m*3 10 C 0 km/h
1361 28-09-2010 08:12:02 10 C 8.93 g/m*3 10 C 0 km/h
1362 28-09-2010 08:24:02 10 C 8.93 g/m*3 10 C 0 km/h
1363 28-09-2010 08:36:02 10.1 C 8.98 g/m*3 10.1 C 0 km/h
1364 28-09-2010 08:48:03 10.1 C 8.98 g/m*3 10.1 C 0 km/h
1365 28-09-2010 09:00:03 10.1 C 8.98 g/m*3 10.1 C 0 km/h
1366 28-09-2010 09:12:03 10.2 C 9.04 g/m*3 10.2 C 0 km/h
1367 28-09-2010 09:24:02 10.2 C 9.04 g/m*3 10.2 C 0 km/h
1368 28-09-2010 09:36:02 10.3 C 9.1 g/m*3 10.3 C 0 km/h
1369 28-09-2010 09:48:02 10.4 C 9.16 g/m*3 10.4 C 0 km/h
1370 28-09-2010 10:00:02 10.4 C 9.16 g/m*3 10.4 C 0 km/h
1371 28-09-2010 10:12:02 10.5 C 9.21 g/m*3 10.5 C 0 km/h
1372 28-09-2010 10:24:01 10.5 C 9.21 g/m*3 10.5 C 0 km/h
1373 28-09-2010 10:36:02 10.7 C 9.33 g/m*3 10.7 C 0 km/h
1374 28-09-2010 10:48:02 10.8 C 9.39 g/m*3 10.8 C 0 km/h
1375 28-09-2010 11:00:02 11 C 9.51 g/m*3 11 C 0 km/h
Sensor: Nr:Datum:Temp:Abs-Feuchte:Windchill:Wind:
Aussen-T/F 1376 28-09-2010 11:12:02 11 C 9.51 g/m*3 11 C 0 km/h
1377 28-09-2010 11:24:02 11.2 C 9.63 g/m*3 11.2 C 0 km/h
1378 28-09-2010 11:36:02 11.3 C 9.69 g/m*3 11.3 C 0 km/h
1379 28-09-2010 11:48:02 11.4 C 9.75 g/m*3 11.4 C 0 km/h
1380 28-09-2010 12:00:02 11.4 C 9.75 g/m*3 11.4 C 0 km/h
1381 28-09-2010 12:12:02 11.4 C 9.65 g/m*3 11.4 C 0 km/h
1382 28-09-2010 12:24:02 11.4 C 9.65 g/m*3 11.4 C 0 km/h
1383 28-09-2010 12:36:02 11.5 C 9.71 g/m*3 11.5 C 0 km/h
1384 28-09-2010 12:48:02 11.7 C 9.83 g/m*3 11.7 C 0 km/h
1385 28-09-2010 13:00:02 11.6 C 9.67 g/m*3 11.6 C 0 km/h
1386 28-09-2010 13:12:02 11.6 C 9.67 g/m*3 11.6 C 0 km/h
1387 28-09-2010 13:24:03 11.8 C 9.79 g/m*3 11.8 C 0 km/h
1388 28-09-2010 13:36:02 11.8 C 9.68 g/m*3 11.8 C 0 km/h
1389 28-09-2010 13:48:03 11.9 C 9.74 g/m*3 11.9 C 0 km/h
1390 28-09-2010 14:00:03 11.9 C 9.74 g/m*3 11.9 C 0 km/h
1391 28-09-2010 14:12:02 11.8 C 9.68 g/m*3 11.8 C 0 km/h
1392 28-09-2010 14:24:02 11.7 C 9.62 g/m*3 11.7 C 0 km/h
1393 28-09-2010 14:36:02 11.7 C 9.62 g/m*3 11.7 C 0 km/h
1394 28-09-2010 14:48:02 11.7 C 9.62 g/m*3 11.7 C 0 km/h
1395 28-09-2010 15:00:02 11.7 C 9.62 g/m*3 11.7 C 0 km/h
1396 28-09-2010 15:12:02 11.7 C 9.73 g/m*3 11.7 C 0 km/h
1397 28-09-2010 15:24:02 11.7 C 9.73 g/m*3 11.7 C 0 km/h
1398 28-09-2010 15:36:02 11.8 C 9.79 g/m*3 11.8 C 0 km/h
1399 28-09-2010 15:48:02 11.8 C 9.79 g/m*3 11.8 C 0 km/h
1400 28-09-2010 16:00:02 11.8 C 9.79 g/m*3 11.8 C 0 km/h
Sensor: Nr:Datum:Temp:Abs-Feuchte:Windchill:Wind:
Aussen-T/F 1401 28-09-2010 16:12:01 11.8 C 9.79 g/m*3 11.8 C 0 km/h
1402 28-09-2010 16:24:01 11.8 C 9.79 g/m*3 11.8 C 0 km/h
1403 28-09-2010 16:36:02 11.9 C 9.96 g/m*3 11.9 C 0 km/h
1404 28-09-2010 16:48:02 11.9 C 9.96 g/m*3 11.9 C 0 km/h
1405 28-09-2010 17:00:02 11.9 C 9.96 g/m*3 11.9 C 0 km/h
1406 28-09-2010 17:12:02 12 C 10.02 g/m*3 12 C 0 km/h
1407 28-09-2010 17:24:02 12 C 10.02 g/m*3 12 C 0 km/h
1408 28-09-2010 17:36:02 12 C 10.02 g/m*3 12 C 0 km/h
1409 28-09-2010 17:48:02 12 C 10.02 g/m*3 12 C 0 km/h
1410 28-09-2010 18:00:02 11.9 C 9.96 g/m*3 11.9 C 0 km/h
1411 28-09-2010 18:12:02 11.9 C 9.96 g/m*3 11.9 C 0 km/h
1412 28-09-2010 18:24:02 11.9 C 10.06 g/m*3 11.9 C 0 km/h
1413 28-09-2010 18:36:02 11.8 C 10 g/m*3 11.8 C 0 km/h
1414 28-09-2010 18:48:01 11.8 C 10 g/m*3 11.8 C 0 km/h
1415 28-09-2010 19:00:01 11.8 C 10 g/m*3 11.8 C 0 km/h
1416 28-09-2010 19:12:02 11.7 C 9.94 g/m*3 11.7 C 0 km/h
1417 28-09-2010 19:24:01 11.7 C 9.94 g/m*3 11.7 C 0 km/h
1418 28-09-2010 19:36:01 11.7 C 9.94 g/m*3 11.7 C 0 km/h
1419 28-09-2010 19:48:01 11.7 C 9.94 g/m*3 11.7 C 0 km/h
1420 28-09-2010 20:00:01 11.6 C 9.87 g/m*3 11.6 C 0 km/h
1421 28-09-2010 20:12:02 11.6 C 9.87 g/m*3 11.6 C 0 km/h
1422 28-09-2010 20:24:02 11.6 C 9.87 g/m*3 11.6 C 0 km/h
1423 28-09-2010 20:36:01 11.6 C 9.87 g/m*3 11.6 C 0 km/h
1424 28-09-2010 20:48:01 11.6 C 9.87 g/m*3 11.6 C 0 km/h
1425 28-09-2010 21:00:01 11.6 C 9.87 g/m*3 11.6 C 0 km/h
Sensor: Nr:Datum:Temp:Abs-Feuchte:Windchill:Wind:
Aussen-T/F 1426 28-09-2010 21:12:01 11.6 C 9.87 g/m*3 11.6 C 0 km/h
1427 28-09-2010 21:24:02 11.6 C 9.87 g/m*3 11.6 C 0 km/h
1428 28-09-2010 21:36:01 11.5 C 9.81 g/m*3 11.5 C 0 km/h
1429 28-09-2010 21:48:03 11.6 C 9.87 g/m*3 11.6 C 0 km/h
1430 28-09-2010 22:00:03 11.6 C 9.87 g/m*3 11.6 C 0 km/h
1431 28-09-2010 22:12:02 11.6 C 9.87 g/m*3 11.6 C 0 km/h
1432 28-09-2010 22:24:03 11.6 C 9.87 g/m*3 11.6 C 0 km/h
1433 28-09-2010 22:36:02 11.7 C 9.94 g/m*3 11.7 C 0 km/h
1434 28-09-2010 22:48:03 11.6 C 9.87 g/m*3 11.6 C 0 km/h
1435 28-09-2010 23:00:03 11.6 C 9.87 g/m*3 11.6 C 0 km/h
1436 28-09-2010 23:12:02 11.6 C 9.87 g/m*3 11.6 C 0 km/h
1437 28-09-2010 23:24:02 11.6 C 9.87 g/m*3 11.6 C 0 km/h
1438 28-09-2010 23:36:02 11.6 C 9.87 g/m*3 11.6 C 0 km/h
1439 28-09-2010 23:48:02 11.6 C 9.87 g/m*3 11.6 C 0 km/h
1440 29-09-2010 00:00:02 11.6 C 9.87 g/m*3 11.6 C 0 km/h
1441 29-09-2010 00:12:02 11.7 C 9.94 g/m*3 11.7 C 0 km/h
1442 29-09-2010 00:24:02 11.6 C 9.87 g/m*3 11.6 C 0 km/h
1443 29-09-2010 00:36:02 11.7 C 9.94 g/m*3 11.7 C 0 km/h
1444 29-09-2010 00:48:02 11.6 C 9.87 g/m*3 11.6 C 0 km/h
1445 29-09-2010 01:00:02 11.7 C 9.94 g/m*3 11.7 C 0 km/h
1446 29-09-2010 01:12:03 11.6 C 9.87 g/m*3 11.6 C 0 km/h
1447 29-09-2010 01:24:02 11.6 C 9.87 g/m*3 11.6 C 0 km/h
1448 29-09-2010 01:36:02 11.6 C 9.87 g/m*3 11.6 C 0 km/h
1449 29-09-2010 01:48:01 11.6 C 9.87 g/m*3 11.6 C 0 km/h
1450 29-09-2010 02:00:01 11.6 C 9.87 g/m*3 11.6 C 0 km/h
Sensor: Nr:Datum:Temp:Abs-Feuchte:Windchill:Wind:
Aussen-T/F 1451 29-09-2010 02:12:02 11.6 C 9.87 g/m*3 11.6 C 0 km/h
1452 29-09-2010 02:24:01 11.5 C 9.81 g/m*3 11.5 C 0 km/h
1453 29-09-2010 02:36:02 11.5 C 9.81 g/m*3 11.5 C 0 km/h
1454 29-09-2010 02:48:01 11.6 C 9.87 g/m*3 11.6 C 0 km/h
1455 29-09-2010 03:00:01 11.4 C 9.75 g/m*3 11.4 C 0 km/h
1456 29-09-2010 03:12:01 11.3 C 9.69 g/m*3 11.3 C 0 km/h
1457 29-09-2010 03:24:02 11.4 C 9.75 g/m*3 11.4 C 0 km/h
1458 29-09-2010 03:36:01 11.7 C 9.94 g/m*3 11.7 C 0 km/h
1459 29-09-2010 03:48:01 11.6 C 9.87 g/m*3 11.6 C 0 km/h
1460 29-09-2010 04:00:01 11.6 C 9.87 g/m*3 11.6 C 0 km/h
1461 29-09-2010 04:12:02 11.6 C 9.87 g/m*3 11.6 C 0 km/h
1462 29-09-2010 04:24:01 11.6 C 9.87 g/m*3 11.6 C 0 km/h
1463 29-09-2010 04:36:01 11.3 C 9.69 g/m*3 11.3 C 0 km/h
1464 29-09-2010 04:48:01 11.3 C 9.69 g/m*3 11.3 C 0 km/h
1465 29-09-2010 05:00:01 11.4 C 9.75 g/m*3 11.4 C 0 km/h
1466 29-09-2010 05:12:02 11.4 C 9.75 g/m*3 11.4 C 0 km/h
1467 29-09-2010 05:24:01 11.4 C 9.75 g/m*3 11.4 C 0 km/h
1468 29-09-2010 05:36:01 11.4 C 9.75 g/m*3 11.4 C 0 km/h
1469 29-09-2010 05:48:01 11.4 C 9.75 g/m*3 11.4 C 0 km/h
1470 29-09-2010 06:00:01 11.7 C 9.94 g/m*3 11.7 C 0 km/h
1471 29-09-2010 06:12:01 11.6 C 9.87 g/m*3 11.6 C 0 km/h
1472 29-09-2010 06:24:02 11.5 C 9.81 g/m*3 11.5 C 0 km/h
1473 29-09-2010 06:36:01 11.5 C 9.81 g/m*3 11.5 C 0 km/h
1474 29-09-2010 06:48:02 11.3 C 9.69 g/m*3 11.3 C 0 km/h
1475 29-09-2010 07:00:02 11.1 C 9.57 g/m*3 11.1 C 0 km/h
Sensor: Nr:Datum:Temp:Abs-Feuchte:Windchill:Wind:
Aussen-T/F 1476 29-09-2010 07:12:01 10.8 C 9.39 g/m*3 10.8 C 0 km/h
1477 29-09-2010 07:24:02 11 C 9.51 g/m*3 11 C 0 km/h
1478 29-09-2010 07:36:01 11.2 C 9.63 g/m*3 11.2 C 0 km/h
1479 29-09-2010 07:48:02 11.1 C 9.57 g/m*3 11.1 C 0 km/h
1480 29-09-2010 08:00:02 11 C 9.51 g/m*3 11 C 0 km/h
1481 29-09-2010 08:12:01 11.2 C 9.63 g/m*3 11.2 C 0 km/h
1482 29-09-2010 08:24:01 11.2 C 9.63 g/m*3 11.2 C 0 km/h
1483 29-09-2010 08:36:01 11.1 C 9.57 g/m*3 11.1 C 0 km/h
1484 29-09-2010 08:48:02 11.4 C 9.75 g/m*3 11.4 C 0 km/h
1485 29-09-2010 09:00:02 11.6 C 9.87 g/m*3 11.6 C 0 km/h
1486 29-09-2010 09:12:01 11.2 C 9.53 g/m*3 11.2 C 0 km/h
1487 29-09-2010 09:24:01 10.8 C 9.19 g/m*3 10.8 C 0 km/h
1488 29-09-2010 09:36:02 11.7 C 9.62 g/m*3 11.7 C 0 km/h
1489 29-09-2010 09:48:01 11.9 C 9.64 g/m*3 11.9 C 0 km/h
1490 29-09-2010 10:00:01 12.1 C 9.22 g/m*3 12.1 C 0 km/h
1491 29-09-2010 10:12:02 12.5 C 8.91 g/m*3 12.5 C 0 km/h
1492 29-09-2010 10:24:01 12.9 C 8.79 g/m*3 12.9 C 0 km/h
1493 29-09-2010 10:36:02 13.4 C 8.95 g/m*3 13.4 C 0 km/h
1494 29-09-2010 10:48:01 13.7 C 9 g/m*3 13.7 C 0 km/h
1495 29-09-2010 11:00:01 13.8 C 8.94 g/m*3 13.8 C 0 km/h
1496 29-09-2010 11:12:02 13.7 C 8.53 g/m*3 13.7 C 0 km/h
1497 29-09-2010 11:24:01 13.8 C 8.46 g/m*3 13.8 C 0 km/h
1498 29-09-2010 11:36:01 14.1 C 8.01 g/m*3 14.1 C 0 km/h
1499 29-09-2010 11:48:01 14.4 C 8.16 g/m*3 14.4 C 0 km/h
1500 29-09-2010 12:00:01 14.5 C 8.21 g/m*3 14.5 C 0 km/h
Sensor: Nr:Datum:Temp:Abs-Feuchte:Windchill:Wind:
Aussen-T/F 1501 29-09-2010 12:12:01 14.6 C 8.01 g/m*3 14.6 C 0 km/h
1502 29-09-2010 12:24:01 14.1 C 7.52 g/m*3 14.1 C 0 km/h
1503 29-09-2010 12:36:01 14 C 8.08 g/m*3 14 C 0 km/h
1504 29-09-2010 12:48:01 14.8 C 8.36 g/m*3 14.8 C 0 km/h
1505 29-09-2010 13:00:01 15.4 C 8.15 g/m*3 15.4 C 0 km/h
1506 29-09-2010 13:12:01 15.7 C 7.89 g/m*3 15.7 C 0 km/h
1507 29-09-2010 13:24:02 15.8 C 7.81 g/m*3 15.8 C 0 km/h
1508 29-09-2010 13:36:01 15.9 C 7.99 g/m*3 15.9 C 0 km/h
1509 29-09-2010 13:48:02 15.9 C 7.58 g/m*3 15.9 C 0 km/h
1510 29-09-2010 14:00:02 16.3 C 7.35 g/m*3 16.3 C 0 km/h
1511 29-09-2010 14:12:01 15.6 C 7.58 g/m*3 15.6 C 0 km/h
1512 29-09-2010 14:24:02 15.8 C 7.94 g/m*3 15.8 C 0 km/h
1513 29-09-2010 14:36:01 17.4 C 7.85 g/m*3 17.4 C 0 km/h
1514 29-09-2010 14:48:02 19 C 7.33 g/m*3 19 C 0 km/h
1515 29-09-2010 15:00:02 18.8 C 6.76 g/m*3 18.8 C 0 km/h
1516 29-09-2010 15:12:01 18.8 C 6.93 g/m*3 18.8 C 0 km/h
1517 29-09-2010 15:24:01 18.9 C 6.97 g/m*3 18.9 C 0 km/h
1518 29-09-2010 15:36:02 19.6 C 6.92 g/m*3 19.6 C 0 km/h
1519 29-09-2010 15:48:01 19.7 C 6.79 g/m*3 19.7 C 0 km/h
1520 29-09-2010 16:00:02 18.8 C 7.41 g/m*3 18.8 C 0 km/h
1521 29-09-2010 16:12:01 18.1 C 7.26 g/m*3 18.1 C 0 km/h
1522 29-09-2010 16:24:01 18.1 C 7.57 g/m*3 18.1 C 0 km/h
1523 29-09-2010 16:36:02 17.6 C 7.95 g/m*3 17.6 C 0 km/h
1524 29-09-2010 16:48:01 18.1 C 7.88 g/m*3 18.1 C 0 km/h
1525 29-09-2010 17:00:02 19 C 7.33 g/m*3 19 C 0 km/h
Sensor: Nr:Datum:Temp:Abs-Feuchte:Windchill:Wind:
Aussen-T/F 1526 29-09-2010 17:12:01 19.4 C 7.01 g/m*3 19.4 C 0 km/h
1527 29-09-2010 17:24:01 18.6 C 7.16 g/m*3 18.6 C 0 km/h
1528 29-09-2010 17:36:02 17.6 C 7.95 g/m*3 17.6 C 0 km/h
1529 29-09-2010 17:48:01 16.9 C 8.05 g/m*3 16.9 C 0 km/h
1530 29-09-2010 18:00:01 15.9 C 7.58 g/m*3 15.9 C 0 km/h
1531 29-09-2010 18:12:04 15.2 C 7.92 g/m*3 15.2 C 0 km/h
1532 29-09-2010 18:24:02 14.4 C 7.91 g/m*3 14.4 C 0 km/h
1533 29-09-2010 18:36:02 14 C 7.84 g/m*3 14 C 0 km/h
1534 29-09-2010 18:48:01 13.6 C 7.89 g/m*3 13.6 C 0 km/h
1535 29-09-2010 19:00:01 13.2 C 7.81 g/m*3 13.2 C 0 km/h
1536 29-09-2010 19:12:01 13.1 C 7.76 g/m*3 13.1 C 0 km/h
1537 29-09-2010 19:24:01 13 C 7.71 g/m*3 13 C 0 km/h
1538 29-09-2010 19:36:02 13 C 7.6 g/m*3 13 C 0 km/h
1539 29-09-2010 19:48:01 13.1 C 7.53 g/m*3 13.1 C 0 km/h
1540 29-09-2010 20:00:01 13.3 C 7.63 g/m*3 13.3 C 0 km/h
1541 29-09-2010 20:12:02 13.2 C 7.81 g/m*3 13.2 C 0 km/h
1542 29-09-2010 20:24:01 13.2 C 7.81 g/m*3 13.2 C 0 km/h
1543 29-09-2010 20:36:02 13 C 7.6 g/m*3 13 C 0 km/h
1544 29-09-2010 20:48:01 12.9 C 7.66 g/m*3 12.9 C 0 km/h
1545 29-09-2010 21:00:01 12.9 C 7.66 g/m*3 12.9 C 0 km/h
1546 29-09-2010 21:12:02 12.8 C 7.84 g/m*3 12.8 C 0 km/h
1547 29-09-2010 21:24:01 12.4 C 7.98 g/m*3 12.4 C 0 km/h
1548 29-09-2010 21:38:05 12.2 C 8.09 g/m*3 12.2 C 0 km/h
1549 29-09-2010 21:50:05 12.2 C 8.09 g/m*3 12.2 C 0 km/h
1550 29-09-2010 22:02:05 12.3 C 8.25 g/m*3 12.3 C 0 km/h
Sensor: Nr:Datum:Temp:Abs-Feuchte:Windchill:Wind:
Aussen-T/F 1551 29-09-2010 22:14:05 12.4 C 8.3 g/m*3 12.4 C 0 km/h
1552 29-09-2010 22:26:05 12.4 C 8.41 g/m*3 12.4 C 0 km/h
1553 29-09-2010 22:38:06 12.5 C 8.47 g/m*3 12.5 C 0 km/h
1554 29-09-2010 22:50:06 12.3 C 8.36 g/m*3 12.3 C 0 km/h
1555 29-09-2010 23:02:06 12 C 8.21 g/m*3 12 C 0 km/h
1556 29-09-2010 23:14:06 11.8 C 8.31 g/m*3 11.8 C 0 km/h
1557 29-09-2010 23:26:06 11.8 C 8.42 g/m*3 11.8 C 0 km/h
1558 29-09-2010 23:38:06 12 C 8.31 g/m*3 12 C 0 km/h
1559 29-09-2010 23:50:06 12.2 C 8.42 g/m*3 12.2 C 0 km/h
1560 30-09-2010 00:02:06 12.4 C 8.52 g/m*3 12.4 C 0 km/h
1561 30-09-2010 00:14:06 12.3 C 8.47 g/m*3 12.3 C 0 km/h
1562 30-09-2010 00:26:06 12.1 C 8.36 g/m*3 12.1 C 0 km/h
1563 30-09-2010 00:38:06 12.1 C 8.47 g/m*3 12.1 C 0 km/h
1564 30-09-2010 00:50:06 11.9 C 8.37 g/m*3 11.9 C 0 km/h
1565 30-09-2010 01:02:06 11.7 C 8.37 g/m*3 11.7 C 0 km/h
1566 30-09-2010 01:14:06 11.8 C 7.89 g/m*3 11.8 C 0 km/h
1567 30-09-2010 01:26:06 11.8 C 7.79 g/m*3 11.8 C 0 km/h
1568 30-09-2010 01:38:06 12 C 7.46 g/m*3 12 C 0 km/h
1569 30-09-2010 01:50:06 12 C 7.25 g/m*3 12 C 0 km/h
1570 30-09-2010 02:02:06 12.1 C 7.4 g/m*3 12.1 C 0 km/h
1571 30-09-2010 02:14:06 11.5 C 7.54 g/m*3 11.5 C 0 km/h
1572 30-09-2010 02:26:06 11.4 C 7.7 g/m*3 11.4 C 0 km/h
1573 30-09-2010 02:38:06 11.1 C 7.66 g/m*3 11.1 C 0 km/h
1574 30-09-2010 02:50:07 11.2 C 7.8 g/m*3 11.2 C 0 km/h
1575 30-09-2010 03:02:07 11.3 C 7.85 g/m*3 11.3 C 0 km/h
Sensor: Nr:Datum:Temp:Abs-Feuchte:Windchill:Wind:
Aussen-T/F 1576 30-09-2010 03:14:07 11.2 C 7.91 g/m*3 11.2 C 0 km/h
1577 30-09-2010 03:26:07 11 C 7.81 g/m*3 11 C 0 km/h
1578 30-09-2010 03:38:07 11.1 C 7.86 g/m*3 11.1 C 0 km/h
1579 30-09-2010 03:50:07 11.2 C 7.91 g/m*3 11.2 C 0 km/h
1580 30-09-2010 04:02:07 11.3 C 7.96 g/m*3 11.3 C 0 km/h
1581 30-09-2010 04:14:07 11.2 C 7.91 g/m*3 11.2 C 0 km/h
1582 30-09-2010 04:26:07 11 C 7.81 g/m*3 11 C 0 km/h
1583 30-09-2010 04:38:07 10.8 C 7.81 g/m*3 10.8 C 0 km/h
1584 30-09-2010 04:50:07 10.8 C 7.91 g/m*3 10.8 C 0 km/h
1585 30-09-2010 05:02:07 10.8 C 7.91 g/m*3 10.8 C 0 km/h
1586 30-09-2010 05:14:07 10.8 C 7.91 g/m*3 10.8 C 0 km/h
1587 30-09-2010 05:26:07 10.8 C 7.81 g/m*3 10.8 C 0 km/h
1588 30-09-2010 05:38:07 10.7 C 7.76 g/m*3 10.7 C 0 km/h
1589 30-09-2010 05:50:07 10.7 C 7.56 g/m*3 10.7 C 0 km/h
1590 30-09-2010 06:02:07 10.8 C 7.31 g/m*3 10.8 C 0 km/h
1591 30-09-2010 06:14:07 10.8 C 7.31 g/m*3 10.8 C 0 km/h
1592 30-09-2010 06:26:07 10.7 C 7.27 g/m*3 10.7 C 0 km/h
1593 30-09-2010 06:38:05 10.6 C 7.32 g/m*3 10.6 C 0 km/h
1594 30-09-2010 06:50:02 10.6 C 7.42 g/m*3 10.6 C 0 km/h
1595 30-09-2010 07:02:02 10.7 C 7.56 g/m*3 10.7 C 0 km/h
1596 30-09-2010 07:14:02 10.7 C 7.66 g/m*3 10.7 C 0 km/h
1597 30-09-2010 07:26:02 10.6 C 7.61 g/m*3 10.6 C 0 km/h
1598 30-09-2010 07:38:02 10.6 C 7.71 g/m*3 10.6 C 0 km/h
1599 30-09-2010 07:50:01 10.7 C 7.76 g/m*3 10.7 C 0 km/h
1600 30-09-2010 08:02:01 10.7 C 7.66 g/m*3 10.7 C 0 km/h
Sensor: Nr:Datum:Temp:Abs-Feuchte:Windchill:Wind:
Aussen-T/F 1601 30-09-2010 08:14:02 10.9 C 7.76 g/m*3 10.9 C 0 km/h
1602 30-09-2010 08:26:01 10.9 C 7.76 g/m*3 10.9 C 0 km/h
1603 30-09-2010 08:38:01 11 C 7.81 g/m*3 11 C 0 km/h
1604 30-09-2010 08:50:01 11 C 7.81 g/m*3 11 C 0 km/h
1605 30-09-2010 09:02:01 11.2 C 7.91 g/m*3 11.2 C 0 km/h
1606 30-09-2010 09:14:01 11.4 C 8.01 g/m*3 11.4 C 0 km/h
1607 30-09-2010 09:26:01 11.4 C 7.8 g/m*3 11.4 C 0 km/h
1608 30-09-2010 09:38:01 11.5 C 7.75 g/m*3 11.5 C 0 km/h
1609 30-09-2010 09:50:02 11.5 C 7.85 g/m*3 11.5 C 0 km/h
1610 30-09-2010 10:02:02 11.4 C 8.01 g/m*3 11.4 C 0 km/h
1611 30-09-2010 10:14:02 11.4 C 8.11 g/m*3 11.4 C 0 km/h
1612 30-09-2010 10:26:03 11.7 C 8.37 g/m*3 11.7 C 0 km/h
1613 30-09-2010 10:38:02 11.8 C 8.42 g/m*3 11.8 C 0 km/h
1614 30-09-2010 10:50:02 11.9 C 8.47 g/m*3 11.9 C 0 km/h
1615 30-09-2010 11:02:02 12 C 8.42 g/m*3 12 C 0 km/h
1616 30-09-2010 11:14:02 12 C 8.42 g/m*3 12 C 0 km/h
1617 30-09-2010 11:26:02 11.8 C 8.42 g/m*3 11.8 C 0 km/h
1618 30-09-2010 11:38:01 11.7 C 8.47 g/m*3 11.7 C 0 km/h
1619 30-09-2010 11:50:02 11.8 C 8.63 g/m*3 11.8 C 0 km/h
1620 30-09-2010 12:02:01 11.9 C 8.79 g/m*3 11.9 C 0 km/h
1621 30-09-2010 12:14:01 11.9 C 8.9 g/m*3 11.9 C 0 km/h
1622 30-09-2010 12:26:02 12 C 8.95 g/m*3 12 C 0 km/h
1623 30-09-2010 12:38:02 12.1 C 9.01 g/m*3 12.1 C 0 km/h
1624 30-09-2010 12:50:02 12 C 9.06 g/m*3 12 C 0 km/h
1625 30-09-2010 13:02:02 12.4 C 9.4 g/m*3 12.4 C 0 km/h
Sensor: Nr:Datum:Temp:Abs-Feuchte:Windchill:Wind:
Aussen-T/F 1626 30-09-2010 13:14:02 12.6 C 9.51 g/m*3 12.6 C 0 km/h
1627 30-09-2010 13:26:02 12.6 C 9.51 g/m*3 12.6 C 0 km/h
1628 30-09-2010 13:38:02 12.6 C 9.62 g/m*3 12.6 C 0 km/h
1629 30-09-2010 13:50:01 12.7 C 9.68 g/m*3 12.7 C 0 km/h
1630 30-09-2010 14:02:02 12.9 C 9.81 g/m*3 12.9 C 0 km/h
1631 30-09-2010 14:14:02 13 C 9.87 g/m*3 13 C 0 km/h
1632 30-09-2010 14:26:01 12.8 C 9.86 g/m*3 12.8 C 0 km/h
1633 30-09-2010 14:38:01 12.9 C 9.92 g/m*3 12.9 C 0 km/h
1634 30-09-2010 14:50:01 13.1 C 10.04 g/m*3 13.1 C 0 km/h
1635 30-09-2010 15:02:02 13.2 C 10.1 g/m*3 13.2 C 0 km/h
1636 30-09-2010 15:14:03 13.2 C 10.1 g/m*3 13.2 C 0 km/h
1637 30-09-2010 15:26:01 13.4 C 10.23 g/m*3 13.4 C 0 km/h
1638 30-09-2010 15:38:01 13.3 C 10.17 g/m*3 13.3 C 0 km/h
1639 30-09-2010 15:50:01 13.2 C 9.99 g/m*3 13.2 C 0 km/h
1640 30-09-2010 16:02:01 13.5 C 10.29 g/m*3 13.5 C 0 km/h
1641 30-09-2010 16:14:01 13.5 C 10.29 g/m*3 13.5 C 0 km/h
1642 30-09-2010 16:26:02 13.6 C 10.24 g/m*3 13.6 C 0 km/h
1643 30-09-2010 16:38:01 13.3 C 10.05 g/m*3 13.3 C 0 km/h
1644 30-09-2010 16:50:03 13.1 C 9.93 g/m*3 13.1 C 0 km/h
1645 30-09-2010 17:02:02 13.1 C 9.93 g/m*3 13.1 C 0 km/h
1646 30-09-2010 17:14:02 13 C 9.98 g/m*3 13 C 0 km/h
1647 30-09-2010 17:26:02 13 C 9.98 g/m*3 13 C 0 km/h
1648 30-09-2010 17:38:02 12.9 C 10.03 g/m*3 12.9 C 0 km/h
1649 30-09-2010 17:50:02 12.8 C 9.97 g/m*3 12.8 C 0 km/h
1650 30-09-2010 18:02:02 12.7 C 9.91 g/m*3 12.7 C 0 km/h
Sensor: Nr:Datum:Temp:Abs-Feuchte:Windchill:Wind:
Aussen-T/F 1651 30-09-2010 18:14:02 12.5 C 9.78 g/m*3 12.5 C 0 km/h
1652 30-09-2010 18:26:02 12.5 C 9.78 g/m*3 12.5 C 0 km/h
1653 30-09-2010 18:38:02 12.4 C 9.83 g/m*3 12.4 C 0 km/h
1654 30-09-2010 18:50:01 12.3 C 9.77 g/m*3 12.3 C 0 km/h
1655 30-09-2010 19:02:02 12.2 C 9.71 g/m*3 12.2 C 0 km/h
1656 30-09-2010 19:14:02 12.1 C 9.76 g/m*3 12.1 C 0 km/h
1657 30-09-2010 19:26:02 12.1 C 9.76 g/m*3 12.1 C 0 km/h
1658 30-09-2010 19:38:02 12.2 C 9.82 g/m*3 12.2 C 0 km/h
1659 30-09-2010 19:50:02 12.1 C 9.87 g/m*3 12.1 C 0 km/h
1660 30-09-2010 20:02:02 12.2 C 9.93 g/m*3 12.2 C 0 km/h
1661 30-09-2010 20:14:02 12.2 C 9.93 g/m*3 12.2 C 0 km/h
1662 30-09-2010 20:26:02 12.1 C 9.87 g/m*3 12.1 C 0 km/h
1663 30-09-2010 20:38:01 12.1 C 9.87 g/m*3 12.1 C 0 km/h
1664 30-09-2010 20:50:02 12.2 C 10.04 g/m*3 12.2 C 0 km/h
1665 30-09-2010 21:02:01 12.1 C 9.97 g/m*3 12.1 C 0 km/h
1666 30-09-2010 21:14:01 12.1 C 9.97 g/m*3 12.1 C 0 km/h
1667 30-09-2010 21:26:02 12.1 C 9.97 g/m*3 12.1 C 0 km/h
1668 30-09-2010 21:38:01 12.1 C 9.97 g/m*3 12.1 C 0 km/h
1669 30-09-2010 21:50:02 12 C 9.91 g/m*3 12 C 0 km/h
1670 30-09-2010 22:02:02 12 C 9.91 g/m*3 12 C 0 km/h
1671 30-09-2010 22:14:02 12 C 9.91 g/m*3 12 C 0 km/h
1672 30-09-2010 22:26:02 11.9 C 9.96 g/m*3 11.9 C 0 km/h
1673 30-09-2010 22:38:02 11.9 C 9.96 g/m*3 11.9 C 0 km/h
1674 30-09-2010 22:50:01 12 C 9.91 g/m*3 12 C 0 km/h
1675 30-09-2010 23:03:03 12 C 9.91 g/m*3 12 C 0 km/h
Sensor: Nr:Datum:Temp:Abs-Feuchte:Windchill:Wind:
Aussen-T/F 1676 30-09-2010 23:15:03 11.9 C 9.96 g/m*3 11.9 C 0 km/h
1677 30-09-2010 23:27:03 12 C 10.02 g/m*3 12 C 0 km/h
1678 30-09-2010 23:39:03 12.1 C 10.08 g/m*3 12.1 C 0 km/h
1679 30-09-2010 23:51:03 12 C 10.02 g/m*3 12 C 0 km/h
1680 01-10-2010 00:03:03 12.1 C 10.08 g/m*3 12.1 C 0 km/h
1681 01-10-2010 00:15:03 12 C 10.02 g/m*3 12 C 0 km/h
1682 01-10-2010 00:27:03 12.1 C 10.08 g/m*3 12.1 C 0 km/h
1683 01-10-2010 00:39:03 12.1 C 10.08 g/m*3 12.1 C 0 km/h
1684 01-10-2010 00:51:03 11.8 C 10 g/m*3 11.8 C 0 km/h
1685 01-10-2010 01:03:03 11.6 C 9.87 g/m*3 11.6 C 0 km/h
1686 01-10-2010 01:15:04 11.7 C 9.94 g/m*3 11.7 C 0 km/h
1687 01-10-2010 01:27:04 11.6 C 9.87 g/m*3 11.6 C 0 km/h
1688 01-10-2010 01:39:04 11.5 C 9.81 g/m*3 11.5 C 0 km/h
1689 01-10-2010 01:51:04 11.5 C 9.81 g/m*3 11.5 C 0 km/h
1690 01-10-2010 02:03:04 11.5 C 9.81 g/m*3 11.5 C 0 km/h
1691 01-10-2010 02:15:04 11.4 C 9.75 g/m*3 11.4 C 0 km/h
1692 01-10-2010 02:27:04 11.4 C 9.75 g/m*3 11.4 C 0 km/h
1693 01-10-2010 02:39:04 11.4 C 9.75 g/m*3 11.4 C 0 km/h
1694 01-10-2010 02:51:04 11.5 C 9.81 g/m*3 11.5 C 0 km/h
1695 01-10-2010 03:03:04 11.5 C 9.81 g/m*3 11.5 C 0 km/h
1696 01-10-2010 03:15:04 11.5 C 9.81 g/m*3 11.5 C 0 km/h
1697 01-10-2010 03:27:04 11.5 C 9.81 g/m*3 11.5 C 0 km/h
1698 01-10-2010 03:39:04 11.5 C 9.81 g/m*3 11.5 C 0 km/h
1699 01-10-2010 03:51:04 11.8 C 10 g/m*3 11.8 C 0 km/h
1700 01-10-2010 04:03:04 11.7 C 9.94 g/m*3 11.7 C 0 km/h
Sensor: Nr:Datum:Temp:Abs-Feuchte:Windchill:Wind:
Aussen-T/F 1701 01-10-2010 04:15:04 11.7 C 9.94 g/m*3 11.7 C 0 km/h
1702 01-10-2010 04:27:04 11.7 C 9.94 g/m*3 11.7 C 0 km/h
1703 01-10-2010 04:39:04 11.7 C 9.94 g/m*3 11.7 C 0 km/h
1704 01-10-2010 04:51:04 11.7 C 9.94 g/m*3 11.7 C 0 km/h
1705 01-10-2010 05:03:04 11.7 C 9.94 g/m*3 11.7 C 0 km/h
1706 01-10-2010 05:15:04 11.7 C 9.94 g/m*3 11.7 C 0 km/h
1707 01-10-2010 05:27:04 11.7 C 9.94 g/m*3 11.7 C 0 km/h
1708 01-10-2010 05:39:04 11.5 C 9.81 g/m*3 11.5 C 0 km/h
1709 01-10-2010 05:51:05 11.5 C 9.81 g/m*3 11.5 C 0 km/h
1710 01-10-2010 06:03:05 11.4 C 9.75 g/m*3 11.4 C 0 km/h
1711 01-10-2010 06:15:05 11.4 C 9.75 g/m*3 11.4 C 0 km/h
1712 01-10-2010 06:27:05 11.4 C 9.75 g/m*3 11.4 C 0 km/h
1713 01-10-2010 06:39:05 11.4 C 9.75 g/m*3 11.4 C 0 km/h
1714 01-10-2010 06:51:05 11.4 C 9.75 g/m*3 11.4 C 0 km/h
1715 01-10-2010 07:03:05 11.3 C 9.69 g/m*3 11.3 C 0 km/h
1716 01-10-2010 07:15:02 11.3 C 9.69 g/m*3 11.3 C 0 km/h
1717 01-10-2010 07:27:02 11 C 9.51 g/m*3 11 C 0 km/h
1718 01-10-2010 07:39:02 10.8 C 9.39 g/m*3 10.8 C 0 km/h
1719 01-10-2010 07:51:02 10.6 C 9.27 g/m*3 10.6 C 0 km/h
1720 01-10-2010 08:03:02 10.4 C 9.16 g/m*3 10.4 C 0 km/h
1721 01-10-2010 08:15:02 10.3 C 9.1 g/m*3 10.3 C 0 km/h
1722 01-10-2010 08:27:02 10.2 C 9.04 g/m*3 10.2 C 0 km/h
1723 01-10-2010 08:39:02 10.2 C 9.04 g/m*3 10.2 C 0 km/h
1724 01-10-2010 08:51:02 10.4 C 9.16 g/m*3 10.4 C 0 km/h
1725 01-10-2010 09:03:02 10.7 C 9.33 g/m*3 10.7 C 0 km/h
Sensor: Nr:Datum:Temp:Abs-Feuchte:Windchill:Wind:
Aussen-T/F 1726 01-10-2010 09:15:01 11.1 C 9.57 g/m*3 11.1 C 0 km/h
1727 01-10-2010 09:27:01 11.3 C 9.69 g/m*3 11.3 C 0 km/h
1728 01-10-2010 09:39:02 11.4 C 9.75 g/m*3 11.4 C 0 km/h
1729 01-10-2010 09:51:02 11.7 C 9.94 g/m*3 11.7 C 0 km/h
1730 01-10-2010 10:03:02 11.7 C 9.94 g/m*3 11.7 C 0 km/h
1731 01-10-2010 10:15:02 11.7 C 9.83 g/m*3 11.7 C 0 km/h
1732 01-10-2010 10:27:02 11.6 C 9.56 g/m*3 11.6 C 0 km/h
1733 01-10-2010 10:39:02 11.7 C 9.52 g/m*3 11.7 C 0 km/h
1734 01-10-2010 10:51:02 11.9 C 9.32 g/m*3 11.9 C 0 km/h
1735 01-10-2010 11:03:02 12.1 C 9.12 g/m*3 12.1 C 0 km/h
1736 01-10-2010 11:15:02 12.2 C 8.85 g/m*3 12.2 C 0 km/h
1737 01-10-2010 11:27:02 12.5 C 8.91 g/m*3 12.5 C 0 km/h
1738 01-10-2010 11:39:02 12.5 C 8.69 g/m*3 12.5 C 0 km/h
1739 01-10-2010 11:51:02 13 C 8.62 g/m*3 13 C 0 km/h
1740 01-10-2010 12:03:02 12.8 C 8.51 g/m*3 12.8 C 0 km/h
1741 01-10-2010 12:15:02 12.8 C 8.62 g/m*3 12.8 C 0 km/h
1742 01-10-2010 12:27:02 12.7 C 8.46 g/m*3 12.7 C 0 km/h
1743 01-10-2010 12:39:02 12.4 C 8.41 g/m*3 12.4 C 0 km/h
1744 01-10-2010 12:51:02 12.7 C 8.46 g/m*3 12.7 C 0 km/h
1745 01-10-2010 13:03:01 12.8 C 8.4 g/m*3 12.8 C 0 km/h
1746 01-10-2010 13:15:02 13.3 C 8.32 g/m*3 13.3 C 0 km/h
1747 01-10-2010 13:27:02 13.4 C 8.14 g/m*3 13.4 C 0 km/h
1748 01-10-2010 13:39:01 13.1 C 7.76 g/m*3 13.1 C 0 km/h
1749 01-10-2010 13:51:02 13.3 C 7.97 g/m*3 13.3 C 0 km/h
1750 01-10-2010 14:03:01 13.1 C 7.87 g/m*3 13.1 C 0 km/h
Sensor: Nr:Datum:Temp:Abs-Feuchte:Windchill:Wind:
Aussen-T/F 1751 01-10-2010 14:15:01 13.2 C 8.04 g/m*3 13.2 C 0 km/h
1752 01-10-2010 14:27:01 13.3 C 7.86 g/m*3 13.3 C 0 km/h
1753 01-10-2010 14:39:02 13.2 C 7.92 g/m*3 13.2 C 0 km/h
1754 01-10-2010 14:51:02 13.8 C 7.98 g/m*3 13.8 C 0 km/h
1755 01-10-2010 15:03:02 14.4 C 7.91 g/m*3 14.4 C 0 km/h
1756 01-10-2010 15:15:02 15.2 C 7.92 g/m*3 15.2 C 0 km/h
1757 01-10-2010 15:27:02 15.3 C 7.7 g/m*3 15.3 C 0 km/h
1758 01-10-2010 15:39:02 15.7 C 7.76 g/m*3 15.7 C 0 km/h
1759 01-10-2010 15:51:02 15.9 C 7.58 g/m*3 15.9 C 0 km/h
1760 01-10-2010 16:03:02 16 C 7.49 g/m*3 16 C 0 km/h
1761 01-10-2010 16:15:02 16.2 C 7.17 g/m*3 16.2 C 0 km/h
1762 01-10-2010 16:27:02 17.1 C 7.42 g/m*3 17.1 C 0 km/h
1763 01-10-2010 16:39:02 17.2 C 7.91 g/m*3 17.2 C 0 km/h
1764 01-10-2010 16:51:02 17.2 C 8.05 g/m*3 17.2 C 0 km/h
1765 01-10-2010 17:03:02 17.5 C 7.9 g/m*3 17.5 C 0 km/h
1766 01-10-2010 17:15:02 16.6 C 8.19 g/m*3 16.6 C 0 km/h
1767 01-10-2010 17:27:02 16 C 8.31 g/m*3 16 C 0 km/h
1768 01-10-2010 17:39:02 15.4 C 8.54 g/m*3 15.4 C 0 km/h
1769 01-10-2010 17:51:02 15.2 C 8.7 g/m*3 15.2 C 0 km/h
1770 01-10-2010 18:03:02 14.8 C 8.74 g/m*3 14.8 C 0 km/h
1771 01-10-2010 18:15:02 14.7 C 8.94 g/m*3 14.7 C 0 km/h
1772 01-10-2010 18:27:02 14.5 C 8.83 g/m*3 14.5 C 0 km/h
1773 01-10-2010 18:39:01 14.1 C 8.74 g/m*3 14.1 C 0 km/h
1774 01-10-2010 18:51:02 13.6 C 8.71 g/m*3 13.6 C 0 km/h
1775 01-10-2010 19:03:01 12.8 C 8.62 g/m*3 12.8 C 0 km/h
Sensor: Nr:Datum:Temp:Abs-Feuchte:Windchill:Wind:
Aussen-T/F 1776 01-10-2010 19:15:02 12.5 C 8.58 g/m*3 12.5 C 0 km/h
1777 01-10-2010 19:27:02 12.2 C 8.52 g/m*3 12.2 C 0 km/h
1778 01-10-2010 19:39:02 11.8 C 8.53 g/m*3 11.8 C 0 km/h
1779 01-10-2010 19:51:02 11.6 C 8.52 g/m*3 11.6 C 0 km/h
1780 01-10-2010 20:03:02 11.4 C 8.42 g/m*3 11.4 C 0 km/h
1781 01-10-2010 20:15:02 11.3 C 8.47 g/m*3 11.3 C 0 km/h
1782 01-10-2010 20:27:02 11.2 C 8.51 g/m*3 11.2 C 0 km/h
1783 01-10-2010 20:39:02 11.2 C 8.51 g/m*3 11.2 C 0 km/h
1784 01-10-2010 20:51:01 11.2 C 8.62 g/m*3 11.2 C 0 km/h
1785 01-10-2010 21:03:02 11.1 C 8.56 g/m*3 11.1 C 0 km/h
1786 01-10-2010 21:15:01 11 C 8.51 g/m*3 11 C 0 km/h
1787 01-10-2010 21:27:01 10.8 C 8.5 g/m*3 10.8 C 0 km/h
1788 01-10-2010 21:39:01 10.7 C 8.55 g/m*3 10.7 C 0 km/h
1789 01-10-2010 21:51:01 10.7 C 8.55 g/m*3 10.7 C 0 km/h
1790 01-10-2010 22:03:02 10.8 C 8.7 g/m*3 10.8 C 0 km/h
1791 01-10-2010 22:15:02 10.9 C 8.75 g/m*3 10.9 C 0 km/h
1792 01-10-2010 22:27:02 11 C 8.81 g/m*3 11 C 0 km/h
1793 01-10-2010 22:39:01 11.1 C 8.76 g/m*3 11.1 C 0 km/h
1794 01-10-2010 22:52:04 11.1 C 8.76 g/m*3 11.1 C 0 km/h
1795 01-10-2010 23:04:04 11.1 C 8.76 g/m*3 11.1 C 0 km/h
1796 01-10-2010 23:16:04 11.1 C 8.76 g/m*3 11.1 C 0 km/h
1797 01-10-2010 23:28:04 11 C 8.71 g/m*3 11 C 0 km/h
1798 01-10-2010 23:40:04 11 C 8.71 g/m*3 11 C 0 km/h
1799 01-10-2010 23:52:04 11.1 C 8.76 g/m*3 11.1 C 0 km/h
1800 02-10-2010 00:04:04 11.2 C 8.82 g/m*3 11.2 C 0 km/h
Sensor: Nr:Datum:Temp:Abs-Feuchte:Windchill:Wind:
Aussen-T/F 1801 02-10-2010 00:16:04 11.2 C 8.72 g/m*3 11.2 C 0 km/h
1802 02-10-2010 00:28:04 11.2 C 8.72 g/m*3 11.2 C 0 km/h
1803 02-10-2010 00:40:04 11.1 C 8.66 g/m*3 11.1 C 0 km/h
1804 02-10-2010 00:52:04 10.9 C 8.65 g/m*3 10.9 C 0 km/h
1805 02-10-2010 01:04:04 10.9 C 8.65 g/m*3 10.9 C 0 km/h
1806 02-10-2010 01:16:04 11 C 8.71 g/m*3 11 C 0 km/h
1807 02-10-2010 01:28:05 10.9 C 8.75 g/m*3 10.9 C 0 km/h
1808 02-10-2010 01:40:05 11 C 8.81 g/m*3 11 C 0 km/h
1809 02-10-2010 01:52:05 10.8 C 8.8 g/m*3 10.8 C 0 km/h
1810 02-10-2010 02:04:05 10.8 C 8.8 g/m*3 10.8 C 0 km/h
1811 02-10-2010 02:16:05 10.8 C 8.9 g/m*3 10.8 C 0 km/h
1812 02-10-2010 02:28:05 11 C 9.01 g/m*3 11 C 0 km/h
1813 02-10-2010 02:40:05 11.1 C 9.07 g/m*3 11.1 C 0 km/h
1814 02-10-2010 02:52:05 11.1 C 9.07 g/m*3 11.1 C 0 km/h
1815 02-10-2010 03:04:05 11.1 C 9.07 g/m*3 11.1 C 0 km/h
1816 02-10-2010 03:16:05 11.1 C 9.17 g/m*3 11.1 C 0 km/h
1817 02-10-2010 03:28:05 11.1 C 9.17 g/m*3 11.1 C 0 km/h
1818 02-10-2010 03:40:05 11.1 C 9.17 g/m*3 11.1 C 0 km/h
1819 02-10-2010 03:52:05 11.1 C 9.17 g/m*3 11.1 C 0 km/h
1820 02-10-2010 04:04:05 11.1 C 9.27 g/m*3 11.1 C 0 km/h
1821 02-10-2010 04:16:05 11.1 C 9.27 g/m*3 11.1 C 0 km/h
1822 02-10-2010 04:28:05 11.1 C 9.27 g/m*3 11.1 C 0 km/h
1823 02-10-2010 04:40:05 11.1 C 9.27 g/m*3 11.1 C 0 km/h
1824 02-10-2010 04:52:05 11 C 9.21 g/m*3 11 C 0 km/h
1825 02-10-2010 05:04:05 11 C 9.21 g/m*3 11 C 0 km/h
Sensor: Nr:Datum:Temp:Abs-Feuchte:Windchill:Wind:
Aussen-T/F 1826 02-10-2010 05:16:05 11 C 9.31 g/m*3 11 C 0 km/h
1827 02-10-2010 05:28:05 11 C 9.31 g/m*3 11 C 0 km/h
1828 02-10-2010 05:40:05 10.9 C 9.35 g/m*3 10.9 C 0 km/h
1829 02-10-2010 05:52:05 11 C 9.31 g/m*3 11 C 0 km/h
1830 02-10-2010 06:04:06 11 C 9.31 g/m*3 11 C 0 km/h
1831 02-10-2010 06:16:06 11 C 9.41 g/m*3 11 C 0 km/h
1832 02-10-2010 06:28:06 11 C 9.41 g/m*3 11 C 0 km/h
1833 02-10-2010 06:40:06 11 C 9.41 g/m*3 11 C 0 km/h
1834 02-10-2010 06:52:06 11 C 9.41 g/m*3 11 C 0 km/h
1835 02-10-2010 07:04:06 11 C 9.41 g/m*3 11 C 0 km/h
1836 02-10-2010 07:16:06 11.1 C 9.47 g/m*3 11.1 C 0 km/h
1837 02-10-2010 07:28:06 11.2 C 9.63 g/m*3 11.2 C 0 km/h
1838 02-10-2010 07:40:03 11.2 C 9.63 g/m*3 11.2 C 0 km/h
1839 02-10-2010 07:52:02 11.2 C 9.63 g/m*3 11.2 C 0 km/h
1840 02-10-2010 08:04:02 11.3 C 9.69 g/m*3 11.3 C 0 km/h
1841 02-10-2010 08:16:03 11.3 C 9.69 g/m*3 11.3 C 0 km/h
1842 02-10-2010 08:28:03 11.4 C 9.75 g/m*3 11.4 C 0 km/h
1843 02-10-2010 08:40:02 11.5 C 9.81 g/m*3 11.5 C 0 km/h
1844 02-10-2010 08:52:02 11.8 C 10 g/m*3 11.8 C 0 km/h
1845 02-10-2010 09:04:02 11.8 C 10 g/m*3 11.8 C 0 km/h
1846 02-10-2010 09:16:02 11.8 C 10 g/m*3 11.8 C 0 km/h
1847 02-10-2010 09:28:02 12 C 10.12 g/m*3 12 C 0 km/h
1848 02-10-2010 09:40:02 12.1 C 10.19 g/m*3 12.1 C 0 km/h
1849 02-10-2010 09:52:02 12.3 C 10.32 g/m*3 12.3 C 0 km/h
1850 02-10-2010 10:04:02 12.6 C 10.51 g/m*3 12.6 C 0 km/h
Sensor: Nr:Datum:Temp:Abs-Feuchte:Windchill:Wind:
Aussen-T/F 1851 02-10-2010 10:16:02 13 C 10.66 g/m*3 13 C 0 km/h
1852 02-10-2010 10:28:02 13 C 10.66 g/m*3 13 C 0 km/h
1853 02-10-2010 10:40:01 13.3 C 10.86 g/m*3 13.3 C 0 km/h
1854 02-10-2010 10:52:02 13.8 C 11.08 g/m*3 13.8 C 0 km/h
1855 02-10-2010 11:04:01 14 C 11.1 g/m*3 14 C 0 km/h
1856 02-10-2010 11:16:01 14.4 C 11.37 g/m*3 14.4 C 0 km/h
1857 02-10-2010 11:28:01 14.4 C 11.37 g/m*3 14.4 C 0 km/h
1858 02-10-2010 11:40:02 14.4 C 11.25 g/m*3 14.4 C 0 km/h
1859 02-10-2010 11:52:02 14.4 C 11.25 g/m*3 14.4 C 0 km/h
1860 02-10-2010 12:04:02 14.5 C 11.32 g/m*3 14.5 C 0 km/h
1861 02-10-2010 12:16:02 14.7 C 11.46 g/m*3 14.7 C 0 km/h
1862 02-10-2010 12:28:02 15.2 C 11.68 g/m*3 15.2 C 0 km/h
1863 02-10-2010 12:40:02 15.4 C 11.69 g/m*3 15.4 C 0 km/h
1864 02-10-2010 12:52:02 15.4 C 11.43 g/m*3 15.4 C 0 km/h
1865 02-10-2010 13:04:02 15.5 C 11.5 g/m*3 15.5 C 0 km/h
1866 02-10-2010 13:16:02 15.6 C 11.57 g/m*3 15.6 C 0 km/h
1867 02-10-2010 13:28:02 15.7 C 11.64 g/m*3 15.7 C 0 km/h
1868 02-10-2010 13:40:02 15.9 C 11.65 g/m*3 15.9 C 0 km/h
1869 02-10-2010 13:52:01 16 C 11.31 g/m*3 16 C 0 km/h
1870 02-10-2010 14:04:01 15.7 C 11.24 g/m*3 15.7 C 0 km/h
1871 02-10-2010 14:16:02 15.4 C 11.17 g/m*3 15.4 C 0 km/h
1872 02-10-2010 14:28:02 15.4 C 11.3 g/m*3 15.4 C 0 km/h
1873 02-10-2010 14:40:01 15.7 C 11.64 g/m*3 15.7 C 0 km/h
1874 02-10-2010 14:52:03 16 C 11.72 g/m*3 16 C 0 km/h
1875 02-10-2010 15:04:02 15.8 C 11.71 g/m*3 15.8 C 0 km/h
Sensor: Nr:Datum:Temp:Abs-Feuchte:Windchill:Wind:
Aussen-T/F 1876 02-10-2010 15:16:02 15.9 C 11.65 g/m*3 15.9 C 0 km/h
1877 02-10-2010 15:28:02 16 C 11.44 g/m*3 16 C 0 km/h
1878 02-10-2010 15:40:02 16.2 C 11.31 g/m*3 16.2 C 0 km/h
1879 02-10-2010 15:52:02 16.1 C 11.24 g/m*3 16.1 C 0 km/h
1880 02-10-2010 16:04:02 16.2 C 11.31 g/m*3 16.2 C 0 km/h
1881 02-10-2010 16:16:02 16.1 C 10.97 g/m*3 16.1 C 0 km/h
1882 02-10-2010 16:28:02 16.2 C 11.03 g/m*3 16.2 C 0 km/h
1883 02-10-2010 16:40:02 16.4 C 11.17 g/m*3 16.4 C 0 km/h
1884 02-10-2010 16:52:02 16.3 C 10.96 g/m*3 16.3 C 0 km/h
1885 02-10-2010 17:04:01 16.4 C 11.03 g/m*3 16.4 C 0 km/h
1886 02-10-2010 17:16:01 16.3 C 10.82 g/m*3 16.3 C 0 km/h
1887 02-10-2010 17:28:01 16.3 C 10.96 g/m*3 16.3 C 0 km/h
1888 02-10-2010 17:40:02 16.3 C 10.96 g/m*3 16.3 C 0 km/h
1889 02-10-2010 17:52:02 16.1 C 10.83 g/m*3 16.1 C 0 km/h
1890 02-10-2010 18:04:02 15.9 C 10.97 g/m*3 15.9 C 0 km/h
1891 02-10-2010 18:16:02 15.6 C 10.91 g/m*3 15.6 C 0 km/h
1892 02-10-2010 18:28:02 15.3 C 10.84 g/m*3 15.3 C 0 km/h
1893 02-10-2010 18:40:02 15.2 C 10.9 g/m*3 15.2 C 0 km/h
1894 02-10-2010 18:52:02 15.1 C 10.97 g/m*3 15.1 C 0 km/h
1895 02-10-2010 19:04:02 15 C 10.9 g/m*3 15 C 0 km/h
1896 02-10-2010 19:16:02 15 C 10.9 g/m*3 15 C 0 km/h
1897 02-10-2010 19:28:02 15 C 10.9 g/m*3 15 C 0 km/h
1898 02-10-2010 19:40:02 14.9 C 10.96 g/m*3 14.9 C 0 km/h
1899 02-10-2010 19:52:01 14.8 C 11.02 g/m*3 14.8 C 0 km/h
1900 02-10-2010 20:04:01 14.8 C 11.02 g/m*3 14.8 C 0 km/h
Sensor: Nr:Datum:Temp:Abs-Feuchte:Windchill:Wind:
Aussen-T/F 1901 02-10-2010 20:16:02 14.9 C 11.22 g/m*3 14.9 C 0 km/h
1902 02-10-2010 20:28:02 14.9 C 11.22 g/m*3 14.9 C 0 km/h
1903 02-10-2010 20:40:01 14.8 C 11.02 g/m*3 14.8 C 0 km/h
1904 02-10-2010 20:52:01 14.6 C 11.01 g/m*3 14.6 C 0 km/h
1905 02-10-2010 21:04:01 14.6 C 11.01 g/m*3 14.6 C 0 km/h
1906 02-10-2010 21:16:02 14.5 C 10.94 g/m*3 14.5 C 0 km/h
1907 02-10-2010 21:28:02 14.5 C 11.07 g/m*3 14.5 C 0 km/h
1908 02-10-2010 21:40:01 14.5 C 11.07 g/m*3 14.5 C 0 km/h
1909 02-10-2010 21:53:02 14.4 C 11 g/m*3 14.4 C 0 km/h
1910 02-10-2010 22:05:02 14.4 C 11 g/m*3 14.4 C 0 km/h
1911 02-10-2010 22:17:02 14.4 C 11.13 g/m*3 14.4 C 0 km/h
1912 02-10-2010 22:29:02 14.4 C 11.13 g/m*3 14.4 C 0 km/h
1913 02-10-2010 22:41:02 14.5 C 11.19 g/m*3 14.5 C 0 km/h
1914 02-10-2010 22:53:02 14.7 C 11.33 g/m*3 14.7 C 0 km/h
1915 02-10-2010 23:05:02 14.7 C 11.33 g/m*3 14.7 C 0 km/h
1916 02-10-2010 23:17:02 14.6 C 11.14 g/m*3 14.6 C 0 km/h
1917 02-10-2010 23:29:03 14.5 C 11.07 g/m*3 14.5 C 0 km/h
1918 02-10-2010 23:41:03 14.5 C 11.07 g/m*3 14.5 C 0 km/h
1919 02-10-2010 23:53:03 14.5 C 11.07 g/m*3 14.5 C 0 km/h
1920 03-10-2010 00:05:03 14.6 C 11.14 g/m*3 14.6 C 0 km/h
1921 03-10-2010 00:17:03 14.4 C 11 g/m*3 14.4 C 0 km/h
1922 03-10-2010 00:29:03 14.3 C 10.93 g/m*3 14.3 C 0 km/h
1923 03-10-2010 00:41:03 14.4 C 11.13 g/m*3 14.4 C 0 km/h
1924 03-10-2010 00:53:03 14.5 C 11.19 g/m*3 14.5 C 0 km/h
1925 03-10-2010 01:05:03 14.5 C 11.07 g/m*3 14.5 C 0 km/h
Sensor: Nr:Datum:Temp:Abs-Feuchte:Windchill:Wind:
Aussen-T/F 1926 03-10-2010 01:17:03 14.6 C 10.89 g/m*3 14.6 C 0 km/h
1927 03-10-2010 01:29:03 14.7 C 10.58 g/m*3 14.7 C 0 km/h
1928 03-10-2010 01:41:03 14.8 C 10.51 g/m*3 14.8 C 0 km/h
1929 03-10-2010 01:53:03 14.9 C 10.45 g/m*3 14.9 C 0 km/h
1930 03-10-2010 02:05:03 15 C 10.26 g/m*3 15 C 0 km/h
1931 03-10-2010 02:17:03 14.8 C 10.39 g/m*3 14.8 C 0 km/h
1932 03-10-2010 02:29:03 14.6 C 10.39 g/m*3 14.6 C 0 km/h
1933 03-10-2010 02:41:03 14.4 C 10.26 g/m*3 14.4 C 0 km/h
1934 03-10-2010 02:53:03 14.1 C 10.32 g/m*3 14.1 C 0 km/h
1935 03-10-2010 03:05:03 14 C 10.37 g/m*3 14 C 0 km/h
1936 03-10-2010 03:17:03 13.8 C 10.48 g/m*3 13.8 C 0 km/h
1937 03-10-2010 03:29:04 13.8 C 10.6 g/m*3 13.8 C 0 km/h
1938 03-10-2010 03:41:04 13.9 C 10.67 g/m*3 13.9 C 0 km/h
1939 03-10-2010 03:53:04 14.1 C 10.8 g/m*3 14.1 C 0 km/h
1940 03-10-2010 04:05:04 14 C 10.74 g/m*3 14 C 0 km/h
1941 03-10-2010 04:17:04 14.1 C 10.68 g/m*3 14.1 C 0 km/h
1942 03-10-2010 04:29:04 14 C 10.61 g/m*3 14 C 0 km/h
1943 03-10-2010 04:41:04 14 C 10.49 g/m*3 14 C 0 km/h
1944 03-10-2010 04:53:04 14.3 C 10.57 g/m*3 14.3 C 0 km/h
1945 03-10-2010 05:05:04 14.3 C 10.44 g/m*3 14.3 C 0 km/h
1946 03-10-2010 05:17:04 14.4 C 10.38 g/m*3 14.4 C 0 km/h
1947 03-10-2010 05:29:04 14.4 C 10.38 g/m*3 14.4 C 0 km/h
1948 03-10-2010 05:41:04 14.2 C 10.26 g/m*3 14.2 C 0 km/h
1949 03-10-2010 05:53:04 14 C 10.25 g/m*3 14 C 0 km/h
1950 03-10-2010 06:05:04 13.8 C 10.37 g/m*3 13.8 C 0 km/h
Sensor: Nr:Datum:Temp:Abs-Feuchte:Windchill:Wind:
Aussen-T/F 1951 03-10-2010 06:17:04 13.5 C 10.18 g/m*3 13.5 C 0 km/h
1952 03-10-2010 06:29:04 13.4 C 10.23 g/m*3 13.4 C 0 km/h
1953 03-10-2010 06:41:04 13.3 C 10.17 g/m*3 13.3 C 0 km/h
1954 03-10-2010 06:53:04 13.3 C 10.28 g/m*3 13.3 C 0 km/h
1955 03-10-2010 07:05:04 13.3 C 10.28 g/m*3 13.3 C 0 km/h
1956 03-10-2010 07:17:04 13.4 C 10.46 g/m*3 13.4 C 0 km/h
1957 03-10-2010 07:29:04 13.4 C 10.46 g/m*3 13.4 C 0 km/h
1958 03-10-2010 07:41:05 13.5 C 10.53 g/m*3 13.5 C 0 km/h
1959 03-10-2010 07:53:02 13.5 C 10.41 g/m*3 13.5 C 0 km/h
1960 03-10-2010 08:05:01 13.7 C 10.42 g/m*3 13.7 C 0 km/h
1961 03-10-2010 08:17:02 13.9 C 10.43 g/m*3 13.9 C 0 km/h
1962 03-10-2010 08:29:02 13.9 C 10.43 g/m*3 13.9 C 0 km/h
1963 03-10-2010 08:41:01 14.1 C 10.44 g/m*3 14.1 C 0 km/h
1964 03-10-2010 08:53:03 14.3 C 10.32 g/m*3 14.3 C 0 km/h
1965 03-10-2010 09:05:02 14.8 C 10.26 g/m*3 14.8 C 0 km/h
1966 03-10-2010 09:17:02 15 C 10 g/m*3 15 C 0 km/h
1967 03-10-2010 09:29:03 15.1 C 9.93 g/m*3 15.1 C 0 km/h
1968 03-10-2010 09:41:02 15.2 C 10.12 g/m*3 15.2 C 0 km/h
1969 03-10-2010 09:53:02 15.5 C 10.05 g/m*3 15.5 C 0 km/h
1970 03-10-2010 10:05:02 16.2 C 10.2 g/m*3 16.2 C 0 km/h
1971 03-10-2010 10:17:02 16.9 C 9.92 g/m*3 16.9 C 0 km/h
1972 03-10-2010 10:29:03 17 C 9.69 g/m*3 17 C 0 km/h
1973 03-10-2010 10:41:01 17 C 9.84 g/m*3 17 C 0 km/h
1974 03-10-2010 10:53:02 16.8 C 9.87 g/m*3 16.8 C 0 km/h
1975 03-10-2010 11:05:01 17.2 C 9.81 g/m*3 17.2 C 0 km/h
Sensor: Nr:Datum:Temp:Abs-Feuchte:Windchill:Wind:
Aussen-T/F 1976 03-10-2010 11:17:02 17.6 C 10.35 g/m*3 17.6 C 0 km/h
1977 03-10-2010 11:29:02 17.9 C 10.23 g/m*3 17.9 C 0 km/h
1978 03-10-2010 11:41:02 18.5 C 9.97 g/m*3 18.5 C 0 km/h
1979 03-10-2010 11:53:02 19.5 C 10.24 g/m*3 19.5 C 0 km/h
1980 03-10-2010 12:05:03 19.7 C 9.85 g/m*3 19.7 C 0 km/h
1981 03-10-2010 12:17:02 19.7 C 10.02 g/m*3 19.7 C 0 km/h
1982 03-10-2010 12:29:02 19.3 C 9.45 g/m*3 19.3 C 0 km/h
1983 03-10-2010 12:41:02 19.7 C 9.68 g/m*3 19.7 C 0 km/h
1984 03-10-2010 12:53:01 20 C 9.68 g/m*3 20 C 0 km/h
1985 03-10-2010 13:05:02 20.7 C 9.9 g/m*3 20.7 C 0 km/h
1986 03-10-2010 13:17:01 21.1 C 9.58 g/m*3 21.1 C 0 km/h
1987 03-10-2010 13:29:01 21.5 C 9.62 g/m*3 21.5 C 0 km/h
1988 03-10-2010 13:41:01 21.7 C 8.97 g/m*3 21.7 C 0 km/h
1989 03-10-2010 13:53:01 21.8 C 9.02 g/m*3 21.8 C 0 km/h
1990 03-10-2010 14:05:02 22.2 C 8.83 g/m*3 22.2 C 0 km/h
1991 03-10-2010 14:17:01 22.7 C 9.5 g/m*3 22.7 C 0 km/h
1992 03-10-2010 14:29:01 23.2 C 9.15 g/m*3 23.2 C 0 km/h
1993 03-10-2010 14:41:01 24.4 C 9.12 g/m*3 24.4 C 0 km/h
1994 03-10-2010 14:53:01 24.2 C 8.8 g/m*3 24.2 C 0 km/h
1995 03-10-2010 15:05:02 24.4 C 8.68 g/m*3 24.4 C 0 km/h
1996 03-10-2010 15:17:02 24.4 C 8.68 g/m*3 24.4 C 0 km/h
1997 03-10-2010 15:29:02 24.5 C 8.5 g/m*3 24.5 C 0 km/h
1998 03-10-2010 15:41:01 24.9 C 8.7 g/m*3 24.9 C 0 km/h
1999 03-10-2010 15:53:02 25.4 C 8.48 g/m*3 25.4 C 0 km/h
2000 03-10-2010 16:05:01 24.6 C 8.33 g/m*3 24.6 C 0 km/h
Sensor: Nr:Datum:Temp:Abs-Feuchte:Windchill:Wind:
Aussen-T/F 2001 03-10-2010 16:17:02 24.7 C 8.37 g/m*3 24.7 C 0 km/h
2002 03-10-2010 16:29:02 25.1 C 8.57 g/m*3 25.1 C 0 km/h
2003 03-10-2010 16:41:01 25.4 C 8.95 g/m*3 25.4 C 0 km/h
2004 03-10-2010 16:53:03 25.8 C 9.15 g/m*3 25.8 C 0 km/h
2005 03-10-2010 17:05:02 26.1 C 9.3 g/m*3 26.1 C 0 km/h
2006 03-10-2010 17:17:02 25.6 C 9.05 g/m*3 25.6 C 0 km/h
2007 03-10-2010 17:29:02 25.6 C 9.52 g/m*3 25.6 C 0 km/h
2008 03-10-2010 17:41:03 24.4 C 9.35 g/m*3 24.4 C 0 km/h
2009 03-10-2010 17:53:02 24.4 C 9.57 g/m*3 24.4 C 0 km/h
2010 03-10-2010 18:05:01 23.6 C 10.21 g/m*3 23.6 C 0 km/h
2011 03-10-2010 18:17:02 22.5 C 10.39 g/m*3 22.5 C 0 km/h
2012 03-10-2010 18:29:02 21.4 C 10.5 g/m*3 21.4 C 0 km/h
2013 03-10-2010 18:41:02 20.4 C 10.61 g/m*3 20.4 C 0 km/h
2014 03-10-2010 18:53:02 19.8 C 10.76 g/m*3 19.8 C 0 km/h
2015 03-10-2010 19:05:03 19.3 C 10.95 g/m*3 19.3 C 0 km/h
2016 03-10-2010 19:17:02 19 C 10.76 g/m*3 19 C 0 km/h
2017 03-10-2010 19:29:02 18.9 C 10.85 g/m*3 18.9 C 0 km/h
2018 03-10-2010 19:41:02 18.4 C 10.85 g/m*3 18.4 C 0 km/h
2019 03-10-2010 19:53:01 18.3 C 10.79 g/m*3 18.3 C 0 km/h
2020 03-10-2010 20:05:02 18.1 C 10.82 g/m*3 18.1 C 0 km/h
2021 03-10-2010 20:17:01 18.5 C 10.92 g/m*3 18.5 C 0 km/h
2022 03-10-2010 20:29:01 18.4 C 10.85 g/m*3 18.4 C 0 km/h
2023 03-10-2010 20:41:02 18.4 C 10.85 g/m*3 18.4 C 0 km/h
2024 03-10-2010 20:53:01 18.3 C 10.94 g/m*3 18.3 C 0 km/h
2025 03-10-2010 21:05:02 18.3 C 10.94 g/m*3 18.3 C 0 km/h
Sensor: Nr:Datum:Temp:Abs-Feuchte:Windchill:Wind:
Aussen-T/F 2026 03-10-2010 21:17:02 18.1 C 10.97 g/m*3 18.1 C 0 km/h
2027 03-10-2010 21:29:02 17.9 C 11.15 g/m*3 17.9 C 0 km/h
2028 03-10-2010 21:41:02 17.8 C 11.08 g/m*3 17.8 C 0 km/h
2029 03-10-2010 21:53:01 17.7 C 11.01 g/m*3 17.7 C 0 km/h
2030 03-10-2010 22:05:01 17.6 C 11.1 g/m*3 17.6 C 0 km/h
2031 03-10-2010 22:17:02 17.5 C 11.03 g/m*3 17.5 C 0 km/h
2032 03-10-2010 22:29:02 17.5 C 10.88 g/m*3 17.5 C 0 km/h
2033 03-10-2010 22:41:01 17.6 C 10.8 g/m*3 17.6 C 0 km/h
2034 03-10-2010 22:53:02 17.6 C 10.5 g/m*3 17.6 C 0 km/h
2035 03-10-2010 23:05:01 17.5 C 10.44 g/m*3 17.5 C 0 km/h
2036 03-10-2010 23:18:06 17.6 C 10.5 g/m*3 17.6 C 0 km/h
2037 03-10-2010 23:30:07 17.6 C 10.35 g/m*3 17.6 C 0 km/h
2038 03-10-2010 23:42:07 17.6 C 10.2 g/m*3 17.6 C 0 km/h
2039 03-10-2010 23:54:07 17.5 C 10.14 g/m*3 17.5 C 0 km/h
2040 04-10-2010 00:06:07 17.4 C 9.93 g/m*3 17.4 C 0 km/h
2041 04-10-2010 00:18:07 17.4 C 9.93 g/m*3 17.4 C 0 km/h
2042 04-10-2010 00:30:07 17.2 C 9.81 g/m*3 17.2 C 0 km/h
2043 04-10-2010 00:42:07 17.2 C 9.81 g/m*3 17.2 C 0 km/h
2044 04-10-2010 00:54:07 17.2 C 9.81 g/m*3 17.2 C 0 km/h
2045 04-10-2010 01:06:07 17.2 C 9.81 g/m*3 17.2 C 0 km/h
2046 04-10-2010 01:18:07 17.2 C 9.67 g/m*3 17.2 C 0 km/h
2047 04-10-2010 01:30:07 17.2 C 9.52 g/m*3 17.2 C 0 km/h
2048 04-10-2010 01:42:07 17.2 C 9.52 g/m*3 17.2 C 0 km/h
2049 04-10-2010 01:54:07 17.1 C 9.46 g/m*3 17.1 C 0 km/h
2050 04-10-2010 02:06:07 17 C 9.55 g/m*3 17 C 0 km/h
Sensor: Nr:Datum:Temp:Abs-Feuchte:Windchill:Wind:
Aussen-T/F 2051 04-10-2010 02:18:07 16.9 C 9.64 g/m*3 16.9 C 0 km/h
2052 04-10-2010 02:30:07 16.8 C 9.72 g/m*3 16.8 C 0 km/h
2053 04-10-2010 02:42:07 16.8 C 9.58 g/m*3 16.8 C 0 km/h
2054 04-10-2010 02:54:07 16.6 C 9.75 g/m*3 16.6 C 0 km/h
2055 04-10-2010 03:06:07 16.4 C 9.77 g/m*3 16.4 C 0 km/h
2056 04-10-2010 03:18:07 15.9 C 10.02 g/m*3 15.9 C 0 km/h
2057 04-10-2010 03:30:08 15.6 C 9.97 g/m*3 15.6 C 0 km/h
2058 04-10-2010 03:42:08 15.5 C 10.05 g/m*3 15.5 C 0 km/h
2059 04-10-2010 03:54:08 15.4 C 9.99 g/m*3 15.4 C 0 km/h
2060 04-10-2010 04:06:08 15.3 C 9.92 g/m*3 15.3 C 0 km/h
2061 04-10-2010 04:18:08 15.2 C 9.99 g/m*3 15.2 C 0 km/h
2062 04-10-2010 04:30:08 15.2 C 9.99 g/m*3 15.2 C 0 km/h
2063 04-10-2010 04:42:08 15 C 10 g/m*3 15 C 0 km/h
2064 04-10-2010 04:54:08 14.8 C 10.01 g/m*3 14.8 C 0 km/h
2065 04-10-2010 05:06:08 14.6 C 10.01 g/m*3 14.6 C 0 km/h
2066 04-10-2010 05:18:08 14.4 C 9.89 g/m*3 14.4 C 0 km/h
2067 04-10-2010 05:30:08 14.3 C 9.95 g/m*3 14.3 C 0 km/h
2068 04-10-2010 05:42:08 14.1 C 9.95 g/m*3 14.1 C 0 km/h
2069 04-10-2010 05:54:08 14.1 C 9.95 g/m*3 14.1 C 0 km/h
2070 04-10-2010 06:06:08 14.2 C 10.01 g/m*3 14.2 C 0 km/h
2071 04-10-2010 06:18:08 13.9 C 10.07 g/m*3 13.9 C 0 km/h
2072 04-10-2010 06:30:08 14 C 9.89 g/m*3 14 C 0 km/h
2073 04-10-2010 06:42:08 13.8 C 9.89 g/m*3 13.8 C 0 km/h
2074 04-10-2010 06:54:08 13.7 C 9.83 g/m*3 13.7 C 0 km/h
2075 04-10-2010 07:06:03 13.8 C 10.01 g/m*3 13.8 C 0 km/h
Sensor: Nr:Datum:Temp:Abs-Feuchte:Windchill:Wind:
Aussen-T/F 2076 04-10-2010 07:18:02 13.7 C 9.83 g/m*3 13.7 C 0 km/h
2077 04-10-2010 07:30:02 13.5 C 9.71 g/m*3 13.5 C 0 km/h
2078 04-10-2010 07:42:03 13.5 C 9.71 g/m*3 13.5 C 0 km/h
2079 04-10-2010 07:54:02 13.6 C 9.89 g/m*3 13.6 C 0 km/h
2080 04-10-2010 08:06:02 13.8 C 9.89 g/m*3 13.8 C 0 km/h
2081 04-10-2010 08:18:02 14.1 C 9.95 g/m*3 14.1 C 0 km/h
2082 04-10-2010 08:30:02 14.3 C 9.83 g/m*3 14.3 C 0 km/h
2083 04-10-2010 08:42:03 14.4 C 9.64 g/m*3 14.4 C 0 km/h
2084 04-10-2010 08:54:02 14.7 C 9.69 g/m*3 14.7 C 0 km/h
2085 04-10-2010 09:06:02 14.9 C 9.56 g/m*3 14.9 C 0 km/h
2086 04-10-2010 09:18:02 15 C 9.23 g/m*3 15 C 0 km/h
2087 04-10-2010 09:30:02 15 C 9.1 g/m*3 15 C 0 km/h
2088 04-10-2010 09:42:02 15 C 9.1 g/m*3 15 C 0 km/h
2089 04-10-2010 09:54:02 15.1 C 9.16 g/m*3 15.1 C 0 km/h
2090 04-10-2010 10:06:02 15.2 C 9.09 g/m*3 15.2 C 0 km/h
2091 04-10-2010 10:18:02 15.3 C 9.01 g/m*3 15.3 C 0 km/h
2092 04-10-2010 10:30:02 15.4 C 9.07 g/m*3 15.4 C 0 km/h
2093 04-10-2010 10:42:02 16 C 8.86 g/m*3 16 C 0 km/h
2094 04-10-2010 10:54:01 16.4 C 8.79 g/m*3 16.4 C 0 km/h
2095 04-10-2010 11:06:02 17.1 C 8.88 g/m*3 17.1 C 0 km/h
2096 04-10-2010 11:18:01 17.1 C 8.88 g/m*3 17.1 C 0 km/h
2097 04-10-2010 11:30:01 17.6 C 9 g/m*3 17.6 C 0 km/h
2098 04-10-2010 11:42:01 18 C 8.91 g/m*3 18 C 0 km/h
2099 04-10-2010 11:54:01 18.3 C 8.91 g/m*3 18.3 C 0 km/h
2100 04-10-2010 12:06:01 18.5 C 8.86 g/m*3 18.5 C 0 km/h
Sensor: Nr:Datum:Temp:Abs-Feuchte:Windchill:Wind:
Aussen-T/F 2101 04-10-2010 12:18:02 18 C 8.91 g/m*3 18 C 0 km/h
2102 04-10-2010 12:30:02 17.8 C 8.8 g/m*3 17.8 C 0 km/h
2103 04-10-2010 12:42:01 17.5 C 8.65 g/m*3 17.5 C 0 km/h
2104 04-10-2010 12:54:02 17.4 C 8.6 g/m*3 17.4 C 0 km/h
2105 04-10-2010 13:06:01 17.9 C 8.7 g/m*3 17.9 C 0 km/h
2106 04-10-2010 13:18:02 18.3 C 8.6 g/m*3 18.3 C 0 km/h
2107 04-10-2010 13:30:02 18.9 C 8.59 g/m*3 18.9 C 0 km/h
2108 04-10-2010 13:42:01 19.1 C 8.52 g/m*3 19.1 C 0 km/h
2109 04-10-2010 13:54:02 19.4 C 8.68 g/m*3 19.4 C 0 km/h
2110 04-10-2010 14:06:02 19.3 C 8.63 g/m*3 19.3 C 0 km/h
2111 04-10-2010 14:18:02 19.5 C 8.73 g/m*3 19.5 C 0 km/h
2112 04-10-2010 14:30:02 19.7 C 8.66 g/m*3 19.7 C 0 km/h
2113 04-10-2010 14:42:02 19.9 C 8.59 g/m*3 19.9 C 0 km/h
2114 04-10-2010 14:54:02 20.4 C 9.02 g/m*3 20.4 C 0 km/h
2115 04-10-2010 15:06:01 21.2 C 8.9 g/m*3 21.2 C 0 km/h
2116 04-10-2010 15:18:02 22.3 C 8.29 g/m*3 22.3 C 0 km/h
2117 04-10-2010 15:30:02 22.7 C 8.69 g/m*3 22.7 C 0 km/h
2118 04-10-2010 15:42:02 23 C 8.63 g/m*3 23 C 0 km/h
2119 04-10-2010 15:54:02 23.3 C 8.57 g/m*3 23.3 C 0 km/h
2120 04-10-2010 16:06:02 23.1 C 8.27 g/m*3 23.1 C 0 km/h
2121 04-10-2010 16:18:02 23.4 C 8.2 g/m*3 23.4 C 0 km/h
2122 04-10-2010 16:30:02 23.9 C 8.44 g/m*3 23.9 C 0 km/h
2123 04-10-2010 16:42:02 23.9 C 8 g/m*3 23.9 C 0 km/h
2124 04-10-2010 16:54:01 23.9 C 8.22 g/m*3 23.9 C 0 km/h
2125 04-10-2010 17:06:02 23.3 C 8.15 g/m*3 23.3 C 0 km/h
Sensor: Nr:Datum:Temp:Abs-Feuchte:Windchill:Wind:
Aussen-T/F 2126 04-10-2010 17:18:01 22 C 8.54 g/m*3 22 C 0 km/h
2127 04-10-2010 17:30:01 20.4 C 9.38 g/m*3 20.4 C 0 km/h
2128 04-10-2010 17:42:01 19.5 C 9.73 g/m*3 19.5 C 0 km/h
2129 04-10-2010 17:54:01 20.5 C 9.61 g/m*3 20.5 C 0 km/h
2130 04-10-2010 18:06:02 20.2 C 9.44 g/m*3 20.2 C 0 km/h
2131 04-10-2010 18:18:02 19.5 C 9.57 g/m*3 19.5 C 0 km/h
2132 04-10-2010 18:30:02 18.7 C 9.61 g/m*3 18.7 C 0 km/h
2133 04-10-2010 18:42:01 17.8 C 9.71 g/m*3 17.8 C 0 km/h
2134 04-10-2010 18:54:01 17.2 C 9.81 g/m*3 17.2 C 0 km/h
2135 04-10-2010 19:06:01 16.9 C 10.07 g/m*3 16.9 C 0 km/h
2136 04-10-2010 19:18:02 16.8 C 10.15 g/m*3 16.8 C 0 km/h
2137 04-10-2010 19:30:02 16.5 C 10.11 g/m*3 16.5 C 0 km/h
2138 04-10-2010 19:42:01 16.2 C 10.07 g/m*3 16.2 C 0 km/h
2139 04-10-2010 19:54:03 16.2 C 10.07 g/m*3 16.2 C 0 km/h
2140 04-10-2010 20:06:02 16.4 C 10.19 g/m*3 16.4 C 0 km/h
2141 04-10-2010 20:18:02 16.5 C 10.11 g/m*3 16.5 C 0 km/h
2142 04-10-2010 20:30:03 16.4 C 10.05 g/m*3 16.4 C 0 km/h
2143 04-10-2010 20:42:02 16.1 C 9.87 g/m*3 16.1 C 0 km/h
2144 04-10-2010 20:54:02 15.7 C 9.9 g/m*3 15.7 C 0 km/h
2145 04-10-2010 21:06:01 15.6 C 9.97 g/m*3 15.6 C 0 km/h
2146 04-10-2010 21:18:02 15.5 C 10.05 g/m*3 15.5 C 0 km/h
2147 04-10-2010 21:30:02 15.6 C 9.97 g/m*3 15.6 C 0 km/h
2148 04-10-2010 21:42:02 15.4 C 9.85 g/m*3 15.4 C 0 km/h
2149 04-10-2010 21:54:01 15 C 9.87 g/m*3 15 C 0 km/h
2150 04-10-2010 22:06:02 14.8 C 9.88 g/m*3 14.8 C 0 km/h
Sensor: Nr:Datum:Temp:Abs-Feuchte:Windchill:Wind:
Aussen-T/F 2151 04-10-2010 22:19:04 14.7 C 9.95 g/m*3 14.7 C 0 km/h
2152 04-10-2010 22:31:04 14.5 C 9.95 g/m*3 14.5 C 0 km/h
2153 04-10-2010 22:43:04 14.5 C 9.95 g/m*3 14.5 C 0 km/h
2154 04-10-2010 22:55:04 14.3 C 9.83 g/m*3 14.3 C 0 km/h
2155 04-10-2010 23:07:04 14.2 C 9.89 g/m*3 14.2 C 0 km/h
2156 04-10-2010 23:19:04 14.2 C 9.89 g/m*3 14.2 C 0 km/h
2157 04-10-2010 23:31:04 14.3 C 9.95 g/m*3 14.3 C 0 km/h
2158 04-10-2010 23:43:05 14.2 C 9.89 g/m*3 14.2 C 0 km/h
2159 04-10-2010 23:55:05 14.1 C 9.95 g/m*3 14.1 C 0 km/h
2160 05-10-2010 00:07:05 14.1 C 9.95 g/m*3 14.1 C 0 km/h
2161 05-10-2010 00:19:05 14.1 C 9.95 g/m*3 14.1 C 0 km/h
2162 05-10-2010 00:31:05 14.2 C 10.01 g/m*3 14.2 C 0 km/h
2163 05-10-2010 00:43:05 14.3 C 10.07 g/m*3 14.3 C 0 km/h
2164 05-10-2010 00:55:05 14.3 C 10.07 g/m*3 14.3 C 0 km/h
2165 05-10-2010 01:07:05 14.2 C 10.01 g/m*3 14.2 C 0 km/h
2166 05-10-2010 01:19:05 14.1 C 9.95 g/m*3 14.1 C 0 km/h
2167 05-10-2010 01:31:05 13.8 C 9.77 g/m*3 13.8 C 0 km/h
2168 05-10-2010 01:43:05 13.8 C 9.89 g/m*3 13.8 C 0 km/h
2169 05-10-2010 01:55:05 13.8 C 9.89 g/m*3 13.8 C 0 km/h
2170 05-10-2010 02:07:05 13.4 C 9.65 g/m*3 13.4 C 0 km/h
2171 05-10-2010 02:19:05 13.5 C 9.71 g/m*3 13.5 C 0 km/h
2172 05-10-2010 02:31:05 13.5 C 9.83 g/m*3 13.5 C 0 km/h
2173 05-10-2010 02:43:05 13.6 C 10 g/m*3 13.6 C 0 km/h
2174 05-10-2010 02:55:05 13.6 C 10 g/m*3 13.6 C 0 km/h
2175 05-10-2010 03:07:05 13.6 C 10 g/m*3 13.6 C 0 km/h
Sensor: Nr:Datum:Temp:Abs-Feuchte:Windchill:Wind:
Aussen-T/F 2176 05-10-2010 03:19:05 13.6 C 10 g/m*3 13.6 C 0 km/h
2177 05-10-2010 03:31:05 13.7 C 10.07 g/m*3 13.7 C 0 km/h
2178 05-10-2010 03:43:05 13.6 C 10 g/m*3 13.6 C 0 km/h
2179 05-10-2010 03:55:06 13.5 C 9.94 g/m*3 13.5 C 0 km/h
2180 05-10-2010 04:07:06 13.5 C 9.94 g/m*3 13.5 C 0 km/h
2181 05-10-2010 04:19:06 13.6 C 10.12 g/m*3 13.6 C 0 km/h
2182 05-10-2010 04:31:06 13.6 C 10.12 g/m*3 13.6 C 0 km/h
2183 05-10-2010 04:43:06 13.6 C 10.12 g/m*3 13.6 C 0 km/h
2184 05-10-2010 04:55:06 13.7 C 10.18 g/m*3 13.7 C 0 km/h
2185 05-10-2010 05:07:06 13.7 C 10.18 g/m*3 13.7 C 0 km/h
2186 05-10-2010 05:19:06 13.7 C 10.18 g/m*3 13.7 C 0 km/h
2187 05-10-2010 05:31:06 13.6 C 10.12 g/m*3 13.6 C 0 km/h
2188 05-10-2010 05:43:06 13.5 C 10.06 g/m*3 13.5 C 0 km/h
2189 05-10-2010 05:55:06 13.5 C 10.18 g/m*3 13.5 C 0 km/h
2190 05-10-2010 06:07:06 13.4 C 10.23 g/m*3 13.4 C 0 km/h
2191 05-10-2010 06:19:06 13.4 C 10.35 g/m*3 13.4 C 0 km/h
2192 05-10-2010 06:31:06 13.4 C 10.35 g/m*3 13.4 C 0 km/h
2193 05-10-2010 06:43:06 13.4 C 10.46 g/m*3 13.4 C 0 km/h
2194 05-10-2010 06:55:06 13.5 C 10.53 g/m*3 13.5 C 0 km/h
2195 05-10-2010 07:07:01 13.4 C 10.46 g/m*3 13.4 C 0 km/h
2196 05-10-2010 07:19:02 13.4 C 10.58 g/m*3 13.4 C 0 km/h
2197 05-10-2010 07:31:02 13.4 C 10.58 g/m*3 13.4 C 0 km/h
2198 05-10-2010 07:43:02 13.4 C 10.58 g/m*3 13.4 C 0 km/h
2199 05-10-2010 07:55:02 13.4 C 10.58 g/m*3 13.4 C 0 km/h
2200 05-10-2010 08:07:02 13.4 C 10.58 g/m*3 13.4 C 0 km/h
Sensor: Nr:Datum:Temp:Abs-Feuchte:Windchill:Wind:
Aussen-T/F 2201 05-10-2010 08:19:02 13.2 C 10.45 g/m*3 13.2 C 0 km/h
2202 05-10-2010 08:31:02 13.1 C 10.38 g/m*3 13.1 C 0 km/h
2203 05-10-2010 08:43:02 13 C 10.32 g/m*3 13 C 0 km/h
2204 05-10-2010 08:55:02 13 C 10.32 g/m*3 13 C 0 km/h
2205 05-10-2010 09:07:02 13 C 10.43 g/m*3 13 C 0 km/h
2206 05-10-2010 09:19:02 13.2 C 10.56 g/m*3 13.2 C 0 km/h
2207 05-10-2010 09:31:01 13.4 C 10.69 g/m*3 13.4 C 0 km/h
2208 05-10-2010 09:43:01 13.4 C 10.81 g/m*3 13.4 C 0 km/h
2209 05-10-2010 09:55:02 13.5 C 10.88 g/m*3 13.5 C 0 km/h
2210 05-10-2010 10:07:01 13.8 C 11.08 g/m*3 13.8 C 0 km/h
2211 05-10-2010 10:19:02 14.3 C 11.43 g/m*3 14.3 C 0 km/h
2212 05-10-2010 10:31:02 14.7 C 11.83 g/m*3 14.7 C 0 km/h
2213 05-10-2010 10:43:02 15.2 C 12.07 g/m*3 15.2 C 0 km/h
2214 05-10-2010 10:55:02 16 C 12.67 g/m*3 16 C 0 km/h
2215 05-10-2010 11:07:02 17.2 C 13.62 g/m*3 17.2 C 0 km/h
2216 05-10-2010 11:19:02 17.3 C 13.7 g/m*3 17.3 C 0 km/h
2217 05-10-2010 11:31:02 17.4 C 13.34 g/m*3 17.4 C 0 km/h
2218 05-10-2010 11:43:02 17.3 C 12.37 g/m*3 17.3 C 0 km/h
2219 05-10-2010 11:55:01 18.2 C 11.97 g/m*3 18.2 C 0 km/h
2220 05-10-2010 12:07:02 18.3 C 11.73 g/m*3 18.3 C 0 km/h
2221 05-10-2010 12:19:02 17.9 C 11.45 g/m*3 17.9 C 0 km/h
2222 05-10-2010 12:31:01 18 C 11.37 g/m*3 18 C 0 km/h
2223 05-10-2010 12:43:01 17.9 C 11.3 g/m*3 17.9 C 0 km/h
2224 05-10-2010 12:55:02 18.4 C 11.32 g/m*3 18.4 C 0 km/h
2225 05-10-2010 13:07:01 18.7 C 11.37 g/m*3 18.7 C 0 km/h
Sensor: Nr:Datum:Temp:Abs-Feuchte:Windchill:Wind:
Aussen-T/F 2226 05-10-2010 13:19:02 18.9 C 11.18 g/m*3 18.9 C 0 km/h
2227 05-10-2010 13:31:01 19 C 11.08 g/m*3 19 C 0 km/h
2228 05-10-2010 13:43:01 19.3 C 11.44 g/m*3 19.3 C 0 km/h
2229 05-10-2010 13:55:02 20 C 11.06 g/m*3 20 C 0 km/h
2230 05-10-2010 14:07:02 19.9 C 10.31 g/m*3 19.9 C 0 km/h
2231 05-10-2010 14:19:02 19.5 C 10.57 g/m*3 19.5 C 0 km/h
2232 05-10-2010 14:31:02 19.6 C 10.8 g/m*3 19.6 C 0 km/h
2233 05-10-2010 14:43:02 18.7 C 11.05 g/m*3 18.7 C 0 km/h
2234 05-10-2010 14:55:02 18.6 C 11.94 g/m*3 18.6 C 0 km/h
2235 05-10-2010 15:07:01 19 C 12.22 g/m*3 19 C 0 km/h
2236 05-10-2010 15:19:02 17.9 C 12.06 g/m*3 17.9 C 0 km/h
2237 05-10-2010 15:31:02 18.3 C 12.51 g/m*3 18.3 C 0 km/h
2238 05-10-2010 15:43:02 19.3 C 13.27 g/m*3 19.3 C 0 km/h
2239 05-10-2010 15:55:01 19.5 C 13.09 g/m*3 19.5 C 0 km/h
2240 05-10-2010 16:07:02 19 C 12.55 g/m*3 19 C 0 km/h
2241 05-10-2010 16:19:01 18.7 C 12.65 g/m*3 18.7 C 0 km/h
2242 05-10-2010 16:31:02 18.4 C 12.43 g/m*3 18.4 C 0 km/h
2243 05-10-2010 16:43:02 18.3 C 12.51 g/m*3 18.3 C 0 km/h
2244 05-10-2010 16:55:02 18.1 C 12.21 g/m*3 18.1 C 0 km/h
2245 05-10-2010 17:07:02 17.7 C 11.92 g/m*3 17.7 C 0 km/h
2246 05-10-2010 17:19:01 17.2 C 11.42 g/m*3 17.2 C 0 km/h
2247 05-10-2010 17:31:02 16.8 C 11.58 g/m*3 16.8 C 0 km/h
2248 05-10-2010 17:43:02 16.8 C 11.72 g/m*3 16.8 C 0 km/h
2249 05-10-2010 17:55:02 17 C 11.72 g/m*3 17 C 0 km/h
2250 05-10-2010 18:07:02 17.1 C 11.65 g/m*3 17.1 C 0 km/h
Sensor: Nr:Datum:Temp:Abs-Feuchte:Windchill:Wind:
Aussen-T/F 2251 05-10-2010 18:19:02 17.1 C 11.65 g/m*3 17.1 C 0 km/h
2252 05-10-2010 18:31:02 17.1 C 11.35 g/m*3 17.1 C 0 km/h
2253 05-10-2010 18:43:02 17 C 11.29 g/m*3 17 C 0 km/h
2254 05-10-2010 18:55:02 16.8 C 11.29 g/m*3 16.8 C 0 km/h
2255 05-10-2010 19:07:02 16.6 C 11.3 g/m*3 16.6 C 0 km/h
2256 05-10-2010 19:19:03 16.5 C 11.23 g/m*3 16.5 C 0 km/h
2257 05-10-2010 19:31:02 16.5 C 11.37 g/m*3 16.5 C 0 km/h
2258 05-10-2010 19:43:02 17.3 C 11.64 g/m*3 17.3 C 0 km/h
2259 05-10-2010 19:55:02 16.4 C 11.03 g/m*3 16.4 C 0 km/h
2260 05-10-2010 20:07:02 16.4 C 11.03 g/m*3 16.4 C 0 km/h
2261 05-10-2010 20:19:02 16.4 C 11.03 g/m*3 16.4 C 0 km/h
2262 05-10-2010 20:31:02 16.4 C 11.03 g/m*3 16.4 C 0 km/h
2263 05-10-2010 20:43:02 16.3 C 10.96 g/m*3 16.3 C 0 km/h
2264 05-10-2010 20:55:02 16.3 C 10.68 g/m*3 16.3 C 0 km/h
2265 05-10-2010 21:07:02 16.1 C 10.55 g/m*3 16.1 C 0 km/h
2266 05-10-2010 21:19:02 16 C 10.35 g/m*3 16 C 0 km/h
2267 05-10-2010 21:31:01 15.6 C 10.24 g/m*3 15.6 C 0 km/h
2268 05-10-2010 21:43:01 15.4 C 10.12 g/m*3 15.4 C 0 km/h
2269 05-10-2010 21:55:02 15.3 C 10.06 g/m*3 15.3 C 0 km/h
2270 05-10-2010 22:07:01 15.2 C 9.99 g/m*3 15.2 C 0 km/h
2271 05-10-2010 22:19:02 15.3 C 9.92 g/m*3 15.3 C 0 km/h
2272 05-10-2010 22:31:01 15.4 C 9.99 g/m*3 15.4 C 0 km/h
2273 05-10-2010 22:43:01 15.2 C 9.99 g/m*3 15.2 C 0 km/h
2274 05-10-2010 22:55:02 15.4 C 9.99 g/m*3 15.4 C 0 km/h
2275 05-10-2010 23:07:01 15.6 C 9.97 g/m*3 15.6 C 0 km/h
Sensor: Nr:Datum:Temp:Abs-Feuchte:Windchill:Wind:
Aussen-T/F 2276 05-10-2010 23:19:02 15.6 C 9.97 g/m*3 15.6 C 0 km/h
2277 05-10-2010 23:31:01 15.6 C 9.97 g/m*3 15.6 C 0 km/h
2278 05-10-2010 23:43:01 15.6 C 9.97 g/m*3 15.6 C 0 km/h
2279 05-10-2010 23:55:02 15.6 C 9.97 g/m*3 15.6 C 0 km/h
2280 06-10-2010 00:07:01 15.6 C 9.97 g/m*3 15.6 C 0 km/h
2281 06-10-2010 00:19:02 15.6 C 9.97 g/m*3 15.6 C 0 km/h
2282 06-10-2010 00:31:01 15.6 C 9.97 g/m*3 15.6 C 0 km/h
2283 06-10-2010 00:43:01 15.6 C 9.97 g/m*3 15.6 C 0 km/h
2284 06-10-2010 00:55:02 15.6 C 9.97 g/m*3 15.6 C 0 km/h
2285 06-10-2010 01:07:02 15.5 C 9.91 g/m*3 15.5 C 0 km/h
2286 06-10-2010 01:19:02 15.5 C 9.91 g/m*3 15.5 C 0 km/h
2287 06-10-2010 01:31:03 15.5 C 10.05 g/m*3 15.5 C 0 km/h
2288 06-10-2010 01:43:03 15.5 C 10.05 g/m*3 15.5 C 0 km/h
2289 06-10-2010 01:55:02 15.5 C 10.05 g/m*3 15.5 C 0 km/h
2290 06-10-2010 02:07:01 15.5 C 10.05 g/m*3 15.5 C 0 km/h
2291 06-10-2010 02:19:02 15.5 C 10.18 g/m*3 15.5 C 0 km/h
2292 06-10-2010 02:31:02 15.4 C 10.25 g/m*3 15.4 C 0 km/h
2293 06-10-2010 02:43:02 15.4 C 10.25 g/m*3 15.4 C 0 km/h
2294 06-10-2010 02:55:01 15.4 C 10.12 g/m*3 15.4 C 0 km/h
2295 06-10-2010 03:07:01 15.3 C 10.19 g/m*3 15.3 C 0 km/h
2296 06-10-2010 03:19:02 15.3 C 10.06 g/m*3 15.3 C 0 km/h
2297 06-10-2010 03:31:01 15.3 C 10.06 g/m*3 15.3 C 0 km/h
2298 06-10-2010 03:43:02 15.3 C 10.06 g/m*3 15.3 C 0 km/h
2299 06-10-2010 03:55:02 15.2 C 10.12 g/m*3 15.2 C 0 km/h
2300 06-10-2010 04:07:01 15.2 C 10.12 g/m*3 15.2 C 0 km/h
Sensor: Nr:Datum:Temp:Abs-Feuchte:Windchill:Wind:
Aussen-T/F 2301 06-10-2010 04:19:01 15.2 C 10.12 g/m*3 15.2 C 0 km/h
2302 06-10-2010 04:31:02 15.1 C 10.06 g/m*3 15.1 C 0 km/h
2303 06-10-2010 04:43:02 15 C 10 g/m*3 15 C 0 km/h
2304 06-10-2010 04:55:01 15 C 10.13 g/m*3 15 C 0 km/h
2305 06-10-2010 05:07:02 14.9 C 10.2 g/m*3 14.9 C 0 km/h
2306 06-10-2010 05:19:01 15 C 10.13 g/m*3 15 C 0 km/h
2307 06-10-2010 05:31:02 14.9 C 10.32 g/m*3 14.9 C 0 km/h
2308 06-10-2010 05:43:02 14.9 C 10.32 g/m*3 14.9 C 0 km/h
2309 06-10-2010 05:55:01 14.9 C 10.32 g/m*3 14.9 C 0 km/h
2310 06-10-2010 06:07:02 14.8 C 10.26 g/m*3 14.8 C 0 km/h
2311 06-10-2010 06:19:01 14.9 C 10.32 g/m*3 14.9 C 0 km/h
2312 06-10-2010 06:31:01 14.8 C 10.01 g/m*3 14.8 C 0 km/h
2313 06-10-2010 06:43:01 14.8 C 10.01 g/m*3 14.8 C 0 km/h
2314 06-10-2010 06:55:01 14.8 C 9.88 g/m*3 14.8 C 0 km/h
2315 06-10-2010 07:07:01 14.7 C 9.82 g/m*3 14.7 C 0 km/h
2316 06-10-2010 07:19:01 14.7 C 9.95 g/m*3 14.7 C 0 km/h
2317 06-10-2010 07:31:01 14.7 C 9.95 g/m*3 14.7 C 0 km/h
2318 06-10-2010 07:43:02 14.6 C 10.01 g/m*3 14.6 C 0 km/h
2319 06-10-2010 07:55:02 14.6 C 10.01 g/m*3 14.6 C 0 km/h
2320 06-10-2010 08:07:01 14.5 C 10.07 g/m*3 14.5 C 0 km/h
2321 06-10-2010 08:19:02 14.3 C 9.95 g/m*3 14.3 C 0 km/h
2322 06-10-2010 08:31:01 14.1 C 9.95 g/m*3 14.1 C 0 km/h
2323 06-10-2010 08:43:01 14.5 C 10.32 g/m*3 14.5 C 0 km/h
2324 06-10-2010 08:55:01 15.2 C 10.64 g/m*3 15.2 C 0 km/h
2325 06-10-2010 09:07:01 15.6 C 10.64 g/m*3 15.6 C 0 km/h
Sensor: Nr:Datum:Temp:Abs-Feuchte:Windchill:Wind:
Aussen-T/F 2326 06-10-2010 09:19:02 15.5 C 10.31 g/m*3 15.5 C 0 km/h
2327 06-10-2010 09:31:01 15.3 C 10.06 g/m*3 15.3 C 0 km/h
2328 06-10-2010 09:43:01 15.6 C 9.84 g/m*3 15.6 C 0 km/h
2329 06-10-2010 09:55:02 15.7 C 9.77 g/m*3 15.7 C 0 km/h
2330 06-10-2010 10:07:01 15.9 C 10.16 g/m*3 15.9 C 0 km/h
2331 06-10-2010 10:19:01 16.2 C 9.93 g/m*3 16.2 C 0 km/h
2332 06-10-2010 10:31:01 16.3 C 9.99 g/m*3 16.3 C 0 km/h
2333 06-10-2010 10:43:01 16.4 C 9.63 g/m*3 16.4 C 0 km/h
2334 06-10-2010 10:55:02 16.4 C 9.91 g/m*3 16.4 C 0 km/h
2335 06-10-2010 11:07:01 17.1 C 9.46 g/m*3 17.1 C 0 km/h
2336 06-10-2010 11:19:01 17.2 C 9.37 g/m*3 17.2 C 0 km/h
2337 06-10-2010 11:31:02 17.7 C 9.35 g/m*3 17.7 C 0 km/h
2338 06-10-2010 11:43:02 18.2 C 9.01 g/m*3 18.2 C 0 km/h
2339 06-10-2010 11:55:01 18.6 C 9.07 g/m*3 18.6 C 0 km/h
2340 06-10-2010 12:07:02 18.9 C 8.91 g/m*3 18.9 C 0 km/h
2341 06-10-2010 12:19:01 18.8 C 8.7 g/m*3 18.8 C 0 km/h
2342 06-10-2010 12:31:02 19 C 8.64 g/m*3 19 C 0 km/h
2343 06-10-2010 12:43:02 19.2 C 8.57 g/m*3 19.2 C 0 km/h
2344 06-10-2010 12:55:01 19.3 C 8.63 g/m*3 19.3 C 0 km/h
2345 06-10-2010 13:07:02 19.8 C 8.71 g/m*3 19.8 C 0 km/h
2346 06-10-2010 13:19:01 20.2 C 8.39 g/m*3 20.2 C 0 km/h
2347 06-10-2010 13:31:01 20.4 C 8.67 g/m*3 20.4 C 0 km/h
2348 06-10-2010 13:43:01 20.3 C 8.27 g/m*3 20.3 C 0 km/h
2349 06-10-2010 13:55:01 20.3 C 8.44 g/m*3 20.3 C 0 km/h
2350 06-10-2010 14:07:01 20.4 C 8.31 g/m*3 20.4 C 0 km/h
Sensor: Nr:Datum:Temp:Abs-Feuchte:Windchill:Wind:
Aussen-T/F 2351 06-10-2010 14:19:01 21 C 8.43 g/m*3 21 C 0 km/h
2352 06-10-2010 14:31:01 21.6 C 8.35 g/m*3 21.6 C 0 km/h
2353 06-10-2010 14:43:01 22.2 C 8.25 g/m*3 22.2 C 0 km/h
2354 06-10-2010 14:55:01 22.9 C 7.77 g/m*3 22.9 C 0 km/h
2355 06-10-2010 15:07:01 23.3 C 8.15 g/m*3 23.3 C 0 km/h
2356 06-10-2010 15:19:02 23.4 C 8.41 g/m*3 23.4 C 0 km/h
2357 06-10-2010 15:31:01 23.3 C 8.15 g/m*3 23.3 C 0 km/h
2358 06-10-2010 15:43:01 22.9 C 8.17 g/m*3 22.9 C 0 km/h
2359 06-10-2010 15:55:02 22.4 C 8.34 g/m*3 22.4 C 0 km/h
2360 06-10-2010 16:07:01 22.8 C 8.53 g/m*3 22.8 C 0 km/h
2361 06-10-2010 16:19:02 23.2 C 8.32 g/m*3 23.2 C 0 km/h
2362 06-10-2010 16:31:01 22.8 C 9.14 g/m*3 22.8 C 0 km/h
2363 06-10-2010 16:43:01 22.7 C 9.7 g/m*3 22.7 C 0 km/h
2364 06-10-2010 16:55:02 22.7 C 9.09 g/m*3 22.7 C 0 km/h
2365 06-10-2010 17:07:01 21.9 C 9.84 g/m*3 21.9 C 0 km/h
2366 06-10-2010 17:19:01 21.5 C 10.18 g/m*3 21.5 C 0 km/h
2367 06-10-2010 17:31:02 21.1 C 10.32 g/m*3 21.1 C 0 km/h
2368 06-10-2010 17:43:02 20.7 C 10.26 g/m*3 20.7 C 0 km/h
2369 06-10-2010 17:55:01 20.2 C 10.14 g/m*3 20.2 C 0 km/h
2370 06-10-2010 18:07:01 19.7 C 10.02 g/m*3 19.7 C 0 km/h
2371 06-10-2010 18:19:01 19.4 C 10.34 g/m*3 19.4 C 0 km/h
2372 06-10-2010 18:31:02 18.9 C 10.21 g/m*3 18.9 C 0 km/h
2373 06-10-2010 18:43:02 18.6 C 10.35 g/m*3 18.6 C 0 km/h
2374 06-10-2010 18:55:01 18.1 C 10.2 g/m*3 18.1 C 0 km/h
2375 06-10-2010 19:07:02 17.9 C 10.23 g/m*3 17.9 C 0 km/h
Sensor: Nr:Datum:Temp:Abs-Feuchte:Windchill:Wind:
Aussen-T/F 2376 06-10-2010 19:19:01 17.5 C 10.14 g/m*3 17.5 C 0 km/h
2377 06-10-2010 19:31:01 17.2 C 10.25 g/m*3 17.2 C 0 km/h
2378 06-10-2010 19:43:01 17 C 10.13 g/m*3 17 C 0 km/h
2379 06-10-2010 19:55:01 16.9 C 10.21 g/m*3 16.9 C 0 km/h
2380 06-10-2010 20:07:01 16.9 C 10.07 g/m*3 16.9 C 0 km/h
2381 06-10-2010 20:19:01 17 C 9.98 g/m*3 17 C 0 km/h
2382 06-10-2010 20:31:01 17 C 9.98 g/m*3 17 C 0 km/h
2383 06-10-2010 20:43:01 16.8 C 10.29 g/m*3 16.8 C 0 km/h
2384 06-10-2010 20:55:01 16.8 C 10.29 g/m*3 16.8 C 0 km/h
2385 06-10-2010 21:07:01 16.6 C 10.45 g/m*3 16.6 C 0 km/h
2386 06-10-2010 21:19:02 16.5 C 10.39 g/m*3 16.5 C 0 km/h
2387 06-10-2010 21:31:01 16.4 C 10.47 g/m*3 16.4 C 0 km/h
2388 06-10-2010 21:43:01 16.2 C 10.34 g/m*3 16.2 C 0 km/h
2389 06-10-2010 21:55:02 16.1 C 10.42 g/m*3 16.1 C 0 km/h
2390 06-10-2010 22:07:02 16 C 10.49 g/m*3 16 C 0 km/h
2391 06-10-2010 22:19:01 15.8 C 10.5 g/m*3 15.8 C 0 km/h
2392 06-10-2010 22:31:01 15.8 C 10.63 g/m*3 15.8 C 0 km/h
2393 06-10-2010 22:43:01 15.7 C 10.57 g/m*3 15.7 C 0 km/h
2394 06-10-2010 22:55:01 15.4 C 10.38 g/m*3 15.4 C 0 km/h
2395 06-10-2010 23:07:01 15.2 C 10.38 g/m*3 15.2 C 0 km/h
2396 06-10-2010 23:19:01 15 C 10.26 g/m*3 15 C 0 km/h
2397 06-10-2010 23:31:01 14.9 C 10.32 g/m*3 14.9 C 0 km/h
2398 06-10-2010 23:43:01 14.8 C 10.39 g/m*3 14.8 C 0 km/h
2399 06-10-2010 23:55:01 14.6 C 10.26 g/m*3 14.6 C 0 km/h
2400 07-10-2010 00:07:01 14.5 C 10.2 g/m*3 14.5 C 0 km/h
Sensor: Nr:Datum:Temp:Abs-Feuchte:Windchill:Wind:
Aussen-T/F 2401 07-10-2010 00:19:01 14.3 C 10.2 g/m*3 14.3 C 0 km/h
2402 07-10-2010 00:31:02 14.2 C 10.14 g/m*3 14.2 C 0 km/h
2403 07-10-2010 00:43:02 14.1 C 10.19 g/m*3 14.1 C 0 km/h
2404 07-10-2010 00:55:01 14 C 10.13 g/m*3 14 C 0 km/h
2405 07-10-2010 01:07:01 14 C 10.25 g/m*3 14 C 0 km/h
2406 07-10-2010 01:19:01 14.4 C 10.63 g/m*3 14.4 C 0 km/h
2407 07-10-2010 01:31:02 14.3 C 10.57 g/m*3 14.3 C 0 km/h
2408 07-10-2010 01:43:02 14.2 C 10.5 g/m*3 14.2 C 0 km/h
2409 07-10-2010 01:55:01 14.3 C 10.57 g/m*3 14.3 C 0 km/h
2410 07-10-2010 02:07:02 14.3 C 10.57 g/m*3 14.3 C 0 km/h
2411 07-10-2010 02:19:01 14.2 C 10.38 g/m*3 14.2 C 0 km/h
2412 07-10-2010 02:31:01 14.2 C 10.38 g/m*3 14.2 C 0 km/h
2413 07-10-2010 02:43:01 14.3 C 10.44 g/m*3 14.3 C 0 km/h
2414 07-10-2010 02:55:01 14.2 C 10.38 g/m*3 14.2 C 0 km/h
2415 07-10-2010 03:07:01 14.2 C 10.38 g/m*3 14.2 C 0 km/h
2416 07-10-2010 03:19:02 14.2 C 10.38 g/m*3 14.2 C 0 km/h
2417 07-10-2010 03:31:01 14 C 10.25 g/m*3 14 C 0 km/h
2418 07-10-2010 03:43:01 14 C 10.37 g/m*3 14 C 0 km/h
2419 07-10-2010 03:55:01 14 C 10.37 g/m*3 14 C 0 km/h
2420 07-10-2010 04:07:02 14.5 C 10.7 g/m*3 14.5 C 0 km/h
2421 07-10-2010 04:19:01 13.9 C 10.43 g/m*3 13.9 C 0 km/h
2422 07-10-2010 04:31:01 13.9 C 10.43 g/m*3 13.9 C 0 km/h
2423 07-10-2010 04:43:01 13.5 C 10.06 g/m*3 13.5 C 0 km/h
2424 07-10-2010 04:55:01 13.3 C 9.94 g/m*3 13.3 C 0 km/h
2425 07-10-2010 05:07:01 13.1 C 9.93 g/m*3 13.1 C 0 km/h
Sensor: Nr:Datum:Temp:Abs-Feuchte:Windchill:Wind:
Aussen-T/F 2426 07-10-2010 05:20:01 13 C 9.87 g/m*3 13 C 0 km/h
2427 07-10-2010 05:31:01 13.1 C 10.04 g/m*3 13.1 C 0 km/h
2428 07-10-2010 05:43:01 13.6 C 10.47 g/m*3 13.6 C 0 km/h
2429 07-10-2010 05:56:01 13.7 C 10.54 g/m*3 13.7 C 0 km/h
2430 07-10-2010 06:07:01 13.8 C 10.48 g/m*3 13.8 C 0 km/h
2431 07-10-2010 06:19:02 13.8 C 10.48 g/m*3 13.8 C 0 km/h
2432 07-10-2010 06:32:01 13.8 C 10.48 g/m*3 13.8 C 0 km/h
2433 07-10-2010 06:44:01 13.9 C 10.55 g/m*3 13.9 C 0 km/h
2434 07-10-2010 06:55:02 13.9 C 10.55 g/m*3 13.9 C 0 km/h
2435 07-10-2010 07:08:01 13.8 C 10.48 g/m*3 13.8 C 0 km/h
2436 07-10-2010 07:20:01 14 C 10.49 g/m*3 14 C 0 km/h
2437 07-10-2010 07:31:02 14.1 C 10.56 g/m*3 14.1 C 0 km/h
2438 07-10-2010 07:43:02 14.4 C 10.75 g/m*3 14.4 C 0 km/h
2439 07-10-2010 07:56:01 14.3 C 10.69 g/m*3 14.3 C 0 km/h
2440 07-10-2010 08:08:01 14.4 C 10.75 g/m*3 14.4 C 0 km/h
2441 07-10-2010 08:20:01 14.6 C 10.89 g/m*3 14.6 C 0 km/h
2442 07-10-2010 08:32:02 14.7 C 10.95 g/m*3 14.7 C 0 km/h
2443 07-10-2010 08:44:02 14.8 C 11.02 g/m*3 14.8 C 0 km/h
2444 07-10-2010 08:56:01 14.8 C 10.89 g/m*3 14.8 C 0 km/h
2445 07-10-2010 09:08:02 14.8 C 10.77 g/m*3 14.8 C 0 km/h
2446 07-10-2010 09:20:01 14.7 C 10.45 g/m*3 14.7 C 0 km/h
2447 07-10-2010 09:32:01 14.8 C 10.51 g/m*3 14.8 C 0 km/h
2448 07-10-2010 09:44:01 15.3 C 10.71 g/m*3 15.3 C 0 km/h
2449 07-10-2010 09:56:01 15.7 C 10.57 g/m*3 15.7 C 0 km/h
2450 07-10-2010 10:08:01 16.2 C 10.48 g/m*3 16.2 C 0 km/h
Sensor: Nr:Datum:Temp:Abs-Feuchte:Windchill:Wind:
Aussen-T/F 2451 07-10-2010 10:20:02 16.1 C 10.14 g/m*3 16.1 C 0 km/h
2452 07-10-2010 10:32:01 16.2 C 10.34 g/m*3 16.2 C 0 km/h
2453 07-10-2010 10:44:01 16.2 C 10.34 g/m*3 16.2 C 0 km/h
2454 07-10-2010 10:56:01 16.2 C 10.34 g/m*3 16.2 C 0 km/h
2455 07-10-2010 11:08:01 16.7 C 10.52 g/m*3 16.7 C 0 km/h
2456 07-10-2010 11:20:02 17.1 C 10.34 g/m*3 17.1 C 0 km/h
2457 07-10-2010 11:32:01 17.3 C 10.31 g/m*3 17.3 C 0 km/h
2458 07-10-2010 11:44:01 17.4 C 10.08 g/m*3 17.4 C 0 km/h
2459 07-10-2010 11:56:02 17.8 C 10.32 g/m*3 17.8 C 0 km/h
2460 07-10-2010 12:08:01 18.1 C 9.89 g/m*3 18.1 C 0 km/h
2461 07-10-2010 12:20:01 18.3 C 10.01 g/m*3 18.3 C 0 km/h
2462 07-10-2010 12:32:02 18.3 C 10.01 g/m*3 18.3 C 0 km/h
2463 07-10-2010 12:44:02 18.7 C 10.09 g/m*3 18.7 C 0 km/h
2464 07-10-2010 12:56:01 18.6 C 9.87 g/m*3 18.6 C 0 km/h
2465 07-10-2010 13:08:02 18.8 C 10.15 g/m*3 18.8 C 0 km/h
2466 07-10-2010 13:20:01 19.2 C 10.06 g/m*3 19.2 C 0 km/h
2467 07-10-2010 13:32:02 19.3 C 9.62 g/m*3 19.3 C 0 km/h
2468 07-10-2010 13:44:02 19.5 C 9.73 g/m*3 19.5 C 0 km/h
2469 07-10-2010 13:56:01 19.5 C 9.57 g/m*3 19.5 C 0 km/h
2470 07-10-2010 14:08:02 19.7 C 9.85 g/m*3 19.7 C 0 km/h
2471 07-10-2010 14:20:01 19.8 C 9.91 g/m*3 19.8 C 0 km/h
2472 07-10-2010 14:32:01 19.7 C 9.68 g/m*3 19.7 C 0 km/h
2473 07-10-2010 14:44:01 19.9 C 9.79 g/m*3 19.9 C 0 km/h
2474 07-10-2010 14:56:01 20.3 C 9.67 g/m*3 20.3 C 0 km/h
2475 07-10-2010 15:08:01 20.5 C 9.43 g/m*3 20.5 C 0 km/h
Sensor: Nr:Datum:Temp:Abs-Feuchte:Windchill:Wind:
Aussen-T/F 2476 07-10-2010 15:20:01 20.8 C 9.6 g/m*3 20.8 C 0 km/h
2477 07-10-2010 15:32:01 20.7 C 9.54 g/m*3 20.7 C 0 km/h
2478 07-10-2010 15:44:01 20.4 C 9.38 g/m*3 20.4 C 0 km/h
2479 07-10-2010 15:56:01 20.1 C 9.56 g/m*3 20.1 C 0 km/h
2480 07-10-2010 16:08:01 20 C 9.68 g/m*3 20 C 0 km/h
2481 07-10-2010 16:20:02 20.4 C 9.55 g/m*3 20.4 C 0 km/h
2482 07-10-2010 16:32:01 20.1 C 9.39 g/m*3 20.1 C 0 km/h
2483 07-10-2010 16:44:01 19.6 C 9.45 g/m*3 19.6 C 0 km/h
2484 07-10-2010 16:56:02 19.6 C 9.28 g/m*3 19.6 C 0 km/h
2485 07-10-2010 17:08:01 19.6 C 9.45 g/m*3 19.6 C 0 km/h
2486 07-10-2010 17:20:01 19.3 C 9.45 g/m*3 19.3 C 0 km/h
2487 07-10-2010 17:32:02 19.2 C 9.56 g/m*3 19.2 C 0 km/h
2488 07-10-2010 17:44:02 19 C 9.45 g/m*3 19 C 0 km/h
2489 07-10-2010 17:56:01 18.7 C 9.93 g/m*3 18.7 C 0 km/h
2490 07-10-2010 18:08:02 18.3 C 10.01 g/m*3 18.3 C 0 km/h
2491 07-10-2010 18:20:01 18.1 C 10.2 g/m*3 18.1 C 0 km/h
2492 07-10-2010 18:32:02 17.9 C 10.23 g/m*3 17.9 C 0 km/h
2493 07-10-2010 18:44:02 17.7 C 10.26 g/m*3 17.7 C 0 km/h
2494 07-10-2010 18:56:01 17.4 C 10.37 g/m*3 17.4 C 0 km/h
2495 07-10-2010 19:08:02 17.1 C 10.34 g/m*3 17.1 C 0 km/h
2496 07-10-2010 19:20:01 17 C 10.42 g/m*3 17 C 0 km/h
2497 07-10-2010 19:32:01 16.8 C 10.44 g/m*3 16.8 C 0 km/h
2498 07-10-2010 19:44:01 17 C 10.42 g/m*3 17 C 0 km/h
2499 07-10-2010 19:56:01 16.6 C 10.31 g/m*3 16.6 C 0 km/h
2500 07-10-2010 20:08:01 16.5 C 10.39 g/m*3 16.5 C 0 km/h
Sensor: Nr:Datum:Temp:Abs-Feuchte:Windchill:Wind:
Aussen-T/F 2501 07-10-2010 20:20:02 16.4 C 10.33 g/m*3 16.4 C 0 km/h
2502 07-10-2010 20:32:01 16.2 C 10.34 g/m*3 16.2 C 0 km/h
2503 07-10-2010 20:44:01 16.2 C 10.34 g/m*3 16.2 C 0 km/h
2504 07-10-2010 20:56:02 16.2 C 10.34 g/m*3 16.2 C 0 km/h
2505 07-10-2010 21:08:01 16.3 C 10.13 g/m*3 16.3 C 0 km/h
2506 07-10-2010 21:20:02 16.3 C 10.27 g/m*3 16.3 C 0 km/h
2507 07-10-2010 21:32:01 16.2 C 10.2 g/m*3 16.2 C 0 km/h
2508 07-10-2010 21:44:01 16.2 C 10.07 g/m*3 16.2 C 0 km/h
2509 07-10-2010 21:56:02 16.1 C 10.01 g/m*3 16.1 C 0 km/h
2510 07-10-2010 22:08:01 16 C 9.95 g/m*3 16 C 0 km/h
2511 07-10-2010 22:20:02 16 C 9.95 g/m*3 16 C 0 km/h
2512 07-10-2010 22:32:02 16 C 9.95 g/m*3 16 C 0 km/h
2513 07-10-2010 22:44:02 16 C 9.81 g/m*3 16 C 0 km/h
2514 07-10-2010 22:56:02 16 C 9.67 g/m*3 16 C 0 km/h
2515 07-10-2010 23:08:02 16.1 C 9.73 g/m*3 16.1 C 0 km/h
2516 07-10-2010 23:20:02 16 C 9.67 g/m*3 16 C 0 km/h
2517 07-10-2010 23:32:02 16 C 9.67 g/m*3 16 C 0 km/h
2518 07-10-2010 23:44:02 16 C 9.81 g/m*3 16 C 0 km/h
2519 07-10-2010 23:56:02 16 C 9.81 g/m*3 16 C 0 km/h

Legende:
   Min
   Max


Maximal/Minimal-Werte vom 17.09.2010 - 07.10.2010

Sensor Min Max Avg
Temp
(Aussen-T/F)
5.5 °C
19-09-2010  06:04:05
27.6 °C
22-09-2010  16:42:02
13.87 °C
Abs-Feuchte
(Aussen-T/F)
4.25 g/m*3
17-09-2010  17:14:01
13.7 g/m*3
05-10-2010  11:19:02
8.77 g/m*3
Windchill
(Aussen-T/F)
5.5 C
19-09-2010  06:04:05
27.6 C
22-09-2010  16:42:02
13.87 C

Die Daten stammen von einer Davis Vantage Pro 2 Wetter-Station und werden unter Linux mit der Software wview2wettercgi und aufbereitet. Alle Angaben erfolgen ohne Gewähr für ihre Vollständigkeit oder Richtigkeit.
Kontakt: Rainer Krienke krienke@uni-koblenz.de . Meine Webseiten an der Uni Koblenz oder privat.
Version: $Revision: 0.78 $